[[[{"header":{"parameterUnit":"kt","parameterCategory":2,"dx":1,"dy":1,"la1":29.587661999999998,"la2":31.0,"lo1":-88.76705300000003,"lo2":-86.6583820000003,"nx":115,"ny":88,"refTime":"2022-10-04T12:00:00:Z","depth":0,"parameterNumber":1,"parameterNumberName":"U-component_of_WINDS"},"data":[-4.256,-4.2503,-4.2961,-4.3105,-4.3049,-4.3137,-4.3027,-4.2705,-4.2551,-4.2317,-4.1991,-4.1488,-4.0708,-3.965,-3.9415,-3.9318,-3.9162,-3.8796,-3.869,-3.8583,-3.7901,-3.7691,-3.7436,-3.7133,-3.6679,-3.5954,-3.4987,-3.3947,-3.3364,-3.2309,-3.142,-3.0767,-3.0511,-3.034,-2.9735,-2.8617,-2.7325,-2.6103,-2.5014,-2.3718,-2.251,-2.079,-1.8399,-1.7803,-1.7191,-1.7306,-1.6909,-1.5439,-1.2918,-1.0682,-0.9156,-0.7816,-0.5535,-0.3142,-0.1515,-0.0432,0.0757,0.184,0.2815,0.325,0.3683,0.4112,0.4979,0.5949,0.6707,0.7798,0.8013,0.853,0.8215,0.6727,0.6943,0.7691,0.7905,0.8543,0.9391,1.0348,1.1302,1.227,1.273,1.2644,1.274,1.2653,1.2386,1.2614,1.3062,1.3573,1.3885,1.447,1.469,1.522,1.5658,1.5543,1.5324,1.492,1.4514,1.4201,1.4503,1.4585,1.469,1.5036,1.5047,1.469,1.469,1.4931,1.4827,1.4801,1.473,1.4902,1.4796,1.5014,1.4702,1.4512,1.384,1.3305,1.2712,-4.1861,-4.1264,-4.1234,-4.1205,-4.1234,-4.1747,-4.1688,-4.1234,-4.1416,-4.1173,-4.0269,-3.8788,-3.8186,-3.785,-3.7621,-3.7492,-3.719,-3.6714,-3.6623,-3.6429,-3.6057,-3.5879,-3.568,-3.5456,-3.507,-3.4419,-3.3385,-3.2383,-3.1468,-3.0705,-2.978,-2.8792,-2.8614,-2.8703,-2.7716,-2.6692,-2.5503,-2.4057,-2.2799,-2.1477,-2.0031,-1.8587,-1.8196,-1.7905,-1.7497,-1.7075,-1.6139,-1.4782,-1.3217,-1.1082,-0.8964,-0.7595,-0.5755,-0.4893,-0.3694,-0.2822,-0.1626,-0.0651,0.0326,0.0869,0.1303,0.1954,0.2935,0.3691,0.4338,0.4774,0.489,0.5215,0.5435,0.5223,0.576,0.63,0.63,0.6619,0.7577,0.8429,0.9504,1.0577,1.0404,1.0121,1.0281,1.0415,1.0399,1.0618,1.1137,1.1845,1.2491,1.3072,1.3751,1.4179,1.4503,1.4492,1.4388,1.3887,1.3382,1.3583,1.4086,1.4179,1.4388,1.4503,1.4619,1.4619,1.4514,1.4548,1.4563,1.4662,1.461,1.4675,1.486,1.4968,1.5033,1.4953,1.4306,1.3635,1.276,-4.0927,-4.0896,-4.0803,-4.074,-4.0802,-4.1051,-4.0834,-4.0392,-4.0231,-3.9088,-3.7321,-3.6355,-3.581,-3.5734,-3.5505,-3.5271,-3.486,-3.4471,-3.4497,-3.4419,-3.4183,-3.4076,-3.3943,-3.3703,-3.3406,-3.2754,-3.1708,-3.0814,-2.978,-2.9102,-2.8503,-2.7646,-2.7262,-2.6875,-2.5449,-2.4415,-2.3157,-2.1738,-2.0723,-1.9747,-1.8775,-1.8297,-1.7905,-1.7599,-1.7306,-1.6806,-1.5865,-1.4712,-1.3132,-1.1425,-0.9497,-0.7899,-0.6624,-0.599,-0.5335,-0.4565,-0.38,-0.3149,-0.239,-0.1847,-0.1411,-0.0869,-0.0109,0.1087,0.1737,0.25,0.2613,0.3154,0.348,0.4026,0.4565,0.5002,0.5002,0.511,0.5859,0.6507,0.7261,0.8341,0.8582,0.85,0.8797,0.8957,0.8857,0.897,0.9688,1.0407,1.1259,1.1945,1.2596,1.3027,1.3342,1.3552,1.3447,1.3152,1.2845,1.3046,1.3447,1.3876,1.419,1.4287,1.43,1.4425,1.4479,1.4557,1.4618,1.4706,1.4835,1.4969,1.5075,1.5209,1.5381,1.5468,1.4933,1.4324,1.2699,-3.9816,-4.001,-4.0105,-3.9942,-3.968,-3.9619,-3.9258,-3.8817,-3.8227,-3.6668,-3.5017,-3.4576,-3.434,-3.4288,-3.3945,-3.36,-3.3092,-3.2849,-3.2604,-3.2629,-3.2539,-3.2482,-3.2233,-3.2125,-3.1732,-3.097,-3.0455,-2.9913,-2.8748,-2.7716,-2.6845,-2.6661,-2.6456,-2.6046,-2.4905,-2.4262,-2.2904,-2.1346,-1.9962,-1.8688,-1.8095,-1.7803,-1.7599,-1.7306,-1.6986,-1.6588,-1.5762,-1.4492,-1.2797,-1.1514,-1.0128,-0.9077,-0.7589,-0.718,-0.6531,-0.5872,-0.5323,-0.4785,-0.4134,-0.37,-0.3371,-0.2937,-0.2285,-0.1523,-0.0762,-0.0,0.0762,0.1414,0.2064,0.2717,0.326,0.348,0.3697,0.3917,0.4243,0.4463,0.4792,0.5769,0.6856,0.7294,0.7618,0.7618,0.7407,0.772,0.8347,0.8977,0.9824,1.0683,1.1222,1.1549,1.1866,1.2221,1.2317,1.2548,1.251,1.2606,1.2692,1.3007,1.3524,1.3764,1.3974,1.4316,1.4824,1.4836,1.4644,1.4962,1.5047,1.5079,1.5214,1.5479,1.5509,1.553,1.5149,1.3759,1.2085,-3.8749,-3.7735,-3.8133,-3.7821,-3.6899,-3.673,-3.6263,-3.5522,-3.5014,-3.4419,-3.4104,-3.3945,-3.3626,-3.3143,-3.2736,-3.23,-3.1802,-3.1383,-3.1239,-3.1383,-3.1202,-3.1055,-3.0838,-3.0558,-3.026,-3.0064,-2.9716,-2.9036,-2.8034,-2.7058,-2.6271,-2.6086,-2.59,-2.53,-2.4736,-2.4204,-2.2921,-2.1149,-1.9563,-1.8297,-1.7803,-1.7599,-1.7408,-1.7114,-1.6896,-1.6563,-1.5829,-1.4021,-1.147,-0.9968,-0.8923,-0.8877,-0.781,-0.7061,-0.6526,-0.5981,-0.5764,-0.5552,-0.5335,-0.5006,-0.468,-0.4243,-0.3371,-0.2609,-0.2176,-0.1632,-0.1197,-0.0543,0.0869,0.163,0.2285,0.2611,0.3048,0.3376,0.3485,0.3594,0.3814,0.4355,0.5114,0.5443,0.5877,0.6315,0.6216,0.632,0.6948,0.7374,0.812,0.9198,0.974,0.9854,1.0305,1.0781,1.1036,1.1294,1.1526,1.1847,1.1931,1.2234,1.2909,1.309,1.291,1.3727,1.4944,1.4384,1.3818,1.4503,1.468,1.477,1.4697,1.4847,1.4741,1.527,1.4472,1.266,1.1118,-3.7835,-3.7045,-3.7101,-3.6661,-3.5755,-3.5446,-3.4366,-3.3006,-3.2646,-3.2564,-3.2482,-3.2291,-3.2101,-3.1827,-3.1262,-3.0752,-3.0323,-2.989,-2.9826,-2.9803,-2.9826,-2.9651,-2.9476,-2.9278,-2.8947,-2.8346,-2.7987,-2.7987,-2.7262,-2.6456,-2.5826,-2.5659,-2.5584,-2.4679,-2.3804,-2.3342,-2.234,-2.0936,-1.9648,-1.8587,-1.8108,-1.7701,-1.7613,-1.7319,-1.7114,-1.6947,-1.6572,-1.4805,-1.2004,-0.9319,-0.9574,-0.9305,-0.8347,-0.7816,-0.7283,-0.6732,-0.6521,-0.6418,-0.6202,-0.5877,-0.5656,-0.5223,-0.446,-0.3806,-0.3588,-0.3157,-0.272,-0.2174,-0.0761,0.0544,0.1197,0.1851,0.2397,0.2833,0.2941,0.2941,0.305,0.3268,0.3485,0.3703,0.414,0.4792,0.523,0.523,0.5552,0.63,0.7266,0.8151,0.85,0.8775,0.9176,0.9801,1.0051,1.0236,1.0747,1.1122,1.1315,1.1615,1.1983,1.1924,1.1761,1.2213,1.3007,1.3086,1.3001,1.2867,1.2803,1.3302,1.3675,1.2987,1.2819,1.2623,1.1756,1.0647,0.9747,-3.6927,-3.6281,-3.6159,-3.5402,-3.434,-3.3945,-3.2786,-3.1017,-3.0502,-3.0415,-3.0392,-3.0219,-2.989,-2.9826,-2.9323,-2.8703,-2.8346,-2.8188,-2.8188,-2.8367,-2.8525,-2.8346,-2.8166,-2.8077,-2.7646,-2.7212,-2.6937,-2.6825,-2.6456,-2.6271,-2.5826,-2.4906,-2.4318,-2.3342,-2.2357,-2.1493,-2.0589,-1.9678,-1.9177,-1.8399,-1.7905,-1.7701,-1.7511,-1.7306,-1.7114,-1.7037,-1.6651,-1.5128,-1.2967,-1.0187,-1.0234,-0.9732,-0.8783,-0.836,-0.8037,-0.7595,-0.7379,-0.7277,-0.7067,-0.6635,-0.6202,-0.5764,-0.5219,-0.5114,-0.5006,-0.4568,-0.3808,-0.3046,-0.1848,-0.1088,-0.0436,0.0545,0.1417,0.1853,0.2179,0.2288,0.2397,0.2615,0.2833,0.305,0.3374,0.4026,0.4792,0.4792,0.5009,0.5872,0.6536,0.7229,0.7612,0.7972,0.8403,0.919,0.9492,0.9434,0.9816,0.9962,1.0388,1.0695,1.0643,1.0623,1.0675,1.1031,1.1164,1.1543,1.2016,1.1919,1.1289,1.1643,1.2448,1.1771,1.1139,1.012,0.9231,0.8715,0.7944,-3.6009,-3.5271,-3.5094,-3.3943,-3.2341,-3.1864,-3.0994,-2.9761,-2.8503,-2.8055,-2.7987,-2.8077,-2.7875,-2.7241,-2.6804,-2.662,-2.6344,-2.6733,-2.6733,-2.6712,-2.6967,-2.6916,-2.6825,-2.6641,-2.6364,-2.6271,-2.6178,-2.5713,-2.5973,-2.5507,-2.4755,-2.39,-2.2956,-2.2064,-2.1379,-2.0489,-1.9592,-1.889,-1.85,-1.8095,-1.7701,-1.7511,-1.7408,-1.7204,-1.7114,-1.7127,-1.66,-1.5635,-1.3698,-1.2119,-1.0985,-0.9946,-0.9105,-0.8468,-0.8037,-0.7816,-0.7487,-0.7385,-0.7283,-0.7072,-0.6635,-0.631,-0.5981,-0.5981,-0.5764,-0.5223,-0.4785,-0.4023,-0.3048,-0.2506,-0.1744,-0.0654,0.0436,0.0872,0.1308,0.1527,0.1745,0.1963,0.2181,0.2508,0.2939,0.3374,0.414,0.4355,0.4463,0.525,0.5869,0.6468,0.7168,0.7397,0.7924,0.8604,0.8665,0.86,0.8518,0.8512,0.8875,0.9433,0.9382,0.914,0.9966,1.037,0.9998,0.9966,1.0842,1.089,1.0126,1.0261,1.0775,1.0775,1.0255,0.9231,0.7815,0.7176,0.7046,-3.4862,-3.4104,-3.3812,-3.3056,-3.184,-3.0823,-2.9674,-2.8503,-2.7896,-2.7716,-2.7646,-2.7353,-2.717,-2.6896,-2.6641,-2.6251,-2.6178,-2.588,-2.5394,-2.5187,-2.5168,-2.5019,-2.4755,-2.4471,-2.4736,-2.4471,-2.4376,-2.4357,-2.4225,-2.3881,-2.3403,-2.271,-2.2031,-2.1067,-1.9977,-1.9492,-1.8702,-1.8399,-1.7905,-1.7701,-1.7613,-1.7408,-1.7217,-1.7114,-1.7114,-1.7114,-1.6793,-1.5932,-1.4634,-1.2709,-1.1689,-1.1319,-1.0585,-0.9633,-0.8569,-0.8246,-0.7918,-0.7493,-0.7288,-0.7077,-0.7006,-0.668,-0.664,-0.664,-0.6531,-0.6135,-0.5799,-0.5137,-0.4026,-0.3376,-0.2617,-0.1199,-0.0436,-0.0218,0.0218,0.0654,0.0982,0.1635,0.1854,0.2292,0.2726,0.3164,0.3599,0.372,0.3863,0.4575,0.5192,0.5991,0.6696,0.6979,0.7383,0.7647,0.768,0.7672,0.7592,0.7331,0.7666,0.8069,0.7785,0.7209,0.797,0.8883,0.8473,0.8193,0.8838,0.8973,0.8586,0.8203,0.8203,0.8333,0.8591,0.7949,0.653,0.64,0.653,-3.3837,-3.3411,-3.2811,-3.1983,-3.1079,-3.0023,-2.8703,-2.7353,-2.71,-2.6825,-2.6548,-2.6251,-2.6066,-2.5767,-2.5226,-2.4868,-2.4755,-2.4167,-2.4167,-2.3977,-2.394,-2.3481,-2.3403,-2.3385,-2.3289,-2.3096,-2.3018,-2.3096,-2.2579,-2.2693,-2.2306,-2.164,-2.1083,-2.0191,-1.899,-1.8297,-1.8108,-1.8108,-1.7803,-1.7511,-1.7524,-1.7319,-1.7217,-1.7114,-1.7114,-1.7114,-1.7012,-1.6678,-1.5151,-1.3116,-1.2957,-1.2481,-1.1637,-1.0372,-0.9205,-0.8676,-0.8246,-0.7714,-0.7396,-0.7284,-0.7438,-0.742,-0.7357,-0.7362,-0.7207,-0.7085,-0.6749,-0.5983,-0.4879,-0.4194,-0.3591,-0.2249,-0.1558,-0.1224,-0.0665,-0.0221,0.0329,0.0988,0.1544,0.1991,0.2302,0.2521,0.3042,0.3217,0.3332,0.3815,0.4015,0.4814,0.5463,0.585,0.6391,0.652,0.6589,0.6551,0.6602,0.6315,0.6489,0.6786,0.6396,0.601,0.64,0.7185,0.7042,0.7167,0.7176,0.7051,0.7176,0.7171,0.64,0.627,0.6916,0.6661,0.6274,0.6274,0.6286,-3.3031,-3.2868,-3.1948,-3.0846,-2.9674,-2.9345,-2.8098,-2.6178,-2.5993,-2.5433,-2.4603,-2.4318,-2.3936,-2.3552,-2.3534,-2.3263,-2.2956,-2.2939,-2.2859,-2.2859,-2.2904,-2.3079,-2.279,-2.2517,-2.2226,-2.2482,-2.2209,-2.1917,-2.19,-2.1624,-2.1166,-2.0489,-2.0191,-1.9607,-1.8399,-1.7993,-1.7905,-1.7905,-1.7905,-1.7715,-1.7511,-1.7408,-1.7217,-1.7114,-1.7114,-1.7114,-1.7012,-1.6781,-1.5908,-1.4082,-1.3824,-1.3311,-1.2376,-1.1108,-0.9519,-0.8783,-0.836,-0.8037,-0.7846,-0.7978,-0.8063,-0.8102,-0.7963,-0.7896,-0.7614,-0.7254,-0.6851,-0.6736,-0.5772,-0.51,-0.4408,-0.3687,-0.292,-0.2427,-0.1723,-0.1141,-0.0338,0.0335,0.0907,0.1372,0.1573,0.1903,0.2455,0.2755,0.2746,0.2899,0.2837,0.3246,0.3767,0.4299,0.4982,0.5165,0.5165,0.5208,0.5338,0.5221,0.5221,0.5352,0.5485,0.5619,0.588,0.614,0.627,0.627,0.64,0.6661,0.64,0.614,0.627,0.627,0.627,0.6148,0.6278,0.6286,0.633,-3.2091,-3.1864,-3.1443,-3.0109,-2.8435,-2.8188,-2.6916,-2.5264,-2.4906,-2.4431,-2.405,-2.3762,-2.357,-2.3378,-2.2991,-2.2603,-2.2293,-2.1902,-2.1706,-2.1591,-2.1493,-2.1296,-2.1099,-2.1,-2.0984,-2.0703,-2.0489,-2.0275,-2.0191,-1.9992,-1.9693,-1.9392,-1.9091,-1.899,-1.8486,-1.8385,-1.8297,-1.8196,-1.7993,-1.7803,-1.7511,-1.7306,-1.7114,-1.7114,-1.7114,-1.7114,-1.7012,-1.6678,-1.6126,-1.5105,-1.4179,-1.3855,-1.3122,-1.1848,-0.9526,-0.8783,-0.8354,-0.8151,-0.8159,-0.8297,-0.8628,-0.8499,-0.8398,-0.8227,-0.7981,-0.7584,-0.733,-0.7254,-0.669,-0.6223,-0.6096,-0.5305,-0.4546,-0.3692,-0.296,-0.2115,-0.1389,-0.0574,0.0116,0.0828,0.1329,0.1827,0.2245,0.2357,0.2487,0.2776,0.2936,0.3325,0.3467,0.3489,0.3923,0.3923,0.3923,0.4054,0.4184,0.4443,0.4567,0.47,0.4834,0.4967,0.5228,0.5485,0.5616,0.5746,0.588,0.614,0.614,0.601,0.601,0.6144,0.6152,0.6033,0.6048,0.6253,0.6413,-3.1527,-3.1273,-3.0846,-2.9586,-2.7716,-2.7444,-2.6178,-2.4527,-2.4259,-2.3954,-2.3762,-2.3378,-2.2973,-2.2585,-2.2213,-2.2098,-2.1706,-2.0818,-2.062,-2.0437,-2.0138,-1.9838,-1.9838,-1.9737,-1.9537,-1.9522,-1.9306,-1.9019,-1.8817,-1.9105,-1.8688,-1.8385,-1.85,-1.8486,-1.8399,-1.8297,-1.8108,-1.7905,-1.7701,-1.7511,-1.7319,-1.7114,-1.7114,-1.7114,-1.7114,-1.7114,-1.6922,-1.6472,-1.6054,-1.5207,-1.3789,-1.3088,-1.2455,-1.1147,-0.9699,-0.8823,-0.875,-0.8597,-0.859,-0.8967,-0.9091,-0.9001,-0.8727,-0.8462,-0.8183,-0.7994,-0.7878,-0.7719,-0.7291,-0.6867,-0.6945,-0.6438,-0.5775,-0.5013,-0.4254,-0.3382,-0.263,-0.1658,-0.0835,0.0365,0.1003,0.1541,0.1796,0.1918,0.2199,0.2613,0.3137,0.3396,0.3127,0.3135,0.3137,0.3137,0.3007,0.3137,0.3137,0.3527,0.3785,0.4049,0.4184,0.4445,0.4576,0.4834,0.4964,0.5352,0.5616,0.5876,0.588,0.5749,0.5499,0.5255,0.5261,0.5676,0.6143,0.6358,0.656,-3.1103,-3.1017,-3.0242,-2.8991,-2.7444,-2.6967,-2.5694,-2.3972,-2.3858,-2.3684,-2.3378,-2.2894,-2.2196,-2.151,-2.1313,-2.0917,-2.0437,-1.9392,-1.9306,-1.9321,-1.912,-1.8918,-1.8918,-1.8918,-1.8817,-1.8587,-1.8486,-1.8385,-1.8284,-1.7878,-1.7573,-1.7165,-1.7356,-1.7878,-1.7993,-1.7586,-1.7178,-1.7293,-1.7088,-1.6896,-1.7114,-1.7127,-1.7012,-1.6909,-1.6947,-1.6973,-1.6767,-1.5849,-1.5188,-1.453,-1.3459,-1.2822,-1.1359,-1.0512,-1.0007,-0.9269,-0.8995,-0.9109,-0.9261,-0.9612,-0.9747,-0.9587,-0.9302,-0.9027,-0.8777,-0.8575,-0.8338,-0.8259,-0.7808,-0.7479,-0.7255,-0.6894,-0.6386,-0.582,-0.5516,-0.4735,-0.3959,-0.2943,-0.1725,-0.0376,0.0382,0.0905,0.1167,0.1035,0.1304,0.1698,0.2221,0.2483,0.2352,0.2613,0.2483,0.2483,0.2352,0.2352,0.2352,0.2613,0.3003,0.3266,0.3399,0.366,0.3923,0.4184,0.4315,0.4573,0.4964,0.5485,0.5753,0.5195,0.484,0.4397,0.453,0.5121,0.5592,0.6059,0.6274,-3.0823,-3.0242,-2.9102,-2.8034,-2.6946,-2.6026,-2.4943,-2.3858,-2.3281,-2.2991,-2.2797,-2.2408,-2.2017,-2.1624,-2.0688,-1.9992,-1.9777,-1.827,-1.7878,-1.7878,-1.7993,-1.7993,-1.8007,-1.7891,-1.7763,-1.7749,-1.7573,-1.6947,-1.6435,-1.6242,-1.6344,-1.6575,-1.6126,-1.6435,-1.7062,-1.655,-1.6139,-1.6472,-1.6254,-1.6357,-1.6793,-1.6909,-1.6485,-1.609,-1.5979,-1.5787,-1.4838,-1.4614,-1.4479,-1.3879,-1.2974,-1.1895,-1.0468,-1.0187,-0.9866,-0.9591,-0.9324,-0.9623,-0.9923,-1.0192,-1.0291,-1.0203,-1.0146,-0.9771,-0.9384,-0.8996,-0.8737,-0.8743,-0.8219,-0.8094,-0.8099,-0.797,-0.7269,-0.6851,-0.6568,-0.6171,-0.5381,-0.4076,-0.2811,-0.1798,-0.1032,-0.0261,0.0131,-0.0,0.0261,0.0784,0.1176,0.1437,0.1698,0.2221,0.2221,0.2221,0.2221,0.2221,0.2221,0.2221,0.2221,0.2483,0.2483,0.2613,0.2874,0.3137,0.3529,0.3923,0.4184,0.4471,0.4669,0.4498,0.4305,0.4028,0.403,0.4593,0.5164,0.5609,0.5961,-2.9651,-2.9235,-2.7965,-2.6946,-2.6139,-2.5339,-2.4508,-2.3666,-2.3088,-2.2683,-2.2585,-2.2017,-2.1624,-2.1214,-1.9892,-1.8976,-1.8357,-1.6947,-1.6332,-1.6537,-1.646,-1.6563,-1.6768,-1.6653,-1.6525,-1.6525,-1.6332,-1.5611,-1.469,-1.4597,-1.5013,-1.522,-1.5001,-1.5416,-1.6151,-1.5197,-1.5301,-1.5519,-1.5508,-1.5312,-1.5543,-1.567,-1.5441,-1.4885,-1.5043,-1.4483,-1.3757,-1.3727,-1.3648,-1.2765,-1.2088,-1.1307,-1.0941,-1.0258,-0.9922,-0.9909,-0.981,-0.9948,-1.0452,-1.0525,-1.0403,-1.0281,-1.0152,-1.0152,-0.9636,-0.9255,-0.8866,-0.8743,-0.8483,-0.8359,-0.8364,-0.8364,-0.7964,-0.7565,-0.7149,-0.6618,-0.5976,-0.4825,-0.4044,-0.3262,-0.2481,-0.1828,-0.1306,-0.1306,-0.1045,-0.0522,-0.0,0.0261,0.0653,0.1306,0.1567,0.1828,0.2091,0.2091,0.2091,0.2091,0.2221,0.2221,0.2221,0.2221,0.2221,0.2354,0.2874,0.3268,0.3455,0.3504,0.3403,0.3338,0.3426,0.3457,0.3481,0.379,0.4244,0.4834,0.526,-2.8102,-2.8012,-2.6804,-2.5806,-2.5226,-2.4603,-2.405,-2.3378,-2.2797,-2.2603,-2.2408,-2.1526,-2.1131,-2.0719,-1.9206,-1.7878,-1.6742,-1.5623,-1.5001,-1.5094,-1.4909,-1.5013,-1.5209,-1.5209,-1.5197,-1.5301,-1.5197,-1.396,-1.3037,-1.396,-1.4377,-1.3866,-1.4075,-1.4597,-1.4805,-1.396,-1.4552,-1.4875,-1.4366,-1.3855,-1.3761,-1.3981,-1.396,-1.3866,-1.3951,-1.3537,-1.2628,-1.2594,-1.2544,-1.1594,-1.1202,-1.1026,-1.1145,-1.0707,-1.0452,-1.0245,-1.0133,-1.0054,-1.0271,-1.0318,-1.0324,-1.0146,-1.0023,-0.9765,-0.9636,-0.9255,-0.8996,-0.8489,-0.8364,-0.8364,-0.8364,-0.8364,-0.8099,-0.7835,-0.77,-0.7181,-0.6791,-0.6002,-0.5218,-0.4567,-0.3916,-0.3133,-0.2744,-0.2613,-0.2352,-0.1698,-0.1176,-0.1045,-0.0653,-0.0,0.0522,0.1306,0.1698,0.196,0.2091,0.2091,0.2221,0.2091,0.2221,0.2221,0.2231,0.224,0.2497,0.2791,0.3007,0.3058,0.2959,0.2725,0.2488,0.2662,0.2818,0.3151,0.3496,0.38,0.4225,-2.7716,-2.7555,-2.5826,-2.4925,-2.4622,-2.3666,-2.307,-2.27,-2.1919,-2.151,-2.1411,-2.0834,-2.0651,-2.0237,-1.9306,-1.7763,-1.5908,-1.4158,-1.3646,-1.3646,-1.3772,-1.3981,-1.4075,-1.4075,-1.4086,-1.4075,-1.4075,-1.3237,-1.2202,-1.25,-1.2606,-1.2615,-1.1972,-1.2395,-1.3237,-1.2395,-1.2078,-1.2385,-1.2491,-1.2491,-1.2701,-1.3237,-1.3403,-1.2605,-1.2728,-1.2507,-1.1772,-1.1875,-1.1713,-1.1414,-1.0977,-1.0627,-1.0558,-1.0092,-0.9737,-0.9731,-0.9685,-0.9803,-0.9988,-1.0074,-1.0192,-1.0222,-1.0403,-1.0152,-0.9894,-0.9642,-0.9378,-0.8866,-0.8613,-0.8364,-0.8364,-0.8364,-0.8229,-0.8099,-0.8099,-0.8099,-0.7705,-0.7051,-0.6262,-0.5742,-0.5218,-0.47,-0.4315,-0.4054,-0.3396,-0.2742,-0.2221,-0.2091,-0.1828,-0.1176,-0.0261,0.0653,0.1306,0.1698,0.2091,0.2091,0.2091,0.2093,0.2096,0.21,0.2112,0.2133,0.2271,0.255,0.2634,0.2736,0.2631,0.2376,0.2393,0.2407,0.2422,0.2735,0.3196,0.3506,0.366,-2.6712,-2.6528,-2.4792,-2.3972,-2.3684,-2.2991,-2.2603,-2.2293,-2.1526,-2.1214,-2.1032,-2.0636,-2.0452,-2.0038,-1.889,-1.6717,-1.4667,-1.3027,-1.2615,-1.2615,-1.2845,-1.2941,-1.2941,-1.2941,-1.2941,-1.2941,-1.2941,-1.2519,-1.1893,-1.1778,-1.1875,-1.177,-1.1345,-1.1345,-1.1778,-1.1035,-1.1133,-1.1646,-1.1549,-1.1443,-1.2069,-1.1866,-1.2002,-1.1587,-1.1709,-1.1672,-1.1374,-1.1507,-1.1555,-1.1195,-1.0732,-1.0323,-0.9907,-0.9504,-0.9263,-0.9493,-0.9441,-0.9474,-0.9718,-0.9922,-1.0014,-1.0199,-1.035,-1.0403,-1.0159,-1.003,-0.9648,-0.9131,-0.8743,-0.8364,-0.8359,-0.8364,-0.8364,-0.8364,-0.8364,-0.8364,-0.8229,-0.77,-0.7181,-0.6786,-0.6262,-0.5876,-0.5623,-0.484,-0.4312,-0.3921,-0.3399,-0.3137,-0.2874,-0.2091,-0.1306,-0.0392,0.0522,0.1176,0.1959,0.2091,0.2091,0.21,0.2107,0.2113,0.2131,0.2184,0.2333,0.235,0.2426,0.2527,0.2407,0.2407,0.2576,0.2594,0.2592,0.259,0.2898,0.3205,0.3205,-2.5694,-2.5507,-2.4032,-2.3184,-2.2797,-2.2505,-2.2213,-2.1804,-2.123,-2.1032,-2.1032,-2.0651,-2.0253,-1.9537,-1.7878,-1.5714,-1.3855,-1.2615,-1.2105,-1.2105,-1.2211,-1.2221,-1.2211,-1.2317,-1.2115,-1.2009,-1.2,-1.2,-1.1787,-1.1778,-1.1566,-1.1451,-1.1133,-1.0814,-1.0929,-1.0609,-1.0822,-1.1337,-1.0929,-1.0929,-1.1239,-1.1043,-1.0722,-1.0915,-1.0955,-1.1005,-1.1023,-1.124,-1.1396,-1.0917,-1.0453,-1.004,-0.9613,-0.9167,-0.9057,-0.919,-0.9151,-0.9177,-0.9441,-0.9678,-0.9688,-0.9962,-1.0153,-1.0311,-1.0216,-0.9998,-0.9771,-0.926,-0.8878,-0.8494,-0.8483,-0.8359,-0.8359,-0.8364,-0.8364,-0.8364,-0.8229,-0.7964,-0.757,-0.744,-0.7306,-0.6916,-0.601,-0.5228,-0.4576,-0.4184,-0.3923,-0.3662,-0.3529,-0.3007,-0.2227,-0.1311,-0.0393,0.0656,0.1704,0.1839,0.2107,0.212,0.2146,0.2289,0.2227,0.2259,0.2437,0.2482,0.2549,0.2582,0.2585,0.2589,0.2597,0.2597,0.2597,0.2597,0.2749,0.2901,0.2901,-2.5694,-2.5507,-2.363,-2.2797,-2.2603,-2.1821,-2.1427,-2.123,-2.0735,-2.0536,-2.0437,-2.0452,-1.9737,-1.8601,-1.7471,-1.592,-1.4064,-1.2836,-1.2,-1.2,-1.2,-1.2,-1.2,-1.2009,-1.1903,-1.1478,-1.1478,-1.1469,-1.1469,-1.1363,-1.1248,-1.1027,-1.092,-1.0716,-1.051,-1.0305,-1.051,-1.0716,-1.051,-1.051,-1.0617,-1.0518,-1.0328,-1.0422,-1.053,-1.0484,-1.0531,-1.0437,-1.0391,-1.0352,-0.9801,-0.9512,-0.9426,-0.9212,-0.9087,-0.8788,-0.8828,-0.892,-0.9151,-0.9269,-0.9408,-0.9625,-0.9882,-0.9903,-0.9869,-0.9865,-0.971,-0.9495,-0.9143,-0.9013,-0.8872,-0.8613,-0.8359,-0.8364,-0.8364,-0.8364,-0.8364,-0.8359,-0.8099,-0.8099,-0.77,-0.7181,-0.627,-0.5619,-0.497,-0.4448,-0.4318,-0.4184,-0.4184,-0.3797,-0.3169,-0.2251,-0.1463,-0.0533,0.08,0.1335,0.1872,0.2026,0.2341,0.2271,0.2366,0.2361,0.2353,0.2573,0.2597,0.2594,0.2594,0.2597,0.2597,0.2597,0.2597,0.2597,0.2597,0.2597,0.2597,-2.5226,-2.4471,-2.3263,-2.2391,-2.1919,-2.1411,-2.1032,-2.0751,-2.0552,-2.0452,-2.0353,-2.0253,-1.9422,-1.8196,-1.6947,-1.5611,-1.4064,-1.273,-1.2,-1.2,-1.2,-1.2,-1.1893,-1.1893,-1.1893,-1.1566,-1.1478,-1.1363,-1.1256,-1.115,-1.1069,-1.092,-1.0609,-1.0534,-1.0305,-1.0305,-1.0305,-1.0305,-1.0305,-1.0305,-1.0305,-1.0305,-1.0305,-1.0305,-1.0305,-1.0305,-1.0305,-1.019,-1.019,-1.0091,-0.9448,-0.9105,-0.9419,-0.9105,-0.8891,-0.8783,-0.8676,-0.8762,-0.8887,-0.9025,-0.917,-0.9322,-0.9592,-0.9669,-0.9741,-0.9792,-0.9814,-0.9716,-0.9396,-0.9143,-0.8743,-0.8483,-0.8359,-0.8364,-0.8364,-0.8364,-0.8364,-0.8364,-0.8364,-0.8229,-0.8099,-0.7315,-0.6661,-0.614,-0.5496,-0.4742,-0.4611,-0.4552,-0.4547,-0.4446,-0.3785,-0.3112,-0.2306,-0.1359,-0.0,0.0819,0.1508,0.1817,0.2134,0.2354,0.2426,0.2419,0.2409,0.2425,0.2597,0.2597,0.2597,0.2597,0.2597,0.2597,0.2597,0.2597,0.2597,0.2597,0.2597,-2.4849,-2.3918,-2.278,-2.1919,-2.123,-2.1016,-2.0735,-2.0452,-2.0452,-2.0353,-2.0253,-1.9838,-1.8918,-1.7573,-1.6114,-1.4771,-1.3552,-1.2634,-1.2,-1.2,-1.2,-1.1921,-1.1805,-1.1939,-1.1867,-1.1647,-1.1613,-1.1512,-1.132,-1.1143,-1.0919,-1.087,-1.0662,-1.0383,-1.032,-1.0305,-1.0305,-1.0305,-1.0305,-1.0305,-1.0305,-1.0305,-1.0305,-1.0305,-1.0305,-1.0305,-1.0198,-1.019,-1.019,-0.9976,-0.9426,-0.9098,-0.9198,-0.8998,-0.8891,-0.8783,-0.8676,-0.8676,-0.8715,-0.888,-0.9025,-0.9045,-0.9296,-0.9586,-0.9836,-0.9863,-0.9923,-0.9934,-0.9642,-0.9255,-0.8743,-0.8489,-0.8364,-0.8364,-0.8364,-0.8364,-0.8364,-0.8364,-0.8364,-0.8364,-0.8229,-0.784,-0.6669,-0.6559,-0.6086,-0.5169,-0.4837,-0.479,-0.4839,-0.488,-0.4326,-0.3622,-0.2937,-0.2246,-0.0986,-0.0,0.0719,0.1319,0.2065,0.2409,0.2431,0.2585,0.2429,0.2587,0.2597,0.2597,0.2597,0.2597,0.2597,0.2597,0.2597,0.2597,0.2597,0.2597,0.2597,-2.4811,-2.4623,-2.2276,-2.1329,-2.1131,-2.0735,-2.0452,-2.0452,-2.0353,-2.0253,-1.9953,-1.8933,-1.7674,-1.5908,-1.5094,-1.3646,-1.2317,-1.2221,-1.2,-1.2,-1.2027,-1.2119,-1.1921,-1.2084,-1.1888,-1.1652,-1.1435,-1.1511,-1.1455,-1.138,-1.126,-1.1037,-1.0854,-1.0711,-1.0469,-1.0344,-1.0312,-1.0344,-1.0328,-1.0305,-1.0305,-1.0305,-1.0305,-1.0305,-1.0305,-1.019,-0.9969,-0.9747,-0.9747,-0.9969,-0.964,-0.9205,-0.8884,-0.8998,-0.8897,-0.8783,-0.8676,-0.8676,-0.8797,-0.8823,-0.8742,-0.8897,-0.9019,-0.9289,-0.9553,-0.9744,-0.9962,-1.0203,-1.0017,-0.9642,-0.9131,-0.8618,-0.8489,-0.8364,-0.8364,-0.8364,-0.8364,-0.8364,-0.8364,-0.8364,-0.8364,-0.8104,-0.7497,-0.7326,-0.7179,-0.596,-0.6091,-0.5895,-0.5803,-0.5728,-0.518,-0.4459,-0.3754,-0.3043,-0.1899,-0.0885,-0.015,0.1058,0.1659,0.2115,0.2287,0.2597,0.2597,0.2597,0.2597,0.2597,0.2597,0.2597,0.2597,0.2597,0.2597,0.2597,0.2597,0.2597,0.2613,-2.4054,-2.2665,-2.1608,-2.1032,-2.0735,-2.0437,-2.0452,-2.0337,-2.0268,-2.0168,-1.9737,-1.85,-1.7049,-1.5702,-1.4481,-1.3257,-1.2105,-1.2,-1.2009,-1.2009,-1.2027,-1.2263,-1.2592,-1.248,-1.2328,-1.2032,-1.1781,-1.1571,-1.1461,-1.1446,-1.1375,-1.124,-1.1217,-1.1154,-1.0964,-1.083,-1.0594,-1.0664,-1.0391,-1.0305,-1.0305,-1.0305,-1.0305,-1.0305,-1.0305,-1.0305,-1.0083,-0.9747,-0.9419,-0.9205,-0.9098,-0.8991,-0.8783,-0.8891,-0.8891,-0.8783,-0.8676,-0.8676,-0.8676,-0.8676,-0.8676,-0.881,-0.887,-0.9006,-0.9282,-0.954,-0.9803,-1.0153,-1.0069,-0.9753,-0.939,-0.9002,-0.8613,-0.8359,-0.8364,-0.8364,-0.8364,-0.8364,-0.8364,-0.8364,-0.8364,-0.8099,-0.7594,-0.75,-0.7372,-0.7099,-0.7109,-0.6905,-0.652,-0.6759,-0.638,-0.5808,-0.5084,-0.4025,-0.2994,-0.225,-0.1515,0.0304,0.1215,0.1671,0.1984,0.2597,0.2597,0.2597,0.2597,0.2597,0.2597,0.2597,0.2597,0.2597,0.2597,0.2597,0.2597,0.2597,0.2624,-2.3403,-2.1395,-2.1131,-2.0751,-2.0452,-2.0452,-2.0452,-2.0337,-2.0168,-1.9968,-1.9436,-1.7864,-1.6422,-1.5496,-1.4075,-1.2941,-1.2258,-1.2118,-1.2262,-1.2163,-1.2254,-1.257,-1.2985,-1.2813,-1.258,-1.2339,-1.2139,-1.1946,-1.1714,-1.1769,-1.169,-1.1707,-1.1572,-1.1532,-1.1422,-1.1169,-1.1059,-1.1004,-1.0719,-1.0445,-1.0437,-1.0367,-1.0305,-1.0305,-1.019,-1.019,-1.0305,-0.9747,-0.9205,-0.8783,-0.8676,-0.8676,-0.8783,-0.8783,-0.8783,-0.8676,-0.8676,-0.8676,-0.8676,-0.8676,-0.8676,-0.8676,-0.8803,-0.8943,-0.919,-0.9441,-0.9718,-0.9936,-0.9877,-0.9636,-0.939,-0.9002,-0.8613,-0.8359,-0.8364,-0.8364,-0.8364,-0.8364,-0.8364,-0.8505,-0.8422,-0.8417,-0.8212,-0.8127,-0.7987,-0.7547,-0.7419,-0.7415,-0.6695,-0.6608,-0.6326,-0.593,-0.5788,-0.4876,-0.4115,-0.3656,-0.2438,-0.061,0.0152,0.0457,0.1373,0.2138,0.2445,0.2597,0.2597,0.2597,0.2597,0.2597,0.2597,0.2597,0.2597,0.2597,0.2597,0.2599,0.2624,-2.3096,-2.1967,-2.0933,-2.0437,-2.0452,-2.0452,-2.0452,-2.0353,-2.0153,-1.9752,-1.8904,-1.6947,-1.5726,-1.4909,-1.3317,-1.2304,-1.2091,-1.24,-1.2675,-1.2682,-1.2841,-1.2932,-1.2993,-1.2906,-1.268,-1.2542,-1.2464,-1.2353,-1.2298,-1.2306,-1.2259,-1.2073,-1.2034,-1.1906,-1.158,-1.1446,-1.1414,-1.1367,-1.1059,-1.0869,-1.0838,-1.0484,-1.032,-1.0305,-1.0083,-1.0083,-1.0083,-0.9541,-0.9005,-0.8783,-0.8676,-0.8676,-0.8676,-0.8676,-0.8676,-0.8676,-0.8676,-0.8676,-0.8676,-0.8676,-0.8676,-0.8676,-0.8696,-0.8907,-0.9355,-0.9513,-0.9764,-1.0225,-0.9857,-0.9384,-0.926,-0.8872,-0.8483,-0.8359,-0.8364,-0.8364,-0.8364,-0.838,-0.8516,-0.8667,-0.8798,-0.8752,-0.8942,-0.8982,-0.8791,-0.8335,-0.8328,-0.7844,-0.7131,-0.6825,-0.5943,-0.5642,-0.5791,-0.5183,-0.5335,-0.4723,-0.3506,-0.1982,-0.1524,-0.061,0.0457,0.1526,0.2139,0.2445,0.2597,0.2597,0.2597,0.2597,0.2597,0.2597,0.2597,0.2597,0.2597,0.2597,0.2621,-2.2064,-2.1016,-2.0536,-2.0452,-2.0452,-2.0452,-2.0452,-2.0353,-1.9838,-1.9235,-1.821,-1.6332,-1.5254,-1.446,-1.3117,-1.262,-1.2764,-1.2901,-1.311,-1.3502,-1.3748,-1.3807,-1.3596,-1.3729,-1.3501,-1.3094,-1.2608,-1.248,-1.248,-1.248,-1.2416,-1.2298,-1.2274,-1.2195,-1.2101,-1.1888,-1.1882,-1.1714,-1.1422,-1.1138,-1.0932,-1.0783,-1.0508,-1.0336,-1.0198,-1.0083,-0.9854,-0.9326,-0.9005,-0.8783,-0.8676,-0.8676,-0.8676,-0.8676,-0.8676,-0.8676,-0.8676,-0.8676,-0.8676,-0.8676,-0.8676,-0.8676,-0.8676,-0.8874,-0.921,-0.948,-0.9704,-1.0093,-1.0056,-0.9907,-0.939,-0.9002,-0.8743,-0.8359,-0.8364,-0.8364,-0.8391,-0.8528,-0.8698,-0.8765,-0.8832,-0.9133,-0.9267,-0.928,-0.9259,-0.9272,-0.9224,-0.884,-0.8688,-0.8233,-0.7925,-0.7462,-0.6551,-0.6095,-0.625,-0.549,-0.4422,-0.3812,-0.3047,-0.1675,-0.0152,0.0915,0.1986,0.2139,0.2597,0.2597,0.2597,0.2597,0.2597,0.2597,0.2597,0.2597,0.2597,0.2597,0.2483,-2.1395,-2.0437,-2.0452,-2.0452,-2.0452,-2.0452,-2.0353,-2.0253,-1.9737,-1.883,-1.7737,-1.6175,-1.5181,-1.4355,-1.3327,-1.2928,-1.3219,-1.3603,-1.3711,-1.3966,-1.4113,-1.3968,-1.3723,-1.3859,-1.3613,-1.3119,-1.2608,-1.248,-1.248,-1.248,-1.248,-1.248,-1.2472,-1.248,-1.244,-1.2243,-1.2233,-1.2077,-1.189,-1.1493,-1.1256,-1.1019,-1.0806,-1.0469,-1.0236,-1.0137,-0.9787,-0.9383,-0.9005,-0.8783,-0.8676,-0.8676,-0.8676,-0.8676,-0.8676,-0.8676,-0.8676,-0.8676,-0.8676,-0.8676,-0.8676,-0.8689,-0.8883,-0.9064,-0.9236,-0.9533,-0.9823,-1.0107,-1.0157,-1.003,-0.9519,-0.9255,-0.8996,-0.8608,-0.8489,-0.8364,-0.838,-0.8533,-0.8618,-0.888,-0.9052,-0.9299,-0.9441,-0.9472,-0.9436,-0.9254,-0.9279,-0.9143,-0.8991,-0.8537,-0.8683,-0.8376,-0.7921,-0.701,-0.6554,-0.5642,-0.549,-0.5341,-0.4113,-0.274,-0.0914,0.0458,0.1374,0.1986,0.2292,0.2597,0.2597,0.2597,0.2597,0.2597,0.2597,0.2597,0.2597,0.2625,0.2511,-2.1329,-2.0452,-2.0452,-2.0452,-2.0452,-2.0452,-2.0253,-1.9968,-1.9581,-1.8777,-1.7683,-1.6504,-1.5373,-1.4735,-1.3658,-1.3219,-1.342,-1.4089,-1.4276,-1.3941,-1.3731,-1.3366,-1.3103,-1.2855,-1.2728,-1.248,-1.2472,-1.248,-1.248,-1.248,-1.248,-1.248,-1.248,-1.248,-1.248,-1.2448,-1.2448,-1.2369,-1.2109,-1.2041,-1.1978,-1.1187,-1.0859,-1.0766,-1.0188,-0.9962,-1.0356,-0.9401,-0.8817,-0.8683,-0.8569,-0.8676,-0.8562,-0.8562,-0.8562,-0.8455,-0.8562,-0.8669,-0.8669,-0.8588,-0.8614,-0.8755,-0.8953,-0.9236,-0.952,-0.9662,-1.0047,-1.0298,-1.0139,-0.99,-0.9384,-0.9125,-0.899,-0.8861,-0.8613,-0.8359,-0.8364,-0.8375,-0.8528,-0.9057,-0.9226,-0.9479,-0.9675,-0.9717,-0.941,-0.8987,-0.8835,-0.8679,-0.8229,-0.8229,-0.7769,-0.7466,-0.7466,-0.7314,-0.6706,-0.6098,-0.6562,-0.6565,-0.5025,-0.3348,-0.1523,-0.0305,0.0611,0.2139,0.2597,0.2597,0.2597,0.2597,0.2597,0.2597,0.2597,0.2597,0.2597,0.2609,0.251,-2.0751,-2.0452,-2.0452,-2.0452,-2.0452,-2.0383,-2.0284,-1.9898,-1.895,-1.7963,-1.6781,-1.5796,-1.4943,-1.4264,-1.3962,-1.3851,-1.4135,-1.4113,-1.4122,-1.4003,-1.3621,-1.3239,-1.3103,-1.3111,-1.2864,-1.2472,-1.272,-1.2728,-1.2472,-1.248,-1.248,-1.248,-1.248,-1.248,-1.248,-1.248,-1.248,-1.2336,-1.2234,-1.1922,-1.1583,-1.112,-1.0799,-1.0475,-0.9424,-0.9116,-0.9815,-0.7789,-0.7238,-0.8303,-0.7169,-0.6619,-0.7056,-0.7169,-0.6948,-0.6399,-0.6399,-0.6722,-0.7385,-0.7751,-0.8188,-0.8881,-0.925,-0.954,-0.9797,-0.9915,-1.0113,-1.0337,-1.0416,-1.0152,-0.9765,-0.9384,-0.9119,-0.8861,-0.8613,-0.8364,-0.837,-0.8496,-0.8671,-0.8935,-0.9336,-0.9617,-0.9733,-0.9749,-0.9602,-0.9451,-0.9294,-0.9289,-0.8991,-0.8991,-0.8835,-0.8224,-0.7773,-0.7466,-0.747,-0.6558,-0.6409,-0.6105,-0.4723,-0.335,-0.1828,-0.122,-0.0,0.1833,0.2597,0.2597,0.2597,0.2597,0.2597,0.2597,0.2597,0.2597,0.2597,0.2597,0.2502,-2.0452,-2.0452,-2.0452,-2.0353,-2.0268,-2.0284,-1.9917,-1.9189,-1.8401,-1.7364,-1.6077,-1.5479,-1.481,-1.424,-1.424,-1.4264,-1.4358,-1.4131,-1.3867,-1.3613,-1.3366,-1.3111,-1.2855,-1.2983,-1.2855,-1.2472,-1.2728,-1.2728,-1.248,-1.1952,-1.1695,-1.1688,-1.1303,-1.0925,-1.0918,-1.0789,-1.0789,-1.0782,-1.1039,-1.0948,-1.0648,-1.0771,-1.0188,-0.8989,-0.7936,-0.7294,-0.6953,-0.6075,-0.6073,-0.7424,-0.6089,-0.5323,-0.5543,-0.5868,-0.576,-0.5327,-0.527,-0.5526,-0.6209,-0.6607,-0.7073,-0.7786,-0.8002,-0.8206,-0.8462,-0.9075,-0.9441,-0.9716,-1.0159,-0.9765,-0.8979,-0.8731,-0.8608,-0.8473,-0.8483,-0.8532,-0.8512,-0.8623,-0.8824,-0.9141,-0.9322,-0.9597,-0.9597,-0.9754,-0.9754,-0.9754,-0.9754,-0.9754,-0.9754,-0.9754,-0.9446,-0.8987,-0.8376,-0.7925,-0.8242,-0.6869,-0.6102,-0.5645,-0.4878,-0.3504,-0.2132,-0.122,-0.0,0.1833,0.2445,0.2597,0.2597,0.2597,0.2597,0.2597,0.2597,0.2597,0.2597,0.2597,0.2492,-2.0452,-2.0452,-2.0452,-2.0268,-1.9968,-1.9853,-1.9161,-1.7974,-1.7851,-1.7002,-1.5687,-1.5461,-1.5103,-1.4592,-1.4583,-1.4358,-1.3995,-1.3995,-1.3613,-1.3103,-1.2975,-1.2855,-1.248,-1.248,-1.248,-1.248,-1.248,-1.248,-1.2351,-1.1168,-1.0519,-1.039,-0.9231,-0.8457,-0.8586,-0.8322,-0.7805,-0.8193,-0.8844,-0.9219,-0.9324,-1.012,-0.9111,-0.6709,-0.5969,-0.4691,-0.2873,-0.4069,-0.5087,-0.5137,-0.4931,-0.4705,-0.4159,-0.4599,-0.5025,-0.5017,-0.4934,-0.5029,-0.5161,-0.5299,-0.5512,-0.565,-0.6036,-0.602,-0.6295,-0.7431,-0.8172,-0.8327,-0.9249,-0.8984,-0.7033,-0.7301,-0.757,-0.7565,-0.8214,-0.8607,-0.8739,-0.8687,-0.9014,-0.9474,-0.9493,-0.954,-0.9749,-0.9754,-0.9754,-0.9754,-0.9754,-0.9754,-0.9754,-0.9754,-0.9597,-0.9289,-0.8835,-0.8376,-0.7634,-0.7025,-0.6717,-0.6257,-0.5185,-0.3963,-0.2438,-0.0915,0.0458,0.168,0.2292,0.2597,0.2597,0.2597,0.2597,0.2597,0.2597,0.2597,0.2597,0.2597,0.2475,-2.0452,-2.0452,-2.0452,-1.9722,-1.8716,-1.8385,-1.7686,-1.6733,-1.6154,-1.5721,-1.5461,-1.5068,-1.477,-1.462,-1.463,-1.4376,-1.4003,-1.3757,-1.3366,-1.2975,-1.2728,-1.26,-1.248,-1.248,-1.248,-1.248,-1.248,-1.248,-1.2351,-1.1168,-1.0004,-0.8973,-0.8591,-0.8327,-0.8327,-0.7934,-0.78,-0.78,-0.7551,-0.7556,-0.7546,-0.7493,-0.7103,-0.6238,-0.5175,-0.3816,-0.2227,-0.2579,-0.2776,-0.2693,-0.2806,-0.2689,-0.2572,-0.2689,-0.286,-0.2753,-0.2754,-0.3194,-0.4139,-0.4379,-0.4827,-0.5574,-0.5961,-0.6183,-0.6191,-0.6614,-0.6769,-0.6769,-0.7162,-0.7162,-0.6254,-0.6262,-0.6661,-0.7055,-0.7176,-0.7715,-0.8359,-0.8623,-0.8835,-0.9173,-0.9358,-0.949,-0.969,-0.9717,-0.9722,-0.9743,-0.9754,-0.9754,-0.9754,-0.9754,-0.9294,-0.8229,-0.8376,-0.8376,-0.8073,-0.7322,-0.6717,-0.6105,-0.5185,-0.366,-0.1068,-0.1069,-0.0305,0.1833,0.2292,0.2597,0.2597,0.2597,0.2597,0.2597,0.2597,0.2597,0.2597,0.2597,0.2624,-2.0452,-2.0452,-2.0353,-1.9321,-1.7979,-1.7138,-1.6345,-1.5729,-1.5142,-1.5036,-1.5103,-1.4761,-1.463,-1.463,-1.4367,-1.4131,-1.3749,-1.3375,-1.3111,-1.2728,-1.26,-1.248,-1.248,-1.248,-1.248,-1.248,-1.248,-1.2216,-1.156,-1.0904,-0.936,-0.7426,-0.6518,-0.6254,-0.6128,-0.5861,-0.5601,-0.5601,-0.5605,-0.5475,-0.4955,-0.4692,-0.4561,-0.4431,-0.3783,-0.2965,-0.2264,-0.2007,-0.1858,-0.1806,-0.192,-0.1941,-0.1987,-0.1946,-0.1889,-0.183,-0.1884,-0.2292,-0.2929,-0.3138,-0.3569,-0.42,-0.4524,-0.4561,-0.4561,-0.5082,-0.5082,-0.4695,-0.4561,-0.4561,-0.4564,-0.4958,-0.5352,-0.5753,-0.5612,-0.6294,-0.8364,-0.8762,-0.8929,-0.9149,-0.9229,-0.9342,-0.9384,-0.9455,-0.9648,-0.9701,-0.9754,-0.9754,-0.9754,-0.9754,-0.9294,-0.8683,-0.8688,-0.8991,-0.8688,-0.7474,-0.549,-0.4272,-0.3967,-0.3203,-0.0763,-0.0458,0.0153,0.2139,0.2445,0.2597,0.2597,0.2597,0.2597,0.2597,0.2597,0.2597,0.2597,0.2597,0.2609,-2.0353,-2.0353,-1.9953,-1.8918,-1.7457,-1.6114,-1.5193,-1.4778,-1.4786,-1.469,-1.4491,-1.4565,-1.4583,-1.4493,-1.4122,-1.374,-1.3375,-1.3103,-1.272,-1.2344,-1.2223,-1.2216,-1.2216,-1.2223,-1.2351,-1.248,-1.2216,-1.156,-1.0519,-1.0133,-0.858,-0.5872,-0.3921,-0.3266,-0.3137,-0.2874,-0.2613,-0.2613,-0.3394,-0.3392,-0.2221,-0.2091,-0.2091,-0.2091,-0.2221,-0.2198,-0.215,-0.2015,-0.1991,-0.1942,-0.194,-0.1986,-0.2193,-0.1987,-0.1932,-0.1937,-0.1927,-0.1942,-0.1995,-0.2054,-0.2212,-0.2089,-0.222,-0.2351,-0.2352,-0.3262,-0.3392,-0.2612,-0.2221,-0.2351,-0.2221,-0.3264,-0.3916,-0.4054,-0.3918,-0.5008,-0.8092,-0.8557,-0.864,-0.9159,-0.9201,-0.9163,-0.9159,-0.9293,-0.948,-0.9669,-0.9798,-0.9696,-0.9743,-0.9759,-0.9451,-0.9143,-0.9153,-0.8854,-0.7782,-0.4878,-0.2896,-0.2443,-0.2443,-0.1679,-0.0305,0.0611,0.1069,0.2139,0.2597,0.2597,0.2597,0.2597,0.2597,0.2597,0.2597,0.2597,0.2597,0.2597,0.275,-2.0253,-2.0053,-1.9034,-1.8182,-1.7342,-1.5209,-1.3861,-1.3177,-1.3516,-1.3822,-1.4129,-1.4166,-1.4093,-1.4113,-1.4003,-1.3621,-1.3103,-1.3103,-1.2192,-1.1039,-1.0911,-1.0911,-1.0911,-1.0911,-1.1431,-1.2216,-1.1053,-1.0281,-0.9759,-0.7551,-0.5998,-0.5352,-0.3921,-0.3137,-0.3137,-0.2744,-0.2613,-0.2613,-0.2613,-0.2352,-0.2221,-0.2091,-0.2091,-0.2091,-0.2091,-0.2084,-0.2074,-0.2072,-0.2066,-0.2054,-0.2052,-0.2064,-0.2086,-0.2026,-0.2009,-0.2039,-0.197,-0.1927,-0.1942,-0.1995,-0.2046,-0.2087,-0.2091,-0.2091,-0.2221,-0.2483,-0.2352,-0.2221,-0.2089,-0.2091,-0.2221,-0.2481,-0.2613,-0.262,-0.3139,-0.4727,-0.7671,-0.6469,-0.5991,-0.8625,-0.9201,-0.9114,-0.909,-0.922,-0.9181,-0.9436,-0.9692,-0.9723,-0.9738,-0.9775,-0.8541,-0.6851,-0.5933,-0.5171,-0.2592,-0.0,-0.0,-0.0611,-0.1527,-0.0916,0.0764,0.1069,0.1222,0.2139,0.2597,0.2597,0.2597,0.2597,0.2597,0.2597,0.2597,0.2597,0.2597,0.2597,0.2901,-1.9321,-1.9019,-1.7674,-1.6627,-1.5908,-1.4481,-1.3391,-1.2702,-1.2828,-1.3162,-1.3364,-1.3566,-1.3626,-1.3729,-1.3488,-1.3323,-1.3103,-1.2847,-1.1944,-1.0519,-1.0519,-1.0519,-1.0519,-1.0397,-1.0661,-1.1182,-1.0139,-0.8979,-0.7685,-0.6132,-0.4828,-0.4049,-0.3266,-0.2744,-0.2613,-0.2483,-0.2352,-0.2352,-0.2221,-0.2091,-0.2091,-0.2091,-0.2091,-0.2091,-0.2091,-0.2091,-0.2091,-0.2091,-0.2091,-0.2091,-0.2091,-0.2091,-0.2089,-0.2039,-0.2011,-0.2011,-0.1954,-0.192,-0.192,-0.195,-0.1982,-0.201,-0.2038,-0.1787,-0.1257,-0.1781,-0.2054,-0.2054,-0.2078,-0.2091,-0.2093,-0.2093,-0.2095,-0.2096,-0.1965,-0.2618,-0.4192,-0.4974,-0.6715,-0.8294,-0.7633,-0.6859,-0.6824,-0.7078,-0.7344,-0.7466,-0.7547,-0.7436,-0.746,-0.6236,-0.4585,-0.0,-0.0,-0.0,-0.0,-0.0,-0.0,-0.0,-0.0,0.0611,0.1833,0.2139,0.1833,0.2445,0.2597,0.2597,0.2597,0.2597,0.2597,0.2597,0.2597,0.2597,0.2597,0.2597,0.3054,-1.7979,-1.7776,-1.6217,-1.499,-1.4169,-1.3667,-1.3245,-1.25,-1.25,-1.2647,-1.2609,-1.2955,-1.322,-1.3235,-1.2966,-1.2803,-1.2893,-1.252,-1.1651,-1.0255,-1.0261,-1.0126,-1.0126,-0.963,-0.9501,-0.9753,-0.8973,-0.7421,-0.5352,-0.4961,-0.4049,-0.2613,-0.2483,-0.2352,-0.2221,-0.2091,-0.2091,-0.2091,-0.2091,-0.2091,-0.2091,-0.2091,-0.2091,-0.2091,-0.2091,-0.2091,-0.2091,-0.2091,-0.2091,-0.2089,-0.1953,-0.1821,-0.1565,-0.1643,-0.1714,-0.1903,-0.1778,-0.1541,-0.1421,-0.1427,-0.155,-0.1672,-0.1841,-0.1356,-0.012,-0.0856,-0.1495,-0.163,-0.1789,-0.1948,-0.2084,-0.2083,-0.1955,-0.1702,-0.0787,-0.0,-0.0,-0.4062,-0.6698,-0.6703,-0.497,-0.3529,-0.3543,-0.3936,-0.4103,-0.419,-0.4177,-0.4129,-0.3743,-0.1712,-0.0,-0.0,-0.0,-0.0,-0.0,-0.0,-0.0,0.0305,0.1522,0.227,0.2559,0.2425,0.2445,0.2597,0.2597,0.2597,0.2597,0.2597,0.2597,0.2597,0.2597,0.2597,0.2597,0.2749,0.3357,-1.641,-1.6114,-1.499,-1.4273,-1.3772,-1.2836,-1.2258,-1.2109,0.0,0.0,0.0,-1.2664,-1.2691,-1.2604,-1.2604,-1.2443,-1.2277,-1.2169,-1.0927,-0.8715,-0.872,-0.8586,-0.8193,-0.7037,-0.7556,-0.9231,-0.6769,-0.5215,-0.4697,-0.3396,-0.2483,-0.2221,-0.2221,-0.2221,-0.2091,-0.2091,-0.2091,-0.2091,-0.2091,-0.2091,-0.2091,-0.2091,-0.2091,-0.2091,-0.2091,-0.2091,-0.2091,-0.2091,-0.2091,-0.2089,-0.1149,-0.0,0.1301,0.0243,-0.0804,-0.167,-0.0887,0.0111,0.0996,0.1134,0.0691,-0.0,-0.1308,-0.0959,0.1288,0.1057,0.0598,-0.037,-0.0497,-0.1002,-0.1896,-0.1645,-0.1277,-0.0523,-0.0131,-0.0,-0.0,-0.1048,-0.0,-0.1441,-0.0,-0.0,-0.0,-0.0,-0.092,-0.0,-0.0,-0.0846,-0.0833,-0.0,-0.0,-0.0,-0.0,0.0293,0.0602,0.0448,0.0594,0.1664,0.2248,0.2502,0.2619,0.2527,0.2589,0.2594,0.2597,0.2593,0.2594,0.2593,0.2597,0.2597,0.2597,0.2597,0.2597,0.3511,0.4576,-1.5082,0.0,-1.3656,-1.3037,0.0,-1.2317,-1.2,-1.2,-1.2,-1.2118,-1.2291,-1.2291,-1.2288,-1.2093,-1.2093,-1.2066,-1.181,-1.169,-1.0437,-0.7984,-0.7984,-0.7542,-0.6885,-0.6131,-0.6303,-0.7158,-0.5471,-0.4176,-0.3396,-0.2483,-0.2091,-0.2091,-0.2091,-0.2091,-0.2091,-0.2091,-0.2091,-0.2091,-0.2091,-0.2091,-0.2091,-0.2091,-0.2091,-0.2091,-0.2091,0.0,0.0,0.0,0.0,0.0,0.0,0.0,0.0,0.0,0.0,-0.1636,-0.0317,0.0827,0.1447,0.1468,0.1272,0.0637,0.0109,0.0219,0.1255,0.142,0.1255,0.0828,0.073,0.0616,0.0491,0.0613,0.1233,0.2504,0.2636,0.1882,-0.0,-0.0,-0.0,-0.0,-0.0,-0.0,-0.0,-0.0,-0.0,-0.0,-0.0,-0.0,-0.0,-0.0,-0.0,-0.0,0.0548,0.0973,0.0706,0.0852,0.1591,0.2048,0.2039,0.2013,0.2414,0.2461,0.2377,0.2429,0.2393,0.2366,0.2389,0.2398,0.2409,0.2435,0.2597,0.2903,0.4434,0.549,0.6392,-1.3751,-1.3646,-1.2519,-1.2,-1.2,-1.2,-1.2,-1.2,-1.2,-1.2,-1.2,-1.2,-1.1966,-1.1802,-1.17,-1.1576,-1.1335,-1.111,-0.9728,-0.7646,-0.7289,-0.6783,-0.5825,-0.5338,-0.503,-0.5007,-0.4369,-0.3471,-0.2058,-0.2058,-0.2058,-0.2059,-0.2059,-0.2064,-0.2074,0.0,0.0,0.0,-0.207,-0.208,-0.2091,-0.2091,-0.196,-0.1698,-0.1959,0.0,-0.1167,-0.1397,-0.1376,-0.1116,-0.0121,0.0,0.0,0.0,0.0,0.0,0.0,0.0,0.0,0.0,0.0,0.0,0.1762,0.1957,0.1662,0.1921,0.2061,0.2008,0.1991,0.2161,0.2731,0.2847,0.3454,0.5044,0.5055,0.3843,0.1079,-0.0,0.1089,0.1241,-0.0,-0.0,-0.0,-0.0,-0.0,-0.0,-0.0,-0.0,-0.0,-0.0,-0.0,0.0393,0.1316,0.1576,0.0393,0.1224,0.1811,0.2238,0.1682,0.1403,0.2096,0.239,0.2308,0.2381,0.2332,0.2287,0.2329,0.2339,0.2499,0.2849,0.2871,0.3646,0.6105,0.7286,0.8148,-1.2327,-1.2317,-1.2115,-1.2,-1.2,-1.2,-1.2,-1.2,-1.2,-1.2,-1.2,-1.2,-1.1823,-1.1333,-1.1333,-1.1202,-1.0852,-0.9942,-0.8714,-0.7527,-0.6457,-0.5754,-0.5051,-0.3859,-0.3628,-0.4122,-0.2911,-0.2184,-0.1942,-0.1942,-0.1944,-0.1942,-0.1942,-0.1968,-0.2015,-0.1969,-0.1942,-0.1944,-0.1994,-0.2043,-0.2089,-0.2091,-0.1567,-0.0392,-0.1437,-0.0646,0.227,0.0878,0.0866,0.253,0.2804,0.3618,0.513,0.3706,0.3081,0.0,0.2866,0.0,0.0,0.0,0.0,0.0,0.0,0.0,0.0,0.4265,0.4212,0.3197,0.323,0.3129,0.2867,0.3219,0.3956,0.502,0.4319,0.3595,0.3114,0.3963,0.4938,0.6039,0.2533,-0.0,-0.0,-0.0,-0.0,-0.0,-0.0,-0.0,-0.0,-0.0,0.0917,0.1705,0.2099,0.1704,0.0919,0.0528,0.0797,0.1729,0.1081,0.068,0.2135,0.2474,0.241,0.2284,0.2272,0.2266,0.2275,0.2279,0.2709,0.3721,0.4365,0.5039,0.6473,0.7906,0.9128,-1.2,-1.2,-1.2,-1.2,-1.2,-1.2,-1.2,-1.2,-1.2,-1.2,-1.2,-1.1893,-1.1566,-1.1141,-1.1035,-1.0921,-1.0516,-0.9408,-0.8263,-0.7255,-0.6014,-0.5047,-0.4086,-0.3392,-0.3189,-0.3239,-0.2641,-0.2161,-0.192,-0.192,-0.192,-0.192,-0.192,-0.1917,-0.1791,-0.1884,-0.1888,-0.192,-0.198,-0.1654,-0.1044,-0.0914,-0.0261,0.1045,0.103,0.1395,0.2254,0.1091,0.1301,0.3151,0.3394,0.3977,0.5118,0.4225,0.379,0.0,0.0,0.0,0.0,0.0,0.0,0.0,0.0,0.0,0.0,0.0,0.4458,0.3909,0.4225,0.4348,0.4112,0.4223,0.4575,0.4975,0.4541,0.4238,0.4427,0.5128,0.5524,0.5061,0.4344,0.3922,0.3846,0.2743,0.1884,0.1915,0.1915,0.2052,0.2343,0.3664,0.4852,0.5379,0.2883,0.0787,0.0524,0.0131,0.0262,0.0787,0.1059,0.1463,0.2104,0.2275,0.2173,0.1765,0.1901,0.2182,0.2211,0.2771,0.3582,0.438,0.5674,0.7366,0.8697,0.9677,1.0464,-1.2,-1.2,-1.2004,-1.1959,-1.1959,-1.1968,-1.1918,-1.2,-1.2,-1.2,-1.1875,-1.1573,-1.1078,-1.0767,-1.0358,-0.9961,-0.9637,-0.8432,-0.7424,-0.6507,-0.5323,-0.4304,-0.3284,-0.3173,-0.2871,-0.2464,-0.235,-0.2232,-0.1879,-0.1879,-0.1879,-0.1879,-0.1866,-0.1836,-0.1681,-0.1679,-0.1821,-0.1879,-0.1937,-0.1246,-0.0,0.0258,0.1034,0.2457,0.3523,0.3584,0.2696,0.1874,0.2275,0.3725,0.38,0.4282,0.5215,0.4449,0.0,0.0,0.0,0.0,0.0,0.0,0.0,0.0,0.0,0.385,0.3502,0.0,0.4456,0.0,0.5004,0.5286,0.5149,0.52,0.0,0.0,0.4929,0.506,0.5299,0.5642,0.5402,0.4269,0.5733,0.6655,0.6205,0.4665,0.3687,0.4307,0.4468,0.4534,0.4889,0.6907,0.814,0.6951,0.3664,0.1046,0.1047,0.0916,0.1047,0.0786,0.2213,0.3122,0.262,0.2099,0.1442,0.0918,0.1571,0.2241,0.2149,0.3365,0.4389,0.4911,0.7019,0.9184,1.0303,1.0789,1.1069,-1.2,-1.2078,-1.1692,-1.1536,-1.1536,-1.1536,-1.1756,-1.2,-1.177,-1.1664,-1.161,-1.0802,-1.039,-1.0276,-0.8891,0.0,-0.769,-0.6033,-0.5379,-0.5315,-0.4249,-0.3498,-0.3069,-0.2738,-0.2414,-0.2201,-0.1978,-0.1758,-0.176,-0.176,-0.1758,-0.1757,-0.181,-0.1781,-0.1775,-0.1671,-0.1806,-0.176,-0.1818,-0.117,0.012,0.1114,0.2261,0.3772,0.5016,0.547,0.5195,0.4933,0.4967,0.5032,0.472,0.4788,0.5175,0.0,0.0,0.0,0.0,0.0,0.0,0.0,0.0,0.0,0.0,0.0,0.0,0.0,0.0,0.0,0.5283,0.0,0.5211,0.5274,0.0,0.0,0.0,0.5225,0.5538,0.5341,0.5296,0.5756,0.0,0.0,0.3942,0.3592,0.4264,0.6473,0.7034,0.7273,0.7292,0.7854,0.7459,0.5091,0.4044,0.3783,0.3785,0.3776,0.3646,0.3396,0.5126,0.5734,0.4174,0.2096,0.0393,0.0393,0.1698,0.2869,0.222,0.3781,0.5132,0.6301,0.7839,0.9105,0.9307,0.9951,1.0489,-1.1536,-1.0645,-1.0471,-1.0406,-1.0397,-1.0215,-1.0305,-1.0356,-1.0254,-0.9966,-0.9576,-0.9384,-0.8957,-0.8391,-0.7832,0.0,0.0,0.0,-0.4828,-0.5007,-0.379,-0.3251,-0.3159,-0.2946,-0.2617,-0.2181,-0.2072,-0.1963,-0.1744,-0.1744,-0.1464,-0.096,0.0,0.0,-0.097,-0.081,-0.1147,-0.1695,-0.1673,-0.1151,0.0117,0.12,0.2925,0.4992,0.5333,0.5448,0.5496,0.5277,0.5099,0.4921,0.4671,0.4361,0.0,0.0,0.0,0.0,0.0,0.0,0.0,0.0,0.0,0.0,0.0,0.3754,0.3479,0.0,0.0,0.0,0.4527,0.4683,0.5006,0.5251,0.0,0.0,0.0,0.0,0.0,0.0,0.0,0.543,0.5821,0.5813,0.5108,0.5346,0.6038,0.7065,0.7355,0.7574,0.7849,0.0,0.7828,0.6773,0.6661,0.6665,0.6652,0.6662,0.65,0.5995,0.6819,0.6477,0.4153,0.2925,0.2646,0.3749,0.3562,0.347,0.4465,0.606,0.7405,0.8028,0.8732,0.9123,0.9343,0.9651,0.9902,-1.0434,0.0,0.0,0.0,0.0,-0.8917,-0.8898,-0.8996,-0.8832,-0.8505,-0.7996,-0.7887,0.0,0.0,0.0,0.0,0.0,0.0,-0.4012,-0.4108,-0.3557,-0.3189,-0.3073,-0.3073,-0.2755,-0.222,-0.2077,-0.1954,-0.1644,-0.1611,-0.1219,-0.0413,0.0,0.0,0.0,0.0,-0.0605,-0.133,-0.1311,-0.068,0.0572,0.1752,0.3543,0.5667,0.539,0.5308,0.5417,0.5307,0.5043,0.4635,0.431,0.0,0.0,0.0,0.0,0.0,0.0,0.0,0.0,0.0,0.0,0.0,0.0,0.0,0.0,0.0,0.0,0.0,0.0,0.0,0.4854,0.4932,0.5229,0.0,0.0,0.0,0.0,0.0,0.0,0.0,0.0,0.0,0.5949,0.6422,0.6848,0.0,0.0,0.7534,0.7751,0.7868,0.7979,0.8137,0.8169,0.0,0.8158,0.8199,0.7952,0.7577,0.7584,0.6885,0.4957,0.4515,0.4989,0.661,0.5313,0.4375,0.5983,0.726,0.8024,0.8284,0.8455,0.8635,0.8912,0.9431,0.9797,0.0,0.0,0.0,0.0,0.0,0.0,0.0,0.0,-0.79,-0.775,0.0,-0.632,0.0,0.0,0.0,0.0,0.0,-0.2883,0.0,0.0,-0.3191,-0.3363,-0.3058,-0.2852,-0.2657,-0.2448,-0.2015,-0.1587,-0.1401,-0.1214,0.0,0.0,0.0,0.0,0.0,0.0,-0.0473,-0.0589,-0.0211,0.0554,0.1823,0.2972,0.4237,0.5386,0.5334,0.5238,0.5226,0.521,0.5016,0.4529,0.3794,0.0,0.0,0.0,0.0,0.0,0.0,0.0,0.0,0.0,0.0,0.0,0.0,0.0,0.0,0.0,0.0,0.0,0.0,0.0,0.0,0.4612,0.0,0.0,0.0,0.0,0.0,0.0,0.0,0.0,0.0,0.0,0.5872,0.5941,0.6263,0.661,0.0,0.0,0.0,0.0,0.7543,0.7558,0.7553,0.7677,0.7672,0.7668,0.7583,0.741,0.0,0.0,0.7246,0.7043,0.6838,0.699,0.6223,0.5876,0.6292,0.6439,0.6401,0.6364,0.6775,0.7163,0.7574,0.8998,1.029,0.0,0.0,0.0,0.0,0.0,0.0,0.0,0.0,0.0,-0.5365,0.0,-0.4668,0.0,0.0,0.0,0.0,0.0,0.0,0.0,0.0,-0.2254,-0.241,-0.2452,-0.2362,-0.219,0.0,-0.1786,-0.1476,0.0,0.0,0.0,0.0,0.0,0.0,0.0,0.0,0.0091,-0.0378,-0.0104,0.0547,0.1768,0.2988,0.4099,0.5211,0.5262,0.5119,0.4893,0.5123,0.479,0.0,0.0,0.0,0.0,0.0,0.0,0.0,0.0,0.0,0.0,0.0,0.0,0.0,0.0,0.0,0.0,0.0,0.0,0.0,0.0,0.0,0.0,0.0,0.5943,0.0,0.0,0.0,0.0,0.0,0.0,0.0,0.0,0.0,0.6085,0.6232,0.6554,0.7359,0.716,0.7283,0.8273,0.0,0.0,0.0,0.0,0.0,0.0,0.0,0.816,0.7229,0.781,0.8007,0.7288,0.6938,0.666,0.6409,0.0,0.0,0.5934,0.5817,0.5895,0.6094,0.6328,0.6932,0.7964,0.8799,0.97,0.0,0.0,0.0,0.0,0.0,0.0,0.0,0.0,0.0,-0.3745,-0.324,0.0,0.0,0.0,0.0,0.0,0.0,0.0,0.0,0.0,0.0,0.0,-0.1982,-0.2063,0.0,0.0,0.0,0.0,0.0,0.0,0.0,0.0,0.0,0.0,0.0,0.0,0.0782,0.0091,0.041,0.0979,0.1738,0.2935,0.4026,0.523,0.523,0.5169,0.4906,0.0,0.0,0.0,0.0,0.0,0.0,0.0,0.0,0.0,0.0,0.0,0.0,0.0,0.0,0.0,0.0,0.0,0.0,0.0,0.0,0.0,0.0,0.0,0.0,0.0,0.6015,0.0,0.0,0.0,0.0,0.0,0.0,0.0,0.0,0.0,0.0,0.0,0.693,0.7858,0.7808,0.81,0.9223,0.8849,0.8677,0.0,0.0,0.0,0.0,0.0,0.0,0.0,0.0,0.0,0.0,0.0,0.0,0.0,0.0,0.6099,0.5654,0.5585,0.5658,0.58,0.0,0.0,0.0,0.0,0.0,0.0,0.0,0.0,0.0,0.0,0.0,0.0,0.0,0.0,0.0,0.0,0.0,0.0,-0.1735,0.0,0.0,0.0,0.0,0.0,0.0,0.0,0.0,0.0,0.0,0.0,0.0,0.0,0.0,0.0,0.0,0.0,0.0,0.0,0.0,0.0,0.0,0.1664,0.087,0.1417,0.1847,0.1847,0.2935,0.4134,0.523,0.5226,0.527,0.5195,0.0,0.0,0.0,0.0,0.0,0.0,0.0,0.0,0.0,0.0,0.0,0.0,0.0,0.0,0.0,0.0,0.0,0.0,0.0,0.0,0.0,0.0,0.0,0.0,0.0,0.0,0.4414,0.502,0.567,0.0,0.0,0.0,0.0,0.0,0.0,0.0,0.0,0.0,0.0,0.9022,0.9757,1.0203,1.0266,1.0273,1.0388,1.0273,1.0266,1.0266,1.0266,1.0151,0.0,0.0,0.0,0.0,0.0,0.0,0.0,0.0,0.0,0.0,0.0,0.0,0.0,0.0,0.0,0.0,0.0,0.0,0.0,0.0,0.0,0.0,0.0,0.0,0.0,0.0,0.0,0.0,0.0,0.0,0.0,0.0,0.0,0.0,0.0,0.0,0.0,0.0,0.0,0.0,0.0,0.0,0.0,0.0,0.0,0.0,0.0,0.0,0.0,0.0,0.0,0.0,0.0,0.0,0.1907,0.1746,0.26,0.2935,0.3043,0.4134,0.4901,0.5226,0.5213,0.5181,0.0,0.0,0.0,0.0,0.0,0.0,0.0,0.0,0.0,0.0,0.0,0.0,0.0,0.0,0.0,0.0,0.0,0.0,0.0,0.0,0.0,0.0,0.0,0.0,0.0,0.0,0.0,0.0,0.7199,0.7199,0.678,0.0,0.0,0.0,0.0,0.0,0.0,0.0,0.0,0.0,0.0,0.9242,1.0845,1.0633,1.0577,1.1425,1.0789,1.0348,1.0277,1.096,1.1108,0.9923,0.0,0.0,0.0,0.0,0.0,0.0,0.0,0.0,0.0,0.0,0.0,0.0,0.0,0.0,0.0,0.0,0.0,0.0,0.0,0.0,0.0,0.0,0.0,0.0,0.0,0.0,0.0,0.0,0.0,0.0,0.0,0.0,0.0,0.0,0.0,0.0,0.0,0.0,0.0,0.0,0.0,0.0,0.0,0.0,0.0,0.0,0.0,0.0,0.0,0.0,0.0,0.0,0.0,0.2492,0.2124,0.3084,0.348,0.3588,0.4246,0.4792,0.523,0.4992,0.4894,0.0,0.0,0.0,0.0,0.0,0.0,0.0,0.0,0.0,0.0,0.0,0.0,0.0,0.0,0.0,0.0,0.0,0.0,0.0,0.0,0.0,0.0,0.0,0.0,0.0,0.0,0.0,0.0,0.7354,0.7411,0.6673,0.0,0.0,0.0,0.0,0.0,0.0,0.0,0.0,0.0,0.0,1.0452,1.2155,1.2018,0.0,0.0,1.2069,1.1619,1.1653,1.2224,1.2168,1.071,1.0857,0.0,0.0,0.0,0.0,0.0,0.0,0.0,0.0,0.0,0.0,0.0,0.0,0.0,0.0,0.0,0.0,0.0,0.0,0.0,0.0,0.0,0.0,0.0,0.0,0.0,0.0,0.0,0.0,0.0,0.0,0.0,0.0,0.0,0.0,0.0,0.0,0.0,0.0,0.0,0.0,0.0,0.0,0.0,0.0,0.0,0.0,0.0,0.0,0.0,0.0,0.0,0.0,0.0,0.2285,0.3181,0.3588,0.3588,0.3588,0.4134,0.5223,0.4873,0.461,0.0,0.0,0.0,0.0,0.0,0.0,0.0,0.0,0.0,0.0,0.0,0.0,0.0,0.0,0.0,0.0,0.0,0.0,0.0,0.0,0.0,0.0,0.0,0.0,0.0,0.0,0.0,0.0,0.0,0.0,0.0,0.0,0.0,0.0,0.0,0.0,0.0,0.0,0.0,0.0,0.0,1.2789,1.3728,1.3845,1.3751,0.0,0.0,1.3751,1.3677,1.3677,1.3283,1.1752,0.0,0.0,0.0,0.0,0.0,0.0,0.0,0.0,0.0,0.0,0.0,0.0,0.0,0.0,0.0,0.0,0.0,0.0,0.0,0.0,0.0,0.0,0.0,0.0,0.0,0.0,0.0,0.0,0.0,0.0,0.0,0.0,0.0,0.0,0.0,0.0,0.0,0.0,0.0,0.0,0.0,0.0,0.0,0.0,0.0,0.0,0.0,0.0,0.0,0.0,0.0,0.0,0.0,0.0,0.3347,0.4323,0.4792,0.4792,0.4792,0.5009,0.5223,0.4754,0.0,0.0,0.0,0.0,0.0,0.0,0.0,0.0,0.0,0.0,0.0,0.0,0.0,0.0,0.0,0.0,0.0,0.0,0.0,0.0,0.0,0.0,0.0,0.0,0.0,0.0,0.0,0.5503,0.0,0.0,0.0,0.0,0.0,0.0,0.0,0.0,0.0,0.0,0.0,0.0,0.0,0.0,1.2507,1.2778,1.3513,1.3946,0.0,0.0,1.3005,1.2243,1.2552,1.2277,0.0,0.0,0.0,0.0,0.0,0.0,0.0,0.0,0.0,0.0,0.0,0.0,0.0,0.0,0.0,0.0,0.0,0.0,0.0,0.0,0.0,0.0,0.0,0.0,0.0,0.0,0.0,0.0,0.0,0.0,0.0,0.0,0.0,0.0,0.0,0.0,0.0,0.0,0.0,0.0,0.0,0.0,0.0,0.0,0.0,0.0,0.0,0.0,0.0,0.0,0.0,0.0,0.0,0.0,0.3722,0.3912,0.4634,0.5076,0.5223,0.523,0.5443,0.5881,0.5024,0.4886,0.0,0.0,0.0,0.0,0.0,0.0,0.0,0.0,0.0,0.0,0.0,0.0,0.0,0.0,0.0,0.0,0.0,0.0,0.0,0.0,0.0,0.0,0.0,0.0,0.0,0.0,0.0,0.0,0.0,0.0,0.0,0.0,0.0,0.0,0.0,0.0,0.0,0.0,0.0,0.0,0.0,0.0,1.3649,1.3631,0.0,0.0,0.0,1.2925,1.2336,0.0,0.0,0.0,0.0,0.0,0.0,0.0,0.0,0.0,0.0,0.0,0.0,0.0,0.0,0.0,0.0,0.0,0.0,0.0,0.0,0.0,0.0,0.0,0.0,0.0,0.0,0.0,0.0,0.0,0.0,0.0,0.0,0.0,0.0,0.0,0.0,0.0,0.0,0.0,0.0,0.0,0.0,0.0,0.0,0.0,0.0,0.0,0.0,0.0,0.0,0.0,0.0,0.0,0.0,0.0,0.0,0.0,0.4052,0.4436,0.4873,0.5423,0.5443,0.5773,0.6732,0.5724,0.5751,0.0,0.0,0.0,0.0,0.0,0.0,0.0,0.0,0.0,0.0,0.0,0.0,0.0,0.0,0.0,0.0,0.0,0.0,0.0,0.0,0.0,0.0,0.0,0.0,0.0,0.0,0.0,0.0,0.0,0.0,0.0,0.0,0.0,0.0,0.0,0.0,0.0,0.0,0.0,0.0,0.0,1.2815,1.5059,1.3673,1.2643,0.0,0.0,1.2811,1.2817,1.2416,0.0,0.0,0.0,0.0,0.0,0.0,0.0,0.0,0.0,0.0,0.0,0.0,0.0,0.0,0.0,0.0,0.0,0.0,0.0,0.0,0.0,0.0,0.0,0.0,0.0,0.0,0.0,0.0,0.0,0.0,0.0,0.0,0.0,0.0,0.0,0.0,0.0,0.0,0.0,0.0,0.0,0.0,0.0,0.0,0.0,0.0,0.0,0.0,0.0,0.0,0.0,0.0,0.0,0.0,0.0,0.0,0.4052,0.4436,0.5172,0.6286,0.631,0.6743,0.7481,0.7,0.7084,0.0,0.0,0.0,0.0,0.0,0.0,0.0,0.0,0.0,0.0,0.0,0.0,0.0,0.0,0.0,0.0,0.0,0.0,0.0,0.0,0.0,0.0,0.0,0.0,0.0,0.0,0.0,0.0,0.0,0.0,0.0,0.0,0.0,0.0,0.0,0.0,0.0,0.0,0.0,0.0,0.0,1.3122,1.3982,1.3393,0.0,0.0,0.0,0.0,1.157,1.0799,0.0,0.0,0.0,0.0,0.0,0.0,0.0,0.0,0.0,0.0,0.0,0.0,0.0,0.0,0.0,0.0,0.0,0.0,0.0,0.0,0.0,0.0,0.0,0.0,0.0,0.0,0.0,0.0,0.0,0.0,0.0,0.0,0.0,0.0,0.0,0.0,0.0,0.0,0.0,0.0,0.0,0.0,0.0,0.0,0.0,0.0,0.0,0.0,0.0,0.0,0.0,0.0,0.0,0.0,0.0,0.0,0.4408,0.504,0.577,0.6604,0.6959,0.7606,0.8347,0.7814,0.8087,0.0,0.0,0.0,0.0,0.0,0.0,0.0,0.0,0.0,0.0,0.0,0.0,0.0,0.0,0.0,0.0,0.0,0.0,0.0,0.0,0.0,0.0,0.0,0.0,0.0,0.0,0.0,0.0,0.0,0.0,0.0,0.0,0.0,0.0,0.0,0.0,0.0,0.0,0.0,0.0,1.19,1.2229,1.3738,0.0,0.0,0.0,0.0,0.0,0.0,1.0741,0.9677,0.0,0.0,0.0,0.0,0.0,0.0,0.0,0.0,0.0,0.0,0.0,0.0,0.0,0.0,0.0,0.0,0.0,0.0,0.0,0.0,0.0,0.0,0.0,0.0,0.0,0.0,0.0,0.0,0.0,0.0,0.0,0.0,0.0,0.0,0.0,0.0,0.0,0.0,0.0,0.0,0.0,0.0,0.0,0.0,0.0,0.0,0.0,0.0,0.0,0.0,0.0,0.0,0.0,0.0,0.0,0.4876,0.5654,0.6308,0.6816,0.756,0.8461,0.9312,0.8624,0.8722,0.9772,0.0,0.0,0.0,0.0,0.0,0.0,0.0,0.0,0.0,0.0,0.0,0.0,0.0,0.0,0.0,0.0,0.0,0.0,0.0,0.0,0.0,0.0,0.0,0.0,0.0,0.0,0.0,0.0,0.0,0.0,0.0,0.0,0.0,0.0,0.0,0.0,0.0,0.0,0.0,1.0976,1.1186,0.0,0.0,0.0,0.0,0.0,0.0,0.0,0.0,0.9631,0.0,0.0,0.0,0.0,0.0,0.0,0.0,0.0,0.0,0.0,0.0,0.0,0.0,0.0,0.0,0.0,0.0,0.0,0.0,0.0,0.0,0.0,0.0,0.0,0.0,0.0,0.0,0.0,0.0,0.0,0.0,0.0,0.0,0.0,0.0,0.0,0.0,0.0,0.0,0.0,0.0,0.0,0.0,0.0,0.0,0.0,0.0,0.0,0.0,0.0,0.0,0.0,0.0,0.0,0.0,0.0,0.5605,0.6394,0.7702,0.8523,0.9326,1.0075,0.9517,0.8958,0.8663,0.0,0.0,0.0,0.0,0.0,0.0,0.0,0.0,0.0,0.0,0.0,0.0,0.0,0.0,0.0,0.0,0.0,0.0,0.0,0.0,0.0,0.0,0.0,0.0,0.0,0.0,0.0,0.0,0.0,0.0,0.0,0.0,0.0,0.0,0.0,0.0,0.0,0.0,1.0138,1.047,0.0,0.0,0.0,0.0,0.0,0.0,0.0,0.0,0.9204,0.0,0.0,0.0,0.0,0.0,0.0,0.0,0.0,0.0,0.0,0.0,0.0,0.0,0.0,0.0,0.0,0.0,0.0,0.0,0.0,0.0,0.0,0.0,0.0,0.0,0.0,0.0,0.0,0.0,0.0,0.0,0.0,0.0,0.0,0.0,0.0,0.0,0.0,0.0,0.0,0.0,0.0,0.0,0.0,0.0,0.0,0.0,0.0,0.0,0.0,0.0,0.0,0.0,0.0,0.0,0.0,0.0,0.0,0.7428,0.7958,0.9708,1.0601,1.0258,0.9924,0.9598,0.0,0.0,0.0,0.0,0.0,0.0,0.0,0.0,0.0,0.0,0.0,0.0,0.0,0.0,0.0,0.0,0.0,0.0,0.0,0.0,0.0,0.0,0.0,0.0,0.0,0.0,0.0,0.0,0.0,0.0,0.0,0.0,0.0,0.0,0.0,0.0,0.0,0.0,0.0,0.0,0.0,0.0,0.0,0.0,0.0,0.0,0.0,0.0,0.0,0.0,0.0,0.0,0.0,0.0,0.0,0.0,0.0,0.0,0.0,0.0,0.0,0.0,0.0,0.0,0.0,0.0,0.0,0.0,0.0,0.0,0.0,0.0,0.0,0.0,0.0,0.0,0.0,0.0,0.0,0.0,0.0,0.0,0.0,0.0,0.0,0.0,0.0,0.0,0.0,0.0,0.0,0.0,0.0,0.0,0.0,0.0,0.0,0.0,0.0,0.0,0.0,0.0,0.0,0.0,0.0,0.0,0.0,0.0,0.8405,0.8432,1.0744,1.1761,1.1027,1.0897,1.0405,0.0,0.0,0.0,0.0,0.0,0.0,0.0,0.0,0.0,0.0,0.0,0.0,0.0,0.0,0.0,0.0,0.0,0.0,0.0,0.0,0.0,0.0,0.0,0.0,0.0,0.0,0.0,0.0,0.0,0.0,0.0,0.0,0.0,0.0,0.0,0.0,0.0,0.0,0.0,0.0,0.0,0.0,0.0,0.0,0.0,0.0,0.0,0.0,1.0606,0.0,0.0,0.0,0.0,0.0,0.0,0.0,0.0,0.0,0.0,0.0,0.0,0.0,0.0,0.0,0.0,0.0,0.0,0.0,0.0,0.0,0.0,0.0,0.0,0.0,0.0,0.0,0.0,0.0,0.0,0.0,0.0,0.0,0.0,0.0,0.0,0.0,0.0,0.0,0.0,0.0,0.0,0.0,0.0,0.0,0.0,0.0,0.0,0.0,0.0,0.0,0.0,0.0,0.0,0.0,0.0,0.0,0.0,0.0,0.8615,0.9687,1.1279,1.2491,1.3396,1.3177,1.1257,0.0,0.0,0.0,0.0,0.0,0.0,0.0,0.0,0.0,0.0,0.0,0.0,0.0,0.0,0.0,0.0,0.0,0.0,0.0,0.0,0.0,0.0,0.0,0.0,0.0,0.0,0.0,0.0,0.0,0.0,0.0,0.0,0.0,0.0,0.0,0.0,0.0,0.0,0.0,0.0,0.0,0.0,0.0,0.0,0.0,0.0,0.0,0.0,0.0,0.0,0.0,0.0,0.0,0.0,0.0,0.0,0.0,0.0,0.0,0.0,0.0,0.0,0.0,0.0,0.0,0.0,0.0,0.0,0.0,0.0,0.0,0.0,0.0,0.0,0.0,0.0,0.0,0.0,0.0,0.0,0.0,0.0,0.0,0.0,0.0,0.0,0.0,0.0,0.0,0.0,0.0,0.0,0.0,0.0,0.0,0.0,0.0,0.0,0.0,0.0,0.0,0.0,0.0,0.0,0.0,0.0,0.0,0.0,0.9162,1.0338,1.2139,1.3187,1.3508,1.246,1.0592,0.0,0.0,0.0,0.0,0.0,0.0,0.0,0.0,0.0,0.0,0.0,0.0,0.0,0.0,0.0,0.0,0.0,0.0,0.0,0.0,0.0,0.0,0.0,0.0,0.0,0.0,0.0,0.0,0.0,0.0,0.0,0.0,0.0,0.0,0.0,0.0,0.0,0.0,0.0,0.0,0.0,0.0,0.0,0.0,0.0,0.0,0.0,0.0,0.0,0.0,0.0,0.0,0.0,0.0,0.0,0.0,0.0,0.0,0.0,0.0,0.0,0.0,0.0,0.0,0.0,0.0,0.0,0.0,0.0,0.0,0.0,0.0,0.0,0.0,0.0,0.0,0.0,0.0,0.0,0.0,0.0,0.0,0.0,0.0,0.0,0.0,0.0,0.0,0.0,0.0,0.0,0.0,0.0,0.0,0.0,0.0,0.0,0.0,0.0,0.0,0.0,0.0,0.0,0.0,0.0,0.0,0.0,0.0,0.0,1.0606,1.2303,1.2983,1.2536,1.1143,0.982,0.0,0.0,0.0,0.0,0.0,0.0,0.0,0.0,0.0,0.0,0.0,0.0,0.0,0.0,0.0,0.0,0.0,0.0,0.0,0.0,0.0,0.0,0.0,0.0,0.0,0.0,0.0,0.0,0.0,0.0,0.0,0.0,0.0,0.0,0.0,0.0,0.0,0.0,0.0,0.0,0.0,0.0,0.0,0.0,0.0,0.0,0.0,0.0,0.0,0.0,0.0,0.0,0.0,0.0,0.0,0.0,0.0,0.0,0.0,0.0,0.0,0.0,0.0,0.0,0.0,0.0,0.0,0.0,0.0,0.0,0.0,0.0,0.0,0.0,0.0,0.0,0.0,0.0,0.0,0.0,0.0,0.0,0.0,0.0,0.0,0.0,0.0,0.0,0.0,0.0,0.0,0.0,0.0,0.0,0.0,0.0,0.0,0.0,0.0,0.0,0.0,0.0,0.0,0.0,0.0,0.0,0.0,0.0,0.0,1.0473,1.1201,1.1345,1.0832,0.9935,0.9387,0.0,0.0,0.0,0.0,0.0,0.0,0.0,0.0,0.0,0.0,0.0,0.0,0.0,0.0,0.0,0.0,0.0,0.0,0.0,0.0,0.0,0.0,0.0,0.0,0.0,0.0,0.0,0.0,0.0,0.0,0.0,0.0,0.0,0.0,0.0,0.0,0.0,0.0,0.0,0.0,0.0,0.0,0.0,0.0,0.0,0.0,0.0,0.0,0.0,0.0,0.0,0.0,0.0,0.0,0.0,0.0,0.0,0.0,0.0,0.0,0.0,0.0,0.0,0.0,0.0,0.0,0.0,0.0,0.0,0.0,0.0,0.0,0.0,0.0,0.0,0.0,0.0,0.0,0.0,0.0,0.0,0.0,0.0,0.0,0.0,0.0,0.0,0.0,0.0,0.0,0.0,0.0,0.0,0.0,0.0,0.0,0.0,0.0,0.0,0.0,0.0,0.0,0.0,0.0,0.0,0.0,0.0,0.0,0.0,1.0566,1.0795,1.0656,1.0219,0.9974,0.9842,0.9908,0.0,0.0,0.0,0.0,0.0,0.0,0.0,0.0,0.0,0.0,0.0,0.0,0.0,0.0,0.0,0.0,0.0,0.0,0.0,0.0,0.0,0.0,0.0,0.0,0.0,0.0,0.0,0.0,0.0,0.0,0.0,0.0,0.0,0.0,0.0,0.0,0.0,0.0,0.0,0.0,0.0,0.0,0.0,0.0,0.0,0.0,0.0,0.0,0.0,0.0,0.0,0.0,0.0,0.0,0.0,0.0,0.0,0.0,0.0,0.0,0.0,0.0,0.0,0.0,0.0,0.0,0.0,0.0,0.0,0.0,0.0,0.0,0.0,0.0,0.0,0.0,0.0,0.0,0.0,0.0,0.0,0.0,0.0,0.0,0.0,0.0,0.0,0.0,0.0,0.0,0.0,0.0,0.0,0.0,0.0,0.0,0.0,0.0,0.0,0.0,0.0,0.0,0.0,0.0,0.0,0.0,0.0,0.0,1.084,1.0746,1.0525,1.0191,1.0285,1.0417,0.0,0.0,0.0,0.0,0.0,0.0,0.0,0.0,0.0,0.0,0.0,0.0,0.0,0.0,0.0,0.0,0.0,0.0,0.0,0.0,0.0,0.0,0.0,0.0,0.0,0.0,0.0,0.0,0.0,0.0,0.0,0.0,0.0,0.0,0.0,0.0,0.0,0.0,0.0,0.0,0.0,0.0,0.0,0.0,0.0,0.0,0.0,0.0,0.0,0.0,0.0,0.0,0.0,0.0,0.0,0.0,0.0,0.0,0.0,0.0,0.0,0.0,0.0,0.0,0.0,0.0,0.0,0.0,0.0,0.0,0.0,0.0,0.0,0.0,0.0,0.0,0.0,0.0,0.0,0.0,0.0,0.0,0.0,0.0,0.0,0.0,0.0,0.0,0.0,0.0,0.0,0.0,0.0,0.0,0.0,0.0,0.0,0.0,0.0,0.0,0.0,0.0,0.0,0.0,0.0,0.0,0.0,0.0,1.2405,1.1353,1.1139,1.1001,1.0676,1.0803,1.0954,0.0,0.0,0.0,0.0,0.0,0.0,0.0,0.0,0.0,0.0,0.0,0.0,0.0,0.0,0.0,0.0,0.0,0.0,0.0,0.0,0.0,0.0,0.0,0.0,0.0,0.0,0.0,0.0,0.0,0.0,0.0,0.0,0.0,0.0,0.0,0.0,0.0,0.0,0.0,0.0,0.0,0.0,0.0,0.0,0.0,0.0,0.0,0.0,0.0,0.0,0.0,0.0,0.0,0.0,0.0,0.0,0.0,0.0,0.0,0.0,0.0,0.0,0.0,0.0,0.0,0.0,0.0,0.0,0.0,0.0,0.0,0.0,0.0,0.0,0.0,0.0,0.0,0.0,0.0,0.0,0.0,0.0,0.0,0.0,0.0,0.0,0.0,0.0,0.0,0.0,0.0,0.0,0.0,0.0,0.0,0.0,0.0,0.0,0.0,0.0,0.0,0.0,0.0,0.0,0.0,0.0,0.0,0.0,0.0,1.3242,0.0,1.2019,0.0,1.1627,1.1707,0.0,0.0,0.0,0.0,0.0,0.0,0.0,0.0,0.0,0.0,0.0,0.0,0.0,0.0,0.0,0.0,0.0,0.0,0.0,0.0,0.0,0.0,0.0,0.0,0.0,0.0,0.0,0.0,0.0,0.0,0.0,0.0,0.0,0.0,0.0,0.0,0.0,0.0,0.0,0.0,0.0,0.0,0.0,0.0,0.0,0.0,0.0,0.0,0.0,0.0,0.0,0.0,0.0,0.0,0.0,0.0,0.0,0.0,0.0,0.0,0.0,0.0,0.0,0.0,0.0,0.0,0.0,0.0,0.0,0.0,0.0,0.0,0.0,0.0,0.0,0.0,0.0,0.0,0.0,0.0,0.0,0.0,0.0,0.0,0.0,0.0,0.0,0.0,0.0,0.0,0.0,0.0,0.0,0.0,0.0,0.0,0.0,0.0,0.0,0.0,0.0,0.0,0.0,0.0,0.0,0.0,0.0,0.0,0.0,1.4671,1.3833,1.3067,1.2384,1.2502,1.2595,0.0,0.0,0.0,0.0,0.0,0.0,0.0,0.0,0.0,0.0,0.0,0.0,0.0,0.0,0.0,0.0,0.0,0.0,0.0,0.0,0.0,0.0,0.0,0.0,0.0,0.0,0.0,0.0,0.0,0.0,0.0,0.0,0.0,0.0,0.0,0.0,0.0,0.0,0.0,0.0,0.0,0.0,0.0,0.0,0.0,0.0,0.0,0.0,0.0,0.0,0.0,0.0,0.0,0.0,0.0,0.0,0.0,0.0,0.0,0.0,0.0,0.0,0.0,0.0,0.0,0.0,0.0,0.0,0.0,0.0,0.0,0.0,0.0,0.0,0.0,0.0,0.0,0.0,0.0,0.0,0.0,0.0,0.0,0.0,0.0,0.0,0.0,0.0,0.0,0.0,0.0,0.0,0.0,0.0,0.0,0.0,0.0,0.0,0.0,0.0,0.0,0.0,0.0,0.0,0.0,0.0,0.0,0.0,0.0,0.0,1.4843,1.4105,1.3376,1.3568,1.3575,0.0,0.0,0.0,0.0,0.0,0.0,0.0,0.0,0.0,0.0,0.0,0.0,0.0,0.0,0.0,0.0,0.0,0.0,0.0,0.0,0.0,0.0,0.0,0.0,0.0,0.0,0.0,0.0,0.0,0.0,0.0,0.0,0.0,0.0,0.0,0.0,0.0,0.0,0.0,0.0,0.0,0.0,0.0,0.0,0.0,0.0,0.0,0.0,0.0,0.0,0.0,0.0,0.0,0.0,0.0,0.0,0.0,0.0,0.0,0.0,0.0,0.0,0.0,0.0,0.0,0.0,0.0,0.0,0.0,0.0,0.0,0.0,0.0,0.0,0.0,0.0,0.0,0.0,0.0,0.0,0.0,0.0,0.0,0.0,0.0,0.0,0.0,0.0,0.0,0.0,0.0,0.0,0.0,0.0,0.0,0.0,0.0,0.0,0.0,0.0,0.0,0.0,0.0,0.0,0.0,0.0,0.0,0.0,0.0,0.0,1.5966,0.0,1.5064,1.5124,1.4908,1.4343,0.0,0.0,0.0,0.0,0.0,0.0,0.0,0.0,0.0,0.0,0.0,0.0,0.0,0.0,0.0,0.0,0.0,0.0,0.0,0.0,0.0,0.0,0.0,0.0,0.0,0.0,0.0,0.0,0.0,0.0,0.0,0.0,0.0,0.0,0.0,0.0,0.0,0.0,0.0,0.0,0.0,0.0,0.0,0.0,0.0,0.0,0.0,0.0,0.0,0.0,0.0,0.0,0.0,0.0,0.0,0.0,0.0,0.0,0.0,0.0,0.0,0.0,0.0,0.0,0.0,0.0,0.0,0.0,0.0,0.0,0.0,0.0,0.0,0.0,0.0,0.0,0.0,0.0,0.0,0.0,0.0,0.0,0.0,0.0,0.0,0.0,0.0,0.0,0.0,0.0,0.0,0.0,0.0,0.0,0.0,0.0,0.0,0.0,0.0,0.0,0.0,0.0,0.0,0.0,0.0,0.0,0.0,0.0,0.0,0.0,0.0,1.628,1.6096,1.5775,0.0,0.0,0.0,0.0,0.0,0.0,0.0,0.0,0.0,0.0,0.0,0.0,0.0,0.0,0.0,0.0,0.0,0.0,0.0,0.0,0.0,0.0,0.0,0.0,0.0,0.0,0.0,0.0,0.0,0.0,0.0,0.0,0.0,0.0,0.0,0.0,0.0,0.0,0.0,0.0,0.0,0.0,0.0,0.0,0.0,0.0,0.0,0.0,0.0,0.0,0.0,0.0,0.0,0.0,0.0,0.0,0.0,0.0,0.0,0.0,0.0,0.0,0.0,0.0,0.0,0.0,0.0,0.0,0.0,0.0,0.0,0.0,0.0,0.0,0.0,0.0,0.0,0.0,0.0,0.0,0.0,0.0,0.0,0.0,0.0,0.0,0.0,0.0,0.0,0.0,0.0,0.0,0.0,0.0,0.0,0.0,0.0,0.0,0.0,0.0,0.0,0.0,0.0,0.0,0.0,0.0,0.0,0.0,0.0,0.0,0.0,1.7204,1.7196,1.671,0.0,1.6494,0.0,0.0,0.0,0.0,0.0,0.0,0.0,0.0,0.0,0.0,0.0,0.0,0.0,0.0,0.0,0.0,0.0,0.0,0.0,0.0,0.0,0.0,0.0,0.0,0.0,0.0,0.0,0.0,0.0,0.0,0.0,0.0,0.0,0.0,0.0,0.0,0.0,0.0,0.0,0.0,0.0,0.0,0.0,0.0,0.0,0.0,0.0,0.0,0.0,0.0,0.0,0.0,0.0,0.0,0.0,0.0,0.0,0.0,0.0,0.0,0.0,0.0,0.0,0.0,0.0,0.0,0.0,0.0,0.0,0.0,0.0,0.0,0.0,0.0,0.0,0.0,0.0,0.0,0.0,0.0,0.0,0.0,0.0,0.0,0.0,0.0,0.0,0.0,0.0,0.0,0.0,0.0,0.0,0.0,0.0,0.0,0.0,0.0,0.0,0.0,0.0,0.0,0.0,0.0,0.0,0.0,0.0,0.0,0.0,0.0,0.0,0.0,1.7692,1.7679,1.7941,0.0,0.0,0.0,0.0,0.0,0.0,0.0,0.0,0.0,0.0,0.0,0.0,0.0,0.0,0.0,0.0,0.0,0.0,0.0,0.0,0.0,0.0,0.0,0.0,0.0,0.0,0.0,0.0,0.0,0.0,0.0,0.0,0.0,0.0,0.0,0.0,0.0,0.0,0.0,0.0,0.0,0.0,0.0,0.0,0.0,0.0,0.0,0.0,0.0,0.0,0.0,0.0,0.0,0.0,0.0,0.0,0.0,0.0,0.0,0.0,0.0,0.0,0.0,0.0,0.0,0.0,0.0,0.0,0.0,0.0,0.0,0.0,0.0,0.0,0.0,0.0,0.0,0.0,0.0,0.0,0.0,0.0,0.0,0.0,0.0,0.0,0.0,0.0,0.0,0.0,0.0,0.0,0.0,0.0,0.0,0.0,0.0,0.0,0.0,0.0,0.0,0.0,0.0,0.0,0.0,0.0,0.0,0.0,0.0,0.0,1.8623,1.8614,1.841,1.8469,1.8697,0.0,0.0,0.0,0.0,0.0,0.0,0.0,0.0,0.0,0.0,0.0,0.0,0.0,0.0,0.0,0.0,0.0,0.0,0.0,0.0,0.0,0.0,0.0,0.0,0.0,0.0,0.0,0.0,0.0,0.0,0.0,0.0,0.0,0.0,0.0,0.0,0.0,0.0,0.0,0.0,0.0,0.0,0.0,0.0,0.0,0.0,0.0,0.0,0.0,0.0,0.0,0.0,0.0,0.0,0.0,0.0,0.0,0.0,0.0,0.0,0.0,0.0,0.0,0.0,0.0,0.0,0.0,0.0,0.0,0.0,0.0,0.0,0.0,0.0,0.0,0.0,0.0,0.0,0.0,0.0,0.0,0.0,0.0,0.0,0.0,0.0,0.0,0.0,0.0,0.0,0.0,0.0,0.0,0.0,0.0,0.0,0.0,0.0,0.0,0.0,0.0,0.0,0.0,0.0,0.0,0.0,0.0,0.0,0.0,0.0,0.0,0.0,0.0,0.0,1.9074,0.0,0.0,0.0,0.0,0.0,0.0,0.0,0.0,0.0,0.0,0.0,0.0,0.0,0.0,0.0,0.0,0.0,0.0,0.0,0.0,0.0,0.0,0.0,0.0,0.0,0.0,0.0,0.0,0.0,0.0,0.0,0.0,0.0,0.0,0.0,0.0,0.0,0.0,0.0,0.0,0.0,0.0,0.0,0.0,0.0,0.0,0.0,0.0,0.0,0.0,0.0,0.0,0.0,0.0,0.0,0.0,0.0,0.0,0.0,0.0,0.0,0.0,0.0,0.0,0.0,0.0,0.0,0.0,0.0,0.0,0.0,0.0,0.0,0.0,0.0,0.0,0.0,0.0,0.0,0.0,0.0,0.0,0.0,0.0,0.0,0.0,0.0,0.0,0.0,0.0,0.0,0.0,0.0,0.0,0.0,0.0,0.0,0.0,0.0,0.0,0.0,0.0,0.0,0.0,0.0,0.0,0.0,0.0,0.0,0.0,0.0,0.0,0.0,0.0,0.0,0.0,0.0,0.0,0.0,0.0,0.0,0.0,0.0,0.0,0.0,0.0,0.0,0.0,0.0,0.0,0.0,0.0,0.0,0.0,0.0,0.0,0.0,0.0,0.0,0.0,0.0,0.0,0.0,0.0,0.0,0.0,0.0,0.0,0.0,0.0,0.0,0.0,0.0,0.0,0.0,0.0,0.0,0.0,0.0,0.0,0.0,0.0,0.0,0.0,0.0,0.0,0.0,0.0,0.0,0.0,0.0,0.0,0.0,0.0,0.0,0.0,0.0,0.0,0.0,0.0,0.0,0.0,0.0,0.0,0.0,0.0,0.0,0.0,0.0,0.0,0.0,0.0,0.0,0.0,0.0,0.0,0.0,0.0,0.0,0.0,0.0,0.0,0.0,0.0,0.0,0.0,0.0,0.0,0.0,0.0,0.0,0.0,0.0,0.0,0.0,0.0,0.0,0.0,0.0,0.0,0.0,0.0,0.0,0.0,0.0,0.0,0.0,0.0,0.0,0.0,0.0,0.0,0.0,0.0,0.0,0.0,0.0,0.0,0.0,0.0,0.0,0.0,0.0,0.0,0.0,0.0,0.0,0.0,0.0,0.0,0.0,0.0,0.0,0.0,0.0,0.0,0.0,0.0,0.0,0.0,0.0,0.0,0.0,0.0,0.0,0.0,0.0,0.0,0.0,0.0,0.0,0.0,0.0,0.0,0.0,0.0,0.0,0.0,0.0,0.0,0.0,0.0,0.0,0.0,0.0,0.0,0.0,0.0,0.0,0.0,0.0,0.0,0.0,0.0,0.0,0.0,0.0,0.0,0.0,0.0,0.0,0.0,0.0,0.0,0.0,0.0,0.0,0.0,0.0,0.0,0.0,0.0,0.0,0.0,0.0,0.0,0.0,0.0,0.0,0.0,0.0,0.0,0.0,0.0,0.0,0.0,0.0,0.0,0.0,0.0,0.0,0.0,0.0,0.0,0.0,0.0,0.0,0.0,0.0,0.0,0.0,0.0,0.0,0.0,0.0,0.0,0.0,0.0,0.0,0.0,0.0,0.0,0.0,0.0,0.0,0.0,0.0,0.0,0.0,0.0,0.0,0.0,0.0,0.0,0.0,0.0,0.0,0.0,0.0,0.0,0.0,0.0,0.0,0.0,0.0,0.0,0.0,0.0,0.0,0.0,0.0,0.0,0.0,0.0,0.0,0.0,0.0,0.0,0.0,0.0,0.0,0.0,0.0,0.0,0.0,0.0,0.0,0.0,0.0,0.0,0.0,0.0,0.0,0.0,0.0,0.0,0.0,0.0,0.0,0.0,0.0,0.0,0.0,0.0,0.0,0.0,0.0,0.0,0.0,0.0,0.0,0.0,0.0,0.0,0.0,0.0,0.0,0.0,0.0,0.0,0.0,0.0,0.0,0.0,0.0,0.0,0.0,0.0,0.0,0.0,0.0,0.0,0.0,0.0,0.0,0.0,0.0,0.0,0.0,0.0,0.0,0.0,0.0,0.0,0.0,0.0,0.0,0.0,0.0,0.0,0.0,0.0,0.0,0.0,0.0,0.0,0.0,0.0,0.0,0.0,0.0,0.0,0.0,0.0,0.0,0.0,0.0,0.0,0.0,0.0,0.0,0.0,0.0,0.0,0.0,0.0,0.0,0.0,0.0,0.0,0.0,0.0,0.0,0.0,0.0,0.0,0.0,0.0,0.0,0.0,0.0,0.0,0.0,0.0,0.0,0.0,0.0,0.0,0.0,0.0,0.0,0.0,0.0,0.0,0.0,0.0,0.0,0.0,0.0,0.0,0.0,0.0,0.0,0.0,0.0,0.0,0.0,0.0,0.0,0.0,0.0,0.0,0.0,0.0,0.0,0.0,0.0,0.0,0.0,0.0,0.0,0.0,0.0,0.0,0.0,0.0,0.0,0.0,0.0,0.0,0.0,0.0,0.0,0.0,0.0,0.0,0.0,0.0,0.0,0.0,0.0,0.0,0.0,0.0,0.0,0.0,0.0,0.0,0.0,0.0,0.0,0.0,0.0,0.0,0.0,0.0,0.0,0.0,0.0,0.0,0.0,0.0,0.0,0.0,0.0,0.0,0.0,0.0,0.0,0.0,0.0,0.0,0.0,0.0,0.0,0.0,0.0,0.0,0.0,0.0,0.0,0.0,0.0,0.0,0.0,0.0,0.0,0.0,0.0,0.0,0.0,0.0,0.0,0.0,0.0,0.0,0.0,0.0,0.0,0.0,0.0,0.0,0.0,0.0,0.0,0.0,0.0,0.0,0.0,0.0,0.0,0.0,0.0,0.0,0.0,0.0,0.0,0.0,0.0,0.0,0.0,0.0,0.0,0.0,0.0,0.0,0.0,0.0,0.0,0.0,0.0,0.0,0.0,0.0,0.0,0.0,0.0,0.0,0.0,0.0,0.0,0.0,0.0,0.0,0.0,0.0,0.0,0.0,0.0,0.0,0.0,0.0,0.0,0.0,0.0,0.0,0.0,0.0,0.0,0.0,0.0,0.0,0.0,0.0,0.0,0.0,0.0,0.0,0.0,0.0,0.0,0.0,0.0,0.0,0.0,0.0,0.0,0.0,0.0,0.0,0.0,0.0,0.0,0.0,0.0,0.0,0.0,0.0,0.0,0.0,0.0,0.0,0.0,0.0,0.0,0.0,0.0,0.0,0.0,0.0,0.0,0.0,0.0,0.0,0.0,0.0,0.0,0.0,0.0,0.0,0.0,0.0,0.0,0.0,0.0,0.0,0.0,0.0,0.0,0.0,0.0,0.0,0.0,0.0,0.0,0.0,0.0,0.0,0.0,0.0,0.0,0.0,0.0,0.0,0.0,0.0,0.0,0.0,0.0,0.0,0.0,0.0,0.0,0.0,0.0,0.0,0.0,0.0,0.0,0.0,0.0,0.0,0.0,0.0,0.0,0.0,0.0,0.0,0.0,0.0,0.0,0.0,0.0,0.0,0.0,0.0,0.0,0.0,0.0,0.0,0.0,0.0,0.0,0.0,0.0,0.0,0.0,0.0,0.0,0.0,0.0,0.0,0.0,0.0,0.0,0.0,0.0,0.0,0.0,0.0,0.0,0.0,0.0,0.0,0.0,0.0,0.0,0.0,0.0,0.0,0.0,0.0,0.0,0.0,0.0,0.0,0.0,0.0,0.0,0.0,0.0,0.0,0.0,0.0,0.0,0.0,0.0,0.0,0.0,0.0,0.0,0.0,0.0,0.0,0.0,0.0,0.0,0.0,0.0,0.0,0.0,0.0,0.0,0.0,0.0,0.0,0.0,0.0,0.0,0.0,0.0,0.0,0.0,0.0,0.0,0.0,0.0,0.0,0.0,0.0,0.0,0.0,0.0,0.0,0.0,0.0,0.0,0.0,0.0,0.0,0.0,0.0,0.0,0.0,0.0,0.0,0.0,0.0,0.0,0.0,0.0,0.0,0.0,0.0,0.0,0.0,0.0,0.0,0.0,0.0,0.0,0.0,0.0,0.0,0.0,0.0,0.0,0.0,0.0,0.0,0.0,0.0,0.0,0.0,0.0,0.0,0.0,0.0,0.0,0.0,0.0,0.0,0.0,0.0,0.0,0.0,0.0,0.0,0.0,0.0,0.0,0.0,0.0,0.0,0.0,0.0,0.0,0.0,0.0,0.0,0.0,0.0,0.0,0.0,0.0,0.0,0.0,0.0,0.0,0.0,0.0,0.0,0.0,0.0,0.0,0.0,0.0,0.0,0.0,0.0,0.0,0.0,0.0,0.0,0.0,0.0,0.0,0.0,0.0,0.0,0.0,0.0,0.0,0.0,0.0,0.0,0.0,0.0,0.0,0.0,0.0,0.0,0.0,0.0,0.0,0.0,0.0,0.0]}],[{"header":{"parameterUnit":"kt","parameterCategory":2,"dx":1,"dy":1,"la1":29.587661999999998,"la2":31.0,"lo1":-88.76705300000003,"lo2":-86.6583820000003,"nx":115,"ny":88,"refTime":"2022-10-04T12:00:00:Z","depth":0,"parameterNumber":2,"parameterNumberName":"V-component_of_WINDS"},"data":[-2.5953,-2.6046,-2.5433,-2.5264,-2.5358,-2.5283,-2.5471,-2.5787,-2.5821,-2.6059,-2.6367,-2.6943,-2.8109,-3.015,-3.0518,-3.0581,-3.0597,-3.0998,-3.1191,-3.1383,-3.2086,-3.2333,-3.2686,-3.3143,-3.3758,-3.4419,-3.5294,-3.6244,-3.673,-3.7662,-3.8456,-3.9028,-3.9228,-3.9361,-3.982,-4.0492,-4.1283,-4.1977,-4.2679,-4.3456,-4.4179,-4.5098,-4.6411,-4.6683,-4.6912,-4.691,-4.7095,-4.7517,-4.7792,-4.8185,-4.8808,-4.9348,-4.9541,-4.9598,-4.9598,-4.9543,-4.9539,-4.9587,-4.9579,-4.9591,-4.956,-4.9488,-4.9447,-4.934,-4.9281,-4.9235,-4.9201,-4.8998,-4.909,-4.9431,-4.9401,-4.9252,-4.9218,-4.9073,-4.8879,-4.8685,-4.8473,-4.8315,-4.8353,-4.8454,-4.839,-4.8059,-4.7893,-4.7912,-4.791,-4.7729,-4.7639,-4.7702,-4.7675,-4.7548,-4.7486,-4.7484,-4.7515,-4.7683,-4.7848,-4.7942,-4.7811,-4.7707,-4.7675,-4.7687,-4.7723,-4.7675,-4.7675,-4.7719,-4.7752,-4.8038,-4.8179,-4.8364,-4.8397,-4.8727,-4.8465,-4.8602,-4.9074,-4.9654,-5.0514,-2.6926,-2.7833,-2.7944,-2.8055,-2.7944,-2.7241,-2.7332,-2.7944,-2.7673,-2.8034,-2.9123,-3.113,-3.2042,-3.2614,-3.2993,-3.3025,-3.3193,-3.3495,-3.3706,-3.3971,-3.4366,-3.4497,-3.4758,-3.5148,-3.5532,-3.6112,-3.6916,-3.7748,-3.8514,-3.9125,-3.9881,-4.074,-4.0865,-4.0802,-4.1479,-4.21,-4.2654,-4.34,-4.4031,-4.4775,-4.5523,-4.6295,-4.6491,-4.6644,-4.6799,-4.6914,-4.7204,-4.7607,-4.8065,-4.8485,-4.8959,-4.9344,-4.9554,-4.9684,-4.9712,-4.9693,-4.967,-4.9731,-4.9772,-4.9765,-4.9756,-4.9735,-4.9762,-4.9674,-4.9584,-4.9582,-4.9647,-4.9614,-4.9628,-4.9689,-4.9591,-4.9526,-4.9526,-4.9446,-4.9231,-4.9054,-4.8896,-4.8714,-4.8945,-4.9198,-4.8894,-4.8477,-4.8403,-4.8394,-4.8238,-4.7952,-4.7866,-4.7947,-4.7954,-4.7869,-4.7811,-4.7775,-4.7807,-4.8034,-4.8255,-4.816,-4.7936,-4.7869,-4.7807,-4.7811,-4.7816,-4.7816,-4.7848,-4.7957,-4.8388,-4.8715,-4.8929,-4.9543,-4.9766,-5.013,-5.0348,-5.0887,-5.1151,-5.1334,-5.2145,-2.8392,-2.837,-2.857,-2.8659,-2.8703,-2.8346,-2.8592,-2.9212,-2.9499,-3.0814,-3.2874,-3.405,-3.4733,-3.4811,-3.5044,-3.5118,-3.5473,-3.5852,-3.5879,-3.5954,-3.6179,-3.6383,-3.6559,-3.678,-3.7101,-3.7679,-3.8465,-3.9088,-3.9881,-4.0425,-4.0896,-4.1571,-4.1779,-4.1984,-4.2775,-4.3374,-4.4015,-4.4817,-4.5212,-4.5688,-4.6178,-4.6451,-4.6644,-4.676,-4.691,-4.7132,-4.7417,-4.7748,-4.8167,-4.8522,-4.8858,-4.9181,-4.9483,-4.9679,-4.9715,-4.9678,-4.9666,-4.9711,-4.9754,-4.9777,-4.9753,-4.9765,-4.9811,-4.9837,-4.9743,-4.9786,-4.9856,-4.9787,-4.9765,-4.9762,-4.9678,-4.9674,-4.9674,-4.9663,-4.9503,-4.9422,-4.9317,-4.9185,-4.9297,-4.9466,-4.9259,-4.8922,-4.8979,-4.8997,-4.8705,-4.844,-4.8288,-4.8357,-4.827,-4.8195,-4.8109,-4.805,-4.808,-4.824,-4.8362,-4.8269,-4.808,-4.7997,-4.7905,-4.8233,-4.8665,-4.8311,-4.8493,-4.9539,-5.0154,-5.0049,-5.0486,-5.1356,-5.1721,-5.1761,-5.2344,-5.307,-5.2947,-5.2997,-5.4462,-2.9867,-2.9606,-2.9541,-2.9826,-3.0173,-3.0127,-3.0534,-3.1154,-3.1935,-3.36,-3.5478,-3.5961,-3.6187,-3.6132,-3.6402,-3.6668,-3.7077,-3.7293,-3.7507,-3.7535,-3.7764,-3.7863,-3.8075,-3.8116,-3.8494,-3.9109,-3.9512,-3.9876,-4.0678,-4.1479,-4.2138,-4.2255,-4.2339,-4.2503,-4.3138,-4.3546,-4.4233,-4.5005,-4.5636,-4.6254,-4.653,-4.6683,-4.676,-4.691,-4.6987,-4.7169,-4.7451,-4.7775,-4.8178,-4.8423,-4.8693,-4.8977,-4.9306,-4.9521,-4.9611,-4.9616,-4.9602,-4.9695,-4.9753,-4.9788,-4.9773,-4.98,-4.9834,-4.9864,-4.9919,-4.9925,-4.9919,-4.9829,-4.9768,-4.9775,-4.9742,-4.9765,-4.975,-4.9771,-4.9744,-4.9763,-4.9771,-4.9667,-4.9567,-4.9543,-4.9494,-4.9494,-4.9564,-4.944,-4.9222,-4.9034,-4.8832,-4.8691,-4.8608,-4.8571,-4.8494,-4.8563,-4.8499,-4.8518,-4.8371,-4.8307,-4.8206,-4.8122,-4.8768,-4.9213,-4.9549,-4.9925,-5.0449,-5.1316,-5.1924,-5.1754,-5.2046,-5.3024,-5.3498,-5.3541,-5.4085,-5.5066,-5.5093,-5.5183,-5.6855,-3.1239,-3.2515,-3.2282,-3.2589,-3.3517,-3.3364,-3.3816,-3.4756,-3.5321,-3.5954,-3.6253,-3.6402,-3.6696,-3.7133,-3.7493,-3.7819,-3.8238,-3.8583,-3.8749,-3.8583,-3.8876,-3.9042,-3.9117,-3.9288,-3.9614,-3.9715,-3.9976,-4.0519,-4.1173,-4.1866,-4.2454,-4.2568,-4.2681,-4.2951,-4.3279,-4.3665,-4.4267,-4.5098,-4.5809,-4.6451,-4.6683,-4.676,-4.6872,-4.7021,-4.7059,-4.7097,-4.7309,-4.7718,-4.8238,-4.8454,-4.8735,-4.9091,-4.931,-4.9461,-4.9573,-4.9604,-4.9629,-4.9692,-4.9715,-4.9711,-4.9743,-4.9744,-4.9773,-4.9781,-4.9839,-4.986,-4.9872,-4.977,-4.9803,-4.9784,-4.9834,-4.9818,-4.9832,-4.9849,-4.9841,-4.9833,-4.9855,-4.9773,-4.97,-4.9704,-4.9654,-4.9639,-4.9728,-4.9676,-4.9439,-4.9339,-4.9183,-4.9032,-4.8966,-4.8981,-4.9005,-4.9136,-4.9273,-4.941,-4.9434,-4.9827,-4.9221,-4.9068,-4.9915,-5.0613,-5.2264,-5.2605,-5.2549,-5.3216,-5.3915,-5.3656,-5.3844,-5.4646,-5.5334,-5.5411,-5.599,-5.6988,-5.7509,-5.7702,-5.856,-3.2457,-3.3355,-3.3406,-3.3889,-3.468,-3.4833,-3.5899,-3.7306,-3.7721,-3.7793,-3.7863,-3.7976,-3.8087,-3.8268,-3.8779,-3.9185,-3.9518,-3.9846,-3.9942,-3.9911,-3.9942,-4.0071,-4.02,-4.0298,-4.0583,-4.1051,-4.1297,-4.1297,-4.1779,-4.2339,-4.277,-4.2915,-4.3004,-4.3399,-4.3841,-4.4132,-4.4563,-4.5155,-4.5731,-4.6295,-4.6566,-4.6722,-4.6796,-4.6946,-4.7021,-4.7202,-4.7456,-4.7679,-4.8147,-4.8506,-4.8689,-4.9011,-4.9222,-4.9348,-4.9468,-4.9469,-4.9535,-4.9587,-4.9615,-4.9654,-4.9642,-4.9689,-4.9725,-4.9741,-4.9758,-4.9825,-4.9813,-4.9801,-4.9805,-4.9846,-4.9872,-4.989,-4.9905,-4.9882,-4.9876,-4.9876,-4.987,-4.9856,-4.9841,-4.9825,-4.9829,-4.9771,-4.9765,-4.9765,-4.9692,-4.9526,-4.9355,-4.937,-4.9466,-4.9765,-5.0117,-5.0424,-5.0529,-5.088,-5.1666,-5.2325,-5.1039,-5.031,-5.1394,-5.3238,-5.5333,-5.5662,-5.4702,-5.5034,-5.5757,-5.6294,-5.6581,-5.7051,-5.6962,-5.7396,-5.7822,-5.8138,-5.8435,-5.8879,-5.9035,-3.3542,-3.413,-3.4314,-3.5094,-3.6029,-3.6402,-3.755,-3.9169,-3.9572,-3.9638,-3.9608,-3.974,-3.9846,-3.9942,-4.0359,-4.0802,-4.1051,-4.1206,-4.1206,-4.1083,-4.0927,-4.1051,-4.1175,-4.1236,-4.1571,-4.1902,-4.208,-4.2106,-4.2339,-4.2454,-4.277,-4.3356,-4.3645,-4.4132,-4.4597,-4.5061,-4.544,-4.5801,-4.6013,-4.6411,-4.6644,-4.6722,-4.6834,-4.691,-4.7021,-4.713,-4.7348,-4.7617,-4.7975,-4.8448,-4.8671,-4.8928,-4.9185,-4.9297,-4.9351,-4.9344,-4.9376,-4.943,-4.9499,-4.9559,-4.9615,-4.9629,-4.9651,-4.97,-4.9711,-4.9715,-4.9779,-4.9794,-4.9815,-4.9875,-4.9923,-4.9922,-4.9943,-4.9928,-4.9915,-4.991,-4.9905,-4.9894,-4.9882,-4.987,-4.9811,-4.9762,-4.9771,-4.9771,-4.9749,-4.9616,-4.9648,-4.9859,-5.0186,-5.1053,-5.1599,-5.212,-5.249,-5.3503,-5.4284,-5.4412,-5.2824,-5.1987,-5.3508,-5.5292,-5.6905,-5.7417,-5.6772,-5.6735,-5.7141,-5.7937,-5.8759,-5.8535,-5.7942,-5.851,-5.8672,-5.8895,-5.9117,-5.9196,-5.9342,-3.4471,-3.5118,-3.5402,-3.6559,-3.8034,-3.8483,-3.9139,-4.0037,-4.0896,-4.1205,-4.1297,-4.1236,-4.1327,-4.1747,-4.2074,-4.2191,-4.2364,-4.2165,-4.2165,-4.2133,-4.1925,-4.2048,-4.2106,-4.2223,-4.2396,-4.2454,-4.2511,-4.2794,-4.2592,-4.2873,-4.3312,-4.3789,-4.4334,-4.4742,-4.5074,-4.5485,-4.5878,-4.6172,-4.6371,-4.653,-4.6722,-4.6834,-4.6872,-4.6948,-4.7021,-4.7057,-4.7205,-4.7414,-4.7772,-4.8158,-4.8546,-4.8885,-4.9126,-4.9279,-4.9351,-4.9348,-4.936,-4.9414,-4.9468,-4.9536,-4.9559,-4.9601,-4.9604,-4.9604,-4.9629,-4.9689,-4.9695,-4.9724,-4.9832,-4.99,-4.9932,-4.9958,-4.9961,-4.9955,-4.9946,-4.9977,-4.997,-4.9962,-4.9953,-4.9938,-4.9838,-4.9811,-4.9829,-4.9773,-4.9763,-4.9953,-5.0534,-5.0844,-5.1823,-5.2635,-5.3019,-5.3566,-5.471,-5.5873,-5.6154,-5.6117,-5.5253,-5.5623,-5.6825,-5.6902,-5.7997,-5.8813,-5.8184,-5.7997,-5.8496,-5.8757,-5.8932,-5.8947,-5.8856,-5.8856,-5.891,-5.9117,-5.936,-5.9517,-5.9532,-3.5631,-3.6253,-3.6577,-3.7363,-3.8454,-3.9274,-4.0102,-4.0896,-4.1358,-4.1479,-4.1571,-4.172,-4.1839,-4.2016,-4.2223,-4.2421,-4.2511,-4.2649,-4.2896,-4.2974,-4.2941,-4.3116,-4.3312,-4.3473,-4.3279,-4.3473,-4.3526,-4.3493,-4.348,-4.3756,-4.4014,-4.4332,-4.4674,-4.5178,-4.5671,-4.5921,-4.6289,-4.6411,-4.6644,-4.6722,-4.6796,-4.6872,-4.6984,-4.7021,-4.7021,-4.7021,-4.7096,-4.7274,-4.7494,-4.7848,-4.8225,-4.8547,-4.8751,-4.8987,-4.9223,-4.9278,-4.9293,-4.9398,-4.9505,-4.9574,-4.9852,-4.9897,-4.9596,-4.9596,-4.9611,-4.9967,-4.9931,-4.9927,-4.9762,-4.9849,-4.9932,-4.9948,-4.9961,-5.0,-5.0,-4.9996,-4.9991,-4.9936,-4.9966,-4.9986,-4.9926,-4.9939,-4.9909,-5.0053,-5.0499,-5.1011,-5.1562,-5.2584,-5.357,-5.3917,-5.4246,-5.5283,-5.6428,-5.731,-5.7666,-5.7623,-5.823,-5.9287,-5.9134,-5.871,-5.9531,-5.9439,-5.9346,-5.9232,-5.9139,-5.9157,-5.9215,-5.9307,-5.9307,-5.9289,-5.9252,-5.938,-5.9629,-5.9643,-5.9629,-3.6605,-3.6944,-3.7579,-3.8285,-3.9072,-3.9841,-4.0802,-4.172,-4.193,-4.2106,-4.2281,-4.2421,-4.2536,-4.2673,-4.3039,-4.3291,-4.3312,-4.3599,-4.3599,-4.3704,-4.3637,-4.3929,-4.4014,-4.398,-4.4031,-4.4133,-4.4216,-4.4133,-4.4314,-4.4299,-4.4495,-4.4865,-4.5213,-4.5618,-4.6131,-4.6451,-4.6566,-4.6566,-4.6683,-4.6834,-4.687,-4.6946,-4.6984,-4.7021,-4.7021,-4.7021,-4.7058,-4.7097,-4.7331,-4.7699,-4.7939,-4.8261,-4.8472,-4.8797,-4.9069,-4.9204,-4.9278,-4.9402,-4.9489,-5.0235,-5.0519,-5.1174,-5.1528,-5.1566,-5.1281,-5.1222,-5.1267,-5.1515,-5.186,-5.1844,-5.1356,-5.1508,-5.1002,-5.0973,-5.0794,-5.0722,-5.0341,-5.0295,-5.0547,-5.0683,-5.0214,-5.0203,-5.1582,-5.2598,-5.2591,-5.2901,-5.4028,-5.503,-5.5465,-5.5655,-5.6092,-5.7224,-5.7827,-5.8634,-5.9087,-5.8851,-5.9252,-5.9562,-5.9606,-5.9684,-5.9643,-5.9592,-5.9494,-5.9441,-5.9517,-5.957,-5.9517,-5.9479,-5.9643,-5.9657,-5.9547,-5.9615,-5.9695,-5.9695,-5.9808,-3.7335,-3.7478,-3.8413,-3.9304,-4.0102,-4.039,-4.1267,-4.2511,-4.2625,-4.2961,-4.3485,-4.3645,-4.3856,-4.4063,-4.403,-4.4216,-4.4334,-4.43,-4.4384,-4.4384,-4.4233,-4.4099,-4.4249,-4.4431,-4.4577,-4.4363,-4.4544,-4.4688,-4.4654,-4.483,-4.5132,-4.5485,-4.5618,-4.5913,-4.6411,-4.657,-4.6644,-4.6644,-4.6644,-4.6757,-4.6834,-4.6872,-4.6984,-4.7021,-4.7021,-4.7021,-4.7058,-4.706,-4.7202,-4.7541,-4.7815,-4.7999,-4.8288,-4.8596,-4.897,-4.9185,-4.9297,-4.9351,-4.9535,-5.109,-5.2383,-5.3414,-5.3281,-5.3637,-5.4176,-5.4187,-5.3857,-5.2953,-5.3792,-5.4203,-5.4492,-5.4432,-5.349,-5.2944,-5.263,-5.2304,-5.1594,-5.1215,-5.1967,-5.2413,-5.1495,-5.1294,-5.3551,-5.4867,-5.4678,-5.5316,-5.6498,-5.716,-5.7471,-5.7852,-5.8407,-5.9039,-5.9039,-5.9531,-5.9519,-5.9682,-5.9682,-5.967,-5.9696,-5.9722,-5.9697,-5.9671,-5.9657,-5.9657,-5.9643,-5.9615,-5.9643,-5.9671,-5.9657,-5.9657,-5.9657,-5.9746,-5.9733,-5.9808,-6.0223,-3.8245,-3.8483,-3.8828,-3.9776,-4.0989,-4.1206,-4.2048,-4.3105,-4.3356,-4.3625,-4.3837,-4.3993,-4.4097,-4.4199,-4.4401,-4.46,-4.4713,-4.4906,-4.5001,-4.5014,-4.5061,-4.5155,-4.5247,-4.5293,-4.5259,-4.543,-4.5485,-4.5539,-4.5618,-4.5706,-4.5836,-4.5963,-4.6089,-4.6131,-4.6335,-4.6376,-4.6451,-4.6491,-4.657,-4.6683,-4.6834,-4.691,-4.7021,-4.7021,-4.7021,-4.7021,-4.7058,-4.7097,-4.7168,-4.7545,-4.7869,-4.7924,-4.813,-4.842,-4.9008,-4.9185,-4.9259,-4.937,-5.01,-5.1655,-5.3716,-5.4429,-5.456,-5.5046,-5.5044,-5.4832,-5.4752,-5.4187,-5.4489,-5.4621,-5.4559,-5.5099,-5.471,-5.4508,-5.421,-5.3832,-5.3058,-5.2579,-5.3304,-5.4209,-5.5376,-5.5818,-5.7132,-5.6824,-5.697,-5.7793,-5.8469,-5.8563,-5.8783,-5.9162,-5.9857,-5.9857,-5.9857,-5.9849,-5.984,-5.9783,-5.9697,-5.9725,-5.9753,-5.978,-5.9757,-5.9696,-5.9684,-5.9672,-5.9697,-5.9671,-5.9671,-5.9684,-5.9684,-5.9708,-5.9784,-5.9911,-6.0062,-6.0766,-6.1016,-3.876,-3.8965,-3.9304,-4.0167,-4.1479,-4.166,-4.2511,-4.3572,-4.3765,-4.3889,-4.3993,-4.4199,-4.4368,-4.4567,-4.4796,-4.481,-4.5001,-4.5419,-4.5509,-4.5633,-4.5766,-4.5897,-4.5897,-4.594,-4.6026,-4.5991,-4.6041,-4.6201,-4.6284,-4.6124,-4.6254,-4.6376,-4.6371,-4.6335,-4.6411,-4.6451,-4.6566,-4.6644,-4.6722,-4.6834,-4.6946,-4.7021,-4.7021,-4.7021,-4.7021,-4.7021,-4.7131,-4.7169,-4.7634,-4.823,-4.8891,-4.9711,-5.0422,-5.0804,-5.0482,-4.9409,-5.0925,-5.1374,-5.203,-5.3584,-5.5064,-5.5271,-5.5891,-5.6623,-5.7316,-5.6883,-5.6056,-5.581,-5.6327,-5.6954,-5.6562,-5.6507,-5.6121,-5.5889,-5.5609,-5.5289,-5.4759,-5.4266,-5.4664,-5.5808,-5.7471,-5.8865,-5.8781,-5.8588,-5.9262,-5.9853,-5.9866,-5.9813,-5.9676,-5.9828,-5.9866,-5.9866,-5.9872,-5.9866,-5.9866,-5.9806,-5.9752,-5.9773,-5.984,-5.9821,-5.9811,-5.9753,-5.9742,-5.967,-5.9684,-5.9659,-5.9697,-5.971,-5.9847,-6.006,-6.0136,-6.0327,-6.1006,-6.1786,-6.2413,-3.9101,-3.9169,-3.977,-4.0645,-4.166,-4.1925,-4.2761,-4.3923,-4.3941,-4.4079,-4.4199,-4.4452,-4.4762,-4.5096,-4.5189,-4.5373,-4.5633,-4.5963,-4.6041,-4.6076,-4.616,-4.6243,-4.6243,-4.6243,-4.6284,-4.6295,-4.6335,-4.6376,-4.6416,-4.6573,-4.6689,-4.6841,-4.673,-4.6573,-4.657,-4.6725,-4.6877,-4.6875,-4.695,-4.7059,-4.7021,-4.7057,-4.7058,-4.7095,-4.7202,-4.7274,-4.7347,-4.8063,-4.8912,-5.0258,-5.0673,-5.1426,-5.3439,-5.3457,-5.2085,-5.1258,-5.2347,-5.3714,-5.4612,-5.5939,-5.6725,-5.7291,-5.7915,-5.865,-5.8726,-5.9139,-5.9327,-5.8763,-5.8326,-5.8791,-5.9086,-5.9359,-5.8308,-5.7795,-5.7291,-5.698,-5.662,-5.615,-5.6466,-5.7517,-5.8428,-5.9257,-5.9405,-5.9293,-5.9782,-5.9848,-5.9869,-5.9858,-5.9864,-5.9853,-5.9858,-5.9858,-5.9864,-5.9864,-5.9864,-5.9853,-5.9796,-5.9821,-5.9851,-5.9836,-5.9857,-5.984,-5.983,-5.9773,-5.9742,-5.9696,-5.9747,-6.0904,-6.1504,-6.0966,-6.0957,-6.1634,-6.2355,-6.2922,-6.3702,-3.9274,-3.977,-4.0425,-4.1173,-4.1893,-4.2471,-4.3203,-4.3941,-4.425,-4.4401,-4.4501,-4.4699,-4.4892,-4.5083,-4.5395,-4.5706,-4.5758,-4.638,-4.6573,-4.6573,-4.657,-4.657,-4.6605,-4.6609,-4.6577,-4.6541,-4.6689,-4.688,-4.7062,-4.7169,-4.7133,-4.7133,-4.7168,-4.7062,-4.6878,-4.7062,-4.7204,-4.7169,-4.7205,-4.7169,-4.7096,-4.7095,-4.7205,-4.7742,-4.8459,-4.932,-4.9693,-5.055,-5.1339,-5.2251,-5.2522,-5.4216,-5.648,-5.5644,-5.3889,-5.3707,-5.3561,-5.5282,-5.7002,-5.7803,-5.8364,-5.8611,-5.9044,-5.9184,-5.9247,-5.9307,-5.9346,-5.9384,-5.942,-5.9475,-5.9513,-5.9531,-5.9199,-5.8982,-5.8785,-5.8713,-5.8562,-5.8287,-5.8513,-5.8857,-5.9103,-5.9833,-5.9872,-5.9872,-5.9871,-5.9867,-5.986,-5.9855,-5.9848,-5.9869,-5.9869,-5.9869,-5.9869,-5.9869,-5.9869,-5.9869,-5.9869,-5.9858,-5.9858,-5.9853,-5.9841,-5.9866,-5.9844,-5.9857,-5.984,-6.0161,-6.1022,-6.2367,-6.3561,-6.3579,-6.3617,-6.3693,-6.3839,-6.4107,-6.4876,-4.0071,-4.0423,-4.1266,-4.1893,-4.2446,-4.3017,-4.3539,-4.4045,-4.4351,-4.4517,-4.4567,-4.4892,-4.5083,-4.5235,-4.5749,-4.6096,-4.6305,-4.688,-4.7098,-4.7026,-4.7133,-4.7097,-4.7025,-4.7025,-4.699,-4.699,-4.7098,-4.7341,-4.7675,-4.7743,-4.7614,-4.7548,-4.7578,-4.7445,-4.724,-4.7476,-4.7443,-4.7411,-4.7375,-4.7479,-4.7484,-4.7522,-4.7876,-4.8687,-4.9592,-5.0509,-5.1341,-5.2605,-5.3253,-5.4213,-5.4524,-5.6202,-5.7627,-5.7444,-5.627,-5.6195,-5.5635,-5.642,-5.8528,-5.8939,-5.9,-5.906,-5.9082,-5.9082,-5.9168,-5.9267,-5.9327,-5.9384,-5.9421,-5.9477,-5.9515,-5.9515,-5.9493,-5.9468,-5.9291,-5.9237,-5.9344,-5.9639,-5.9697,-5.9745,-5.982,-5.9844,-5.9858,-5.9858,-5.9863,-5.987,-5.9872,-5.9871,-5.9868,-5.9858,-5.9851,-5.9844,-5.9873,-5.9873,-5.9873,-5.9873,-5.9869,-5.9869,-5.9869,-5.9869,-5.9869,-5.9901,-5.9841,-5.9859,-6.0837,-6.1709,-6.2323,-6.3695,-6.5363,-6.597,-6.6425,-6.675,-6.6989,-6.7025,-6.6841,-4.1081,-4.1142,-4.2074,-4.2738,-4.3039,-4.3485,-4.3837,-4.4199,-4.4501,-4.46,-4.4699,-4.513,-4.5316,-4.5464,-4.6083,-4.6573,-4.6953,-4.7377,-4.7578,-4.7509,-4.7647,-4.7614,-4.7512,-4.7512,-4.7476,-4.7443,-4.7476,-4.7894,-4.8232,-4.7894,-4.777,-4.7961,-4.79,-4.7743,-4.7679,-4.7894,-4.7598,-4.7538,-4.7734,-4.7924,-4.7991,-4.7967,-4.8684,-4.9579,-5.0304,-5.0967,-5.2099,-5.2966,-5.3797,-5.5135,-5.5681,-5.6722,-5.8014,-5.8482,-5.8528,-5.8102,-5.7467,-5.7018,-5.8252,-5.8514,-5.8551,-5.9044,-5.9104,-5.9147,-5.9168,-5.9267,-5.9307,-5.9459,-5.9515,-5.9515,-5.9515,-5.9515,-5.9513,-5.951,-5.9489,-5.9554,-5.96,-5.9608,-5.9644,-5.9697,-5.9744,-5.979,-5.9847,-5.9853,-5.9864,-5.9848,-5.986,-5.9863,-5.9868,-5.9872,-5.987,-5.9858,-5.9848,-5.9878,-5.9873,-5.9873,-5.9869,-5.9873,-5.9869,-5.9869,-6.0134,-6.0362,-6.02,-6.0871,-6.2609,-6.3671,-6.455,-6.57,-6.7039,-6.7754,-6.7938,-6.8722,-6.9617,-6.9601,-6.9082,-4.1479,-4.1632,-4.277,-4.3389,-4.3518,-4.4045,-4.4318,-4.4551,-4.494,-4.5096,-4.5142,-4.5453,-4.5578,-4.5722,-4.6041,-4.6577,-4.7202,-4.7796,-4.7984,-4.7984,-4.8027,-4.7967,-4.79,-4.79,-4.7936,-4.79,-4.79,-4.8138,-4.8489,-4.8335,-4.8307,-4.8344,-4.8468,-4.8362,-4.8138,-4.8362,-4.8442,-4.8325,-4.8298,-4.8298,-4.8243,-4.8138,-4.8329,-4.8739,-5.0118,-5.1112,-5.2026,-5.3015,-5.3945,-5.4281,-5.4564,-5.4672,-5.4956,-5.5121,-5.5223,-5.5186,-5.4924,-5.5597,-5.6644,-5.713,-5.7803,-5.8723,-5.9,-5.9082,-5.9126,-5.9206,-5.921,-5.9327,-5.9402,-5.9515,-5.9515,-5.9515,-5.9495,-5.9513,-5.9513,-5.9513,-5.9527,-5.957,-5.9582,-5.9634,-5.9644,-5.9725,-5.983,-5.9849,-5.9813,-5.9809,-5.9869,-5.9873,-5.9844,-5.986,-5.9871,-5.9868,-5.9858,-5.9848,-5.9873,-5.9873,-5.9873,-5.9949,-6.0025,-6.0139,-6.048,-6.1087,-6.1196,-6.1489,-6.35,-6.5966,-6.6958,-6.8031,-6.8524,-6.8942,-6.9359,-6.9613,-6.9708,-6.9807,-6.9837,-4.2133,-4.2249,-4.3378,-4.3923,-4.4079,-4.4401,-4.46,-4.4713,-4.513,-4.5235,-4.5362,-4.5544,-4.5668,-4.581,-4.6172,-4.6882,-4.7603,-4.8195,-4.8344,-4.8344,-4.8362,-4.8297,-4.8297,-4.8297,-4.8297,-4.8297,-4.8297,-4.8408,-4.8605,-4.8594,-4.8531,-4.8557,-4.8658,-4.8658,-4.8594,-4.8768,-4.8707,-4.8508,-4.8571,-4.8596,-4.8405,-4.8494,-4.9047,-4.9693,-5.0717,-5.1582,-5.2387,-5.3562,-5.3785,-5.3822,-5.3955,-5.3107,-5.2182,-5.1909,-5.2531,-5.384,-5.3541,-5.3728,-5.5111,-5.627,-5.6794,-5.7841,-5.87,-5.9,-5.9119,-5.9141,-5.9243,-5.9325,-5.9384,-5.9515,-5.9477,-5.9515,-5.9515,-5.9515,-5.9515,-5.9515,-5.9495,-5.9489,-5.9554,-5.9562,-5.9582,-5.9659,-5.976,-5.9828,-5.9792,-5.9819,-5.9851,-5.9866,-5.9841,-5.9873,-5.9858,-5.9871,-5.987,-5.986,-5.984,-5.9873,-5.9873,-6.0139,-6.0329,-6.0518,-6.1012,-6.2529,-6.2866,-6.3321,-6.537,-6.8101,-6.8942,-6.8942,-6.9429,-6.9923,-6.9847,-6.9809,-6.9873,-6.9897,-6.9897,-4.2761,-4.2873,-4.3804,-4.4301,-4.4501,-4.465,-4.4796,-4.4954,-4.527,-4.5362,-4.5362,-4.5578,-4.5757,-4.6026,-4.6573,-4.7307,-4.7924,-4.8344,-4.8552,-4.8552,-4.8526,-4.8563,-4.8526,-4.8499,-4.8589,-4.8615,-4.8579,-4.8579,-4.8631,-4.8594,-4.8645,-4.8633,-4.8707,-4.8778,-4.8792,-4.8862,-4.8816,-4.8621,-4.8792,-4.8792,-4.8682,-4.8805,-4.9382,-5.0272,-5.0458,-5.1224,-5.2423,-5.2882,-5.3043,-5.3066,-5.3159,-5.1654,-5.0035,-4.9462,-5.0717,-5.212,-5.1896,-5.2045,-5.3541,-5.4887,-5.5656,-5.6495,-5.7579,-5.8476,-5.8686,-5.8954,-5.9184,-5.9305,-5.9402,-5.9496,-5.9421,-5.9477,-5.9477,-5.9515,-5.9515,-5.9515,-5.9495,-5.9493,-5.9506,-5.9522,-5.9501,-5.9547,-5.9684,-5.9757,-5.9811,-5.984,-5.9857,-5.9874,-5.9844,-5.9872,-6.002,-6.0085,-6.0022,-6.0096,-6.0075,-6.0185,-6.0329,-6.0708,-6.1467,-6.169,-6.3781,-6.4692,-6.5673,-6.6887,-6.8708,-6.9581,-6.9657,-6.9771,-6.9998,-6.9998,-6.9998,-6.9998,-6.9955,-6.9948,-6.9948,-4.2761,-4.2873,-4.3978,-4.4501,-4.46,-4.4988,-4.5177,-4.527,-4.5499,-4.5589,-4.5633,-4.5668,-4.594,-4.633,-4.6728,-4.7238,-4.7863,-4.8325,-4.8579,-4.8579,-4.8579,-4.8579,-4.8579,-4.8615,-4.8642,-4.8744,-4.8744,-4.8707,-4.8707,-4.8732,-4.8719,-4.8731,-4.8755,-4.8839,-4.8922,-4.9005,-4.8922,-4.8839,-4.8922,-4.8922,-4.8899,-4.896,-4.9116,-4.9562,-4.9539,-4.9859,-5.0082,-5.018,-4.9957,-4.9771,-4.9843,-4.9513,-4.9065,-4.9106,-4.9631,-4.9839,-5.0064,-5.0587,-5.1896,-5.2569,-5.3354,-5.4588,-5.6046,-5.689,-5.7435,-5.8168,-5.881,-5.9114,-5.94,-5.942,-5.9364,-5.9402,-5.9477,-5.9515,-5.9515,-5.9515,-5.9515,-5.9477,-5.9513,-5.9513,-5.9489,-5.9554,-5.9657,-5.9722,-5.9818,-5.9859,-5.9868,-5.984,-5.984,-5.9941,-6.0472,-6.0665,-6.0955,-6.1084,-6.1119,-6.1186,-6.1286,-6.1889,-6.3093,-6.5033,-6.7765,-6.7614,-6.7386,-6.9353,-6.9998,-6.9923,-6.9923,-6.9998,-6.9998,-6.9998,-6.9998,-6.9998,-6.9998,-6.9998,-6.9998,-4.3039,-4.3473,-4.4216,-4.4665,-4.494,-4.5142,-4.5362,-4.5533,-4.5623,-4.5668,-4.5713,-4.5757,-4.6033,-4.6491,-4.688,-4.7341,-4.7863,-4.8353,-4.8579,-4.8579,-4.8579,-4.8579,-4.8605,-4.8605,-4.8605,-4.8645,-4.8744,-4.8732,-4.8756,-4.8781,-4.8916,-4.8755,-4.8862,-4.9034,-4.9005,-4.9005,-4.9005,-4.9005,-4.9005,-4.9005,-4.9005,-4.9005,-4.9005,-4.9005,-4.9005,-4.9005,-4.9005,-4.899,-4.899,-4.9049,-4.9177,-4.9126,-4.9028,-4.9126,-4.9165,-4.9185,-4.9204,-4.969,-5.04,-5.1185,-5.2008,-5.2868,-5.4401,-5.5544,-5.6687,-5.6986,-5.7869,-5.8847,-5.9322,-5.94,-5.9384,-5.9421,-5.9477,-5.9515,-5.9515,-5.9515,-5.9515,-5.9515,-5.9515,-5.9495,-5.9513,-5.9576,-5.9615,-5.9671,-5.981,-6.0255,-6.0265,-6.1259,-6.1184,-6.1648,-6.1882,-6.1958,-6.2145,-6.2287,-6.2302,-6.2562,-6.2815,-6.406,-6.519,-6.7424,-6.9473,-6.9283,-6.8979,-6.9435,-6.9998,-6.9998,-6.9998,-6.9998,-6.9998,-6.9998,-6.9998,-6.9998,-6.9998,-6.9998,-6.9998,-4.3258,-4.3823,-4.4468,-4.494,-4.527,-4.5328,-4.5499,-4.5668,-4.5668,-4.5713,-4.5757,-4.5897,-4.6243,-4.6689,-4.7132,-4.757,-4.805,-4.8417,-4.8579,-4.8579,-4.8579,-4.8715,-4.9173,-4.9258,-4.9431,-4.9952,-4.9804,-4.9866,-5.0027,-5.0261,-4.9766,-4.9544,-4.9628,-4.9376,-4.9079,-4.9005,-4.9005,-4.9005,-4.9005,-4.9005,-4.9005,-4.9005,-4.9005,-4.9005,-4.9005,-4.9005,-4.9027,-4.899,-4.899,-4.9034,-4.9065,-4.9089,-4.9032,-4.9146,-4.9165,-4.9185,-4.9204,-4.9204,-4.9428,-5.0363,-5.1185,-5.1297,-5.2718,-5.4363,-5.5784,-5.5934,-5.7002,-5.858,-5.9206,-5.9267,-5.9384,-5.9459,-5.9515,-5.9515,-5.9515,-5.9515,-5.9515,-5.9515,-5.9515,-5.9515,-5.9495,-5.9548,-5.969,-5.9893,-6.0439,-6.0601,-6.1466,-6.2612,-6.3256,-6.3786,-6.3864,-6.3793,-6.4057,-6.4313,-6.4572,-6.5149,-6.5904,-6.7186,-6.7585,-6.8979,-6.9624,-6.9657,-6.9549,-6.9733,-6.9998,-6.9998,-6.9998,-6.9998,-6.9998,-6.9998,-6.9998,-6.9998,-6.9998,-6.9998,-6.9998,-4.3192,-4.33,-4.4679,-4.5223,-4.5316,-4.5499,-4.5668,-4.5668,-4.5713,-4.5757,-4.5888,-4.6278,-4.6651,-4.7202,-4.7509,-4.7984,-4.8499,-4.8563,-4.8579,-4.8579,-4.8689,-4.9527,-5.0628,-5.0824,-5.1494,-5.2559,-5.3228,-5.3018,-5.2758,-5.2968,-5.2412,-5.1372,-5.1062,-5.0394,-4.9785,-4.9191,-4.9042,-4.9191,-4.9116,-4.9005,-4.9005,-4.9005,-4.9005,-4.9005,-4.9005,-4.899,-4.8997,-4.9003,-4.9003,-4.8997,-4.9024,-4.9069,-4.9128,-4.9146,-4.9203,-4.9185,-4.9204,-4.9204,-4.9259,-4.9409,-4.9578,-4.982,-5.1148,-5.2681,-5.4176,-5.5261,-5.6495,-5.8611,-5.9066,-5.9206,-5.9325,-5.944,-5.9459,-5.9515,-5.9515,-5.9515,-5.9515,-5.9515,-5.9515,-5.9515,-5.9515,-5.9551,-5.9975,-6.0761,-6.181,-6.1901,-6.3262,-6.4157,-6.4699,-6.5468,-6.5819,-6.5833,-6.6106,-6.637,-6.6944,-6.7573,-6.8528,-6.9241,-6.9115,-6.9217,-6.9857,-6.9998,-6.9998,-6.9998,-6.9998,-6.9998,-6.9998,-6.9998,-6.9998,-6.9998,-6.9998,-6.9998,-6.9998,-6.9998,-7.0416,-4.3618,-4.4483,-4.5049,-4.5362,-4.5499,-4.5633,-4.5668,-4.5678,-4.5792,-4.5836,-4.594,-4.6371,-4.6843,-4.7271,-4.7739,-4.8211,-4.8552,-4.8579,-4.8615,-4.8615,-4.8689,-5.0117,-5.1951,-5.2486,-5.2873,-5.3719,-5.3697,-5.3859,-5.3921,-5.3847,-5.3513,-5.2882,-5.277,-5.2473,-5.1582,-5.0951,-5.038,-5.0171,-4.9414,-4.9005,-4.9005,-4.9005,-4.9005,-4.9005,-4.9005,-4.9005,-4.9012,-4.9003,-4.9028,-4.9069,-4.9089,-4.9109,-4.9185,-4.9165,-4.9165,-4.9185,-4.9204,-4.9204,-4.9204,-4.9204,-4.9204,-4.9334,-4.9671,-5.1073,-5.2643,-5.4102,-5.5597,-5.7579,-5.8595,-5.9072,-5.9285,-5.9345,-5.9402,-5.9477,-5.9515,-5.9515,-5.9515,-5.9515,-5.9515,-5.9515,-5.9515,-5.9513,-5.9694,-6.1084,-6.2284,-6.3539,-6.4913,-6.5698,-6.6195,-6.7125,-6.7811,-6.8091,-6.8415,-6.8258,-6.8577,-6.8719,-6.9423,-6.9628,-6.958,-6.9609,-6.9943,-6.9998,-6.9998,-6.9998,-6.9998,-6.9998,-6.9998,-6.9998,-6.9998,-6.9998,-6.9998,-6.9998,-6.9998,-6.9998,-7.0719,-4.4014,-4.5108,-4.5316,-4.5533,-4.5668,-4.5668,-4.5668,-4.5678,-4.5836,-4.5923,-4.6068,-4.6538,-4.7026,-4.7339,-4.79,-4.8297,-4.871,-4.9058,-4.9179,-4.9242,-4.9611,-5.1371,-5.3067,-5.3889,-5.449,-5.509,-5.5329,-5.5021,-5.511,-5.537,-5.4998,-5.449,-5.4441,-5.4256,-5.3736,-5.2547,-5.2028,-5.1768,-5.0431,-4.9674,-4.9637,-4.9302,-4.9005,-4.9005,-4.899,-4.899,-4.9005,-4.9003,-4.9069,-4.9185,-4.9204,-4.9204,-4.9185,-4.9185,-4.9185,-4.9204,-4.9204,-4.9204,-4.9204,-4.9204,-4.9204,-4.9204,-4.9297,-5.0082,-5.212,-5.3541,-5.5111,-5.7077,-5.8243,-5.9168,-5.9285,-5.9345,-5.9402,-5.9477,-5.9515,-5.9515,-5.9515,-5.9515,-5.9515,-5.9571,-5.9928,-5.9891,-6.0341,-6.1731,-6.3892,-6.4978,-6.6406,-6.7706,-6.7971,-6.8628,-6.8845,-6.9528,-6.9655,-6.9724,-6.9773,-6.9761,-6.9814,-6.9892,-6.9895,-6.9855,-6.9919,-6.9976,-7.0004,-6.9998,-6.9998,-6.9998,-6.9998,-6.9998,-6.9998,-6.9998,-6.9998,-6.9998,-6.9998,-7.0036,-7.0719,-4.4133,-4.479,-4.5408,-4.5633,-4.5668,-4.5668,-4.5668,-4.5713,-4.5801,-4.5975,-4.6207,-4.688,-4.7343,-4.7647,-4.8431,-4.8894,-4.8947,-5.02,-5.0836,-5.1343,-5.2477,-5.3353,-5.412,-5.535,-5.6609,-5.7767,-5.8016,-5.8118,-5.7858,-5.7895,-5.7672,-5.6198,-5.6012,-5.5418,-5.4478,-5.3847,-5.3699,-5.3476,-5.2028,-5.1136,-5.0988,-4.9859,-4.9079,-4.9005,-4.9012,-4.9012,-4.9012,-4.9082,-4.9183,-4.9185,-4.9204,-4.9204,-4.9204,-4.9204,-4.9204,-4.9204,-4.9204,-4.9204,-4.9204,-4.9204,-4.9204,-4.9204,-4.9316,-5.0512,-5.3055,-5.3952,-5.5373,-5.799,-5.8901,-5.9247,-5.9305,-5.9364,-5.9421,-5.9477,-5.9515,-5.9515,-5.9515,-5.9627,-5.9647,-5.9778,-6.068,-6.13,-6.0736,-6.3913,-6.5664,-6.668,-6.7829,-6.8842,-6.9301,-6.9294,-6.968,-6.9743,-6.9692,-6.974,-6.9729,-6.9735,-6.9807,-6.9867,-6.984,-6.9854,-6.9893,-6.9954,-7.0014,-7.0004,-6.9998,-6.9998,-6.9998,-6.9998,-6.9998,-6.9998,-6.9998,-6.9998,-6.9998,-6.9998,-7.0643,-4.4742,-4.5328,-4.5589,-4.5668,-4.5668,-4.5668,-4.5668,-4.5713,-4.5897,-4.6153,-4.6526,-4.7098,-4.8015,-4.9211,-4.9822,-5.0615,-5.1675,-5.2228,-5.3075,-5.4152,-5.5655,-5.6423,-5.663,-5.7184,-5.7901,-5.8461,-5.8685,-5.8712,-5.8712,-5.8712,-5.8415,-5.7858,-5.7746,-5.7375,-5.6929,-5.5927,-5.5307,-5.511,-5.3736,-5.2399,-5.1433,-5.0728,-4.9971,-4.9154,-4.9027,-4.9012,-4.8981,-4.9123,-4.9183,-4.9185,-4.9204,-4.9204,-4.9204,-4.9204,-4.9204,-4.9204,-4.9204,-4.9204,-4.9204,-4.9204,-4.9204,-4.9204,-4.9204,-5.0325,-5.2232,-5.3765,-5.5036,-5.7242,-5.8521,-5.92,-5.9285,-5.9345,-5.9384,-5.9477,-5.9515,-5.9515,-5.9703,-6.068,-6.0925,-6.0455,-6.1864,-6.3969,-6.4908,-6.7092,-6.6941,-6.8128,-6.89,-6.9487,-6.9506,-6.9561,-6.9559,-6.9533,-6.9625,-6.9667,-6.9691,-6.9755,-6.9793,-6.9829,-6.979,-6.9799,-6.9857,-6.9927,-7.0018,-7.0014,-6.9998,-6.9998,-6.9998,-6.9998,-6.9998,-6.9998,-6.9998,-6.9998,-6.9998,-6.9998,-7.1104,-4.5108,-4.5633,-4.5668,-4.5668,-4.5668,-4.5668,-4.5713,-4.5757,-4.594,-4.6606,-4.7439,-4.7994,-4.9272,-5.0901,-5.1532,-5.2338,-5.3518,-5.4557,-5.5508,-5.654,-5.7677,-5.8181,-5.8278,-5.8285,-5.8382,-5.8572,-5.8685,-5.8712,-5.8712,-5.8712,-5.8712,-5.8712,-5.8675,-5.8712,-5.8526,-5.7598,-5.694,-5.6818,-5.5344,-5.407,-5.2956,-5.1842,-5.0839,-4.9785,-4.9213,-4.9273,-4.9769,-4.9422,-4.9183,-4.9185,-4.9204,-4.9204,-4.9204,-4.9204,-4.9204,-4.9204,-4.9204,-4.9204,-4.9204,-4.9204,-4.9204,-4.9278,-4.9745,-5.0754,-5.2382,-5.4064,-5.5709,-5.7317,-5.8349,-5.9141,-5.9264,-5.9267,-5.9307,-5.9365,-5.9459,-5.9515,-5.9627,-6.0718,-6.1319,-6.1244,-6.3405,-6.6169,-6.8258,-6.8483,-6.822,-6.9126,-6.9314,-6.9447,-6.9467,-6.9524,-6.9468,-6.9468,-6.9521,-6.9619,-6.9663,-6.9743,-6.9755,-6.9805,-6.9736,-6.9727,-6.9813,-6.9931,-6.9957,-7.0018,-7.0009,-6.9998,-6.9998,-6.9998,-6.9998,-6.9998,-6.9998,-6.9998,-6.9998,-7.0757,-7.1901,-4.5223,-4.5668,-4.5668,-4.5668,-4.5668,-4.5668,-4.5757,-4.5923,-4.6131,-4.7364,-4.8915,-4.9685,-5.1078,-5.2687,-5.329,-5.3518,-5.4328,-5.6509,-5.7793,-5.807,-5.8315,-5.8478,-5.8498,-5.8592,-5.862,-5.8712,-5.8675,-5.8712,-5.8712,-5.8712,-5.8712,-5.8712,-5.8712,-5.8712,-5.8712,-5.8563,-5.8563,-5.8192,-5.6967,-5.6049,-5.5752,-5.3203,-5.1643,-5.1197,-5.0076,-5.0083,-5.1475,-5.0114,-4.9372,-4.9241,-4.9223,-4.9204,-4.9185,-4.9185,-4.9185,-4.9204,-4.9185,-4.9166,-4.9166,-4.9335,-4.9484,-4.9652,-5.0774,-5.2382,-5.3989,-5.5506,-5.6981,-5.8401,-5.9007,-5.9163,-5.9247,-5.9288,-5.927,-5.9289,-5.9402,-5.9477,-5.9515,-5.959,-6.068,-6.3443,-6.5643,-6.7447,-6.8839,-6.9139,-6.9143,-6.9429,-6.9449,-6.943,-6.9523,-6.9523,-6.9538,-6.9571,-6.9571,-6.9587,-6.9649,-6.9704,-6.9739,-6.9776,-6.9676,-6.97,-6.9802,-6.9894,-6.9968,-7.0014,-6.9998,-6.9998,-6.9998,-6.9998,-6.9998,-6.9998,-6.9998,-6.9998,-6.9998,-7.0302,-7.1863,-4.5533,-4.5668,-4.5668,-4.5668,-4.5668,-4.5782,-4.5826,-4.6036,-4.7499,-4.8691,-4.9793,-5.1267,-5.2983,-5.4662,-5.4975,-5.5552,-5.6694,-5.7677,-5.8261,-5.8328,-5.8419,-5.8507,-5.8498,-5.8535,-5.8629,-5.8675,-5.8583,-5.862,-5.8675,-5.8712,-5.8712,-5.8712,-5.8712,-5.8712,-5.8712,-5.8712,-5.8712,-5.8665,-5.8182,-5.7316,-5.6301,-5.5272,-5.429,-5.3271,-5.2773,-5.2364,-5.1697,-5.135,-5.0702,-4.9615,-4.9446,-4.9446,-4.9424,-4.9446,-4.9439,-4.9436,-4.9436,-4.9394,-4.9414,-5.0357,-5.098,-5.1018,-5.2457,-5.4102,-5.556,-5.6233,-5.7354,-5.8626,-5.9074,-5.9082,-5.9147,-5.9247,-5.925,-5.9289,-5.9402,-5.9515,-5.9552,-6.0455,-6.1695,-6.3575,-6.6432,-6.8425,-6.9252,-6.9365,-6.9424,-6.9444,-6.9427,-6.939,-6.9467,-6.9467,-6.9449,-6.9486,-6.9576,-6.9571,-6.9609,-6.9701,-6.9753,-6.978,-6.9735,-6.9738,-6.9795,-6.9884,-6.9971,-6.9985,-6.9998,-6.9998,-6.9998,-6.9998,-6.9998,-6.9998,-6.9998,-6.9998,-6.9998,-6.9998,-7.1635,-4.5668,-4.5668,-4.5668,-4.5713,-4.5792,-4.5826,-4.6359,-4.7198,-4.8568,-5.0075,-5.1776,-5.3106,-5.4792,-5.6589,-5.6589,-5.7209,-5.8125,-5.8298,-5.8322,-5.8382,-5.8478,-5.8535,-5.8592,-5.8564,-5.8592,-5.8675,-5.862,-5.862,-5.8712,-5.8744,-5.8796,-5.8759,-5.8834,-5.8944,-5.8907,-5.893,-5.893,-5.8893,-5.8845,-5.836,-5.7451,-5.6732,-5.6338,-5.5965,-5.5588,-5.4488,-5.281,-5.2307,-5.1313,-4.9677,-4.959,-4.9602,-4.9616,-4.9579,-4.9591,-4.964,-5.0142,-5.0458,-5.057,-5.1936,-5.2832,-5.2886,-5.435,-5.574,-5.6623,-5.7297,-5.7969,-5.8847,-5.9119,-5.9147,-5.9195,-5.9308,-5.9365,-5.9346,-5.9421,-5.9759,-6.0567,-6.1357,-6.2786,-6.5041,-6.7393,-6.9386,-6.9386,-6.9402,-6.9402,-6.9402,-6.9402,-6.9402,-6.9402,-6.9402,-6.9407,-6.9429,-6.9468,-6.9559,-6.9636,-6.9747,-6.9742,-6.9781,-6.9762,-6.9769,-6.9786,-6.9884,-6.9971,-6.9985,-7.0004,-6.9998,-6.9998,-6.9998,-6.9998,-6.9998,-6.9998,-6.9998,-6.9998,-6.9998,-7.137,-4.5668,-4.5668,-4.5668,-4.5792,-4.5923,-4.5932,-4.7128,-4.9051,-4.9379,-5.156,-5.4706,-5.5283,-5.6365,-5.7988,-5.7951,-5.8125,-5.8291,-5.8291,-5.8382,-5.8498,-5.8527,-5.8592,-5.8712,-5.8712,-5.8712,-5.8712,-5.8712,-5.8712,-5.8739,-5.8821,-5.8902,-5.8925,-5.9117,-5.9233,-5.9215,-5.9214,-5.9284,-5.9232,-5.9177,-5.9042,-5.8872,-5.7392,-5.7522,-5.8883,-5.8009,-5.645,-5.4823,-5.3186,-5.1649,-4.9927,-5.0062,-5.0008,-5.0056,-5.0056,-4.99,-4.9825,-5.1244,-5.2227,-5.2405,-5.3803,-5.4735,-5.4912,-5.6246,-5.7278,-5.7478,-5.8414,-5.9082,-5.9252,-5.923,-5.9232,-5.9419,-5.9463,-5.9506,-5.9468,-5.9382,-6.0286,-6.2184,-6.1808,-6.4139,-6.741,-6.8634,-6.8972,-6.9365,-6.9402,-6.9402,-6.9402,-6.9402,-6.9402,-6.9402,-6.9402,-6.9386,-6.939,-6.9449,-6.9468,-6.9706,-6.977,-6.9762,-6.9767,-6.9778,-6.9782,-6.9814,-6.9889,-6.9969,-6.9988,-7.0009,-6.9998,-6.9998,-6.9998,-6.9998,-6.9998,-6.9998,-6.9998,-6.9998,-6.9998,-7.0877,-4.5668,-4.5668,-4.5668,-4.5905,-4.6325,-4.6376,-4.762,-4.9649,-5.1235,-5.3074,-5.5283,-5.6728,-5.763,-5.8098,-5.8135,-5.8199,-5.8328,-5.8426,-5.8478,-5.8527,-5.862,-5.8648,-5.8712,-5.8712,-5.8712,-5.8712,-5.8712,-5.8712,-5.8739,-5.8821,-5.8992,-5.9157,-5.9252,-5.9252,-5.9252,-5.9267,-5.9247,-5.9247,-5.9355,-5.9393,-5.9318,-5.8904,-5.8914,-5.9355,-5.9152,-5.8228,-5.6677,-5.6244,-5.5284,-5.3616,-5.3534,-5.354,-5.3546,-5.354,-5.239,-5.0419,-5.2548,-5.4159,-5.4095,-5.5637,-5.6591,-5.6599,-5.7933,-5.8826,-5.8902,-5.92,-5.9411,-5.9411,-5.9404,-5.9404,-5.9506,-5.9582,-5.9615,-5.9608,-5.9517,-5.9602,-6.0435,-6.1357,-6.2861,-6.5267,-6.6583,-6.7523,-6.8951,-6.9139,-6.9177,-6.9327,-6.9402,-6.9402,-6.9402,-6.9402,-6.9427,-6.9523,-6.9468,-6.9468,-6.9503,-6.9663,-6.9762,-6.978,-6.9778,-6.9837,-6.9925,-6.9962,-7.0008,-6.9985,-7.0009,-6.9998,-6.9998,-6.9998,-6.9998,-6.9998,-6.9998,-6.9998,-6.9998,-6.9998,-7.0719,-4.5668,-4.5668,-4.5713,-4.6076,-4.6534,-4.677,-4.8497,-5.1049,-5.2374,-5.4219,-5.6365,-5.7593,-5.8135,-5.8135,-5.8162,-5.8298,-5.8389,-5.8515,-5.8535,-5.862,-5.8648,-5.8712,-5.8712,-5.8712,-5.8712,-5.8712,-5.8712,-5.8729,-5.8784,-5.8832,-5.9097,-5.9409,-5.9516,-5.9506,-5.9557,-5.9508,-5.9533,-5.9533,-5.9571,-5.9583,-5.9628,-5.9612,-5.9622,-5.9631,-5.9714,-5.9038,-5.7625,-5.7483,-5.6766,-5.5172,-5.4979,-5.5586,-5.6914,-5.5738,-5.4106,-5.2399,-5.3954,-5.5268,-5.5885,-5.747,-5.8358,-5.824,-5.913,-5.9622,-5.9622,-5.958,-5.958,-5.9649,-5.9622,-5.9622,-5.9659,-5.9666,-5.967,-5.9747,-5.9646,-5.9884,-6.0473,-6.1376,-6.2541,-6.4082,-6.4645,-6.5435,-6.6771,-6.6224,-6.6541,-6.9027,-6.9402,-6.9402,-6.9402,-6.9402,-6.9427,-6.9468,-6.9506,-6.9467,-6.9506,-6.9647,-6.9755,-6.984,-6.9858,-6.9859,-6.9966,-7.0007,-7.0008,-7.0014,-7.0004,-6.9998,-6.9998,-6.9998,-6.9998,-6.9998,-6.9998,-6.9998,-6.9998,-6.9998,-7.0302,-4.5713,-4.5713,-4.5888,-4.6243,-4.6692,-4.7132,-4.9308,-5.2399,-5.287,-5.4825,-5.7583,-5.7878,-5.7951,-5.813,-5.8261,-5.8352,-5.8515,-5.8498,-5.8583,-5.8702,-5.8766,-5.8729,-5.8729,-5.8766,-5.8739,-5.8712,-5.8729,-5.8784,-5.8902,-5.897,-5.9177,-5.9621,-5.9819,-5.9821,-5.9866,-5.9841,-5.9853,-5.9853,-5.9776,-5.9738,-5.9869,-5.9873,-5.9873,-5.9873,-5.9869,-5.9224,-5.7934,-5.7711,-5.7028,-5.5624,-5.5548,-5.6876,-5.911,-5.6914,-5.532,-5.5472,-5.5168,-5.5624,-5.7141,-5.8811,-5.9603,-5.9835,-5.9831,-5.9826,-5.9864,-5.9745,-5.9738,-5.9815,-5.9869,-5.9826,-5.9869,-5.9783,-5.9744,-5.9849,-5.9781,-6.0272,-6.1467,-6.1864,-6.2466,-6.4157,-6.346,-6.3197,-6.4157,-6.218,-6.2498,-6.7727,-6.8629,-6.8989,-6.9327,-6.944,-6.9444,-6.9447,-6.9523,-6.96,-6.9651,-6.9762,-6.9835,-6.9966,-6.9966,-6.995,-6.997,-7.0006,-7.0,-7.0014,-6.9998,-6.9998,-6.9998,-6.9998,-6.9998,-6.9998,-6.9998,-6.9998,-6.9998,-6.9998,-6.9993,-4.5757,-4.5845,-4.6236,-4.6455,-4.6694,-4.7512,-4.9147,-5.1414,-5.2738,-5.4423,-5.6147,-5.6294,-5.7056,-5.8224,-5.8328,-5.8419,-5.8498,-5.8498,-5.8617,-5.8845,-5.8869,-5.8869,-5.8869,-5.8869,-5.8809,-5.8729,-5.892,-5.906,-5.911,-5.9355,-5.9571,-5.967,-5.9819,-5.9866,-5.9866,-5.9847,-5.9853,-5.9853,-5.9853,-5.9864,-5.9869,-5.9873,-5.9873,-5.9873,-5.9873,-5.9684,-5.938,-5.9342,-5.9152,-5.8811,-5.8773,-5.9114,-5.9721,-5.8014,-5.7521,-5.8394,-5.642,-5.5168,-5.5624,-5.7141,-5.8583,-5.9759,-5.9873,-5.9873,-5.9869,-5.9858,-5.9864,-5.9869,-5.9835,-5.9873,-5.9869,-5.982,-5.9853,-6.0004,-5.9903,-6.0066,-6.0297,-6.0285,-6.083,-6.2353,-6.2501,-6.2859,-6.3668,-6.1692,-6.143,-6.5076,-6.6842,-6.8103,-6.929,-6.9553,-6.9562,-6.9558,-6.9566,-6.9589,-6.9847,-6.9857,-6.9857,-6.9968,-6.9992,-7.0003,-7.0004,-7.0,-6.9998,-7.0014,-6.9998,-6.9998,-6.9998,-6.9998,-6.9998,-6.9998,-6.9998,-6.9998,-6.9998,-6.9998,-6.9948,-4.6076,-4.6201,-4.6651,-4.6954,-4.7202,-4.7739,-4.9119,-5.0947,-5.1933,-5.2789,-5.3599,-5.441,-5.5685,-5.7184,-5.728,-5.7708,-5.8498,-5.8555,-5.8707,-5.8902,-5.8902,-5.8902,-5.8902,-5.8962,-5.8954,-5.8896,-5.9007,-5.9195,-5.9376,-5.9595,-5.9677,-5.9773,-5.9821,-5.9847,-5.9853,-5.9858,-5.9864,-5.9864,-5.9869,-5.9873,-5.9873,-5.9873,-5.9873,-5.9873,-5.9873,-5.9873,-5.9873,-5.9873,-5.9873,-5.9873,-5.9873,-5.9873,-5.9835,-5.8394,-5.7597,-5.7597,-5.5965,-5.4979,-5.4979,-5.5851,-5.6762,-5.7559,-5.8356,-5.8478,-5.7618,-5.8288,-5.8811,-5.8811,-5.9494,-5.9873,-5.9949,-5.9949,-5.9987,-6.0025,-6.0029,-5.9967,-5.9953,-5.9855,-6.0105,-6.0943,-6.1067,-6.1388,-6.2309,-6.0943,-6.0911,-6.3076,-6.4978,-6.6557,-6.8121,-6.7862,-6.7689,-6.8414,-6.8452,-6.8718,-6.9781,-6.9933,-6.9933,-6.9971,-7.0009,-7.0006,-6.9985,-7.0014,-6.9985,-7.0004,-6.9998,-6.9998,-6.9998,-6.9998,-6.9998,-6.9998,-6.9998,-6.9998,-6.9998,-6.9998,-6.9942,-4.6534,-4.6612,-4.7097,-4.7542,-4.7832,-4.8057,-4.9002,-5.0606,-5.0606,-5.0726,-5.1048,-5.2449,-5.4026,-5.5662,-5.5609,-5.6581,-5.8156,-5.8276,-5.8572,-5.891,-5.8947,-5.8932,-5.8932,-5.9131,-5.9152,-5.9072,-5.9157,-5.9372,-5.967,-5.9704,-5.9773,-5.9853,-5.9858,-5.9864,-5.9869,-5.9873,-5.9873,-5.9873,-5.9873,-5.9873,-5.9873,-5.9873,-5.9873,-5.9873,-5.9873,-5.9873,-5.9873,-5.9873,-5.9873,-5.9835,-5.965,-5.9616,-5.9775,-5.7912,-5.6087,-5.4485,-5.43,-5.4307,-5.4272,-5.45,-5.4649,-5.4721,-5.6235,-5.6477,-5.4822,-5.6031,-5.7081,-5.7457,-5.8554,-5.9498,-5.9684,-5.9646,-5.9726,-6.0,-6.0094,-6.01,-6.0062,-5.9962,-5.9954,-5.9992,-5.9818,-5.9844,-6.0071,-6.0047,-6.0568,-6.1856,-6.3721,-6.517,-6.5916,-6.5392,-6.5339,-6.6402,-6.6744,-6.7655,-6.9363,-6.9819,-6.9553,-6.9856,-6.9764,-6.9326,-6.8974,-6.9435,-7.0004,-6.9998,-6.9998,-6.9998,-6.9998,-6.9998,-6.9998,-6.9998,-6.9998,-6.9998,-6.9998,-6.9955,-6.989,-4.699,-4.7132,-4.7542,-4.7801,-4.8027,-4.8325,-4.871,-4.9021,0.0,0.0,0.0,-5.1269,-5.2357,-5.4056,-5.4056,-5.4989,-5.6542,-5.6643,-5.7553,-5.9196,-5.9233,-5.9215,-5.9232,-5.9457,-5.9393,-5.9117,-5.9411,-5.9606,-5.9687,-5.9813,-5.9858,-5.9869,-5.9869,-5.9869,-5.9873,-5.9873,-5.9873,-5.9873,-5.9873,-5.9873,-5.9873,-5.9873,-5.9873,-5.9873,-5.9873,-5.9873,-5.9873,-5.9873,-5.9873,-5.9835,-5.8532,-5.8429,-5.963,-5.5733,-5.2652,-5.0998,-5.0828,-5.0836,-5.0712,-5.1963,-5.2806,-5.2924,-5.4503,-5.4928,-5.3668,-5.3825,-5.4781,-5.6606,-5.6984,-5.7395,-5.7905,-5.7988,-5.8529,-5.9945,-6.0099,-6.0062,-6.0062,-6.0052,-5.9872,-6.0044,-5.991,-5.9986,-5.9986,-6.0062,-6.0206,-6.0783,-6.2871,-6.465,-6.3625,-6.3175,-6.3289,-6.4124,-6.5301,-6.7161,-6.9019,-6.8451,-6.807,-6.9343,-6.8681,-6.7419,-6.6654,-6.8101,-6.9771,-6.9923,-6.9998,-6.9885,-6.9923,-6.9885,-6.9998,-6.9998,-6.9998,-6.9998,-6.9998,-6.992,-6.9821,-4.7473,0.0,-4.8021,-4.8232,0.0,-4.8499,-4.8579,-4.8579,-4.8579,-4.9058,-4.9758,-4.9758,-5.0697,-5.2381,-5.2381,-5.3322,-5.4973,-5.4998,-5.5636,-5.6808,-5.6808,-5.7289,-5.8175,-5.8336,-5.8737,-5.9366,-5.9545,-5.9726,-5.9813,-5.9858,-5.9873,-5.9873,-5.9873,-5.9873,-5.9873,-5.9873,-5.9873,-5.9873,-5.9873,-5.9873,-5.9873,-5.9873,-5.9873,-5.9873,-5.9873,0.0,0.0,0.0,0.0,0.0,0.0,0.0,0.0,0.0,0.0,-4.9974,-4.8367,-4.7374,-4.7359,-4.8042,-4.8579,-4.8668,-5.019,-5.0228,-4.7934,-5.0057,-5.2302,-5.4247,-5.5767,-5.6452,-5.6225,-5.6148,-5.6517,-5.7349,-5.7495,-5.7487,-5.7518,-5.7518,-5.786,-5.8543,-5.8809,-5.915,-5.9948,-6.01,-6.01,-6.0213,-6.1504,-6.215,-6.1466,-6.1314,-6.139,-6.1694,-6.2755,-6.3737,-6.4728,-6.5105,-6.6269,-6.7016,-6.675,-6.5878,-6.5066,-6.6318,-6.8069,-6.9549,-6.8524,-6.7765,-6.841,-6.8676,-6.8979,-6.9738,-6.9998,-6.9986,-6.9982,-6.9755,-6.9564,-4.7954,-4.7984,-4.8408,-4.8579,-4.8579,-4.8579,-4.8579,-4.8579,-4.8579,-4.8579,-4.8579,-4.8579,-4.9368,-5.0617,-5.068,-5.1682,-5.3327,-5.3413,-5.3798,-5.4402,-5.445,-5.5243,-5.6612,-5.6736,-5.7488,-5.8709,-5.8798,-5.8858,-5.8925,-5.8925,-5.8925,-5.8963,-5.8963,-5.9114,-5.938,0.0,0.0,0.0,-5.9266,-5.957,-5.9873,-5.9873,-5.9878,-5.9848,-5.984,0.0,-5.9405,-5.8185,-5.7312,-5.6824,-5.5278,0.0,0.0,0.0,0.0,0.0,0.0,0.0,0.0,0.0,0.0,0.0,-4.4841,-4.4833,-4.2299,-4.6316,-4.9692,-5.11,-5.3646,-5.5008,-5.4374,-5.433,-5.4523,-5.4895,-5.5008,-5.4954,-5.4964,-5.5012,-5.5457,-5.6859,-5.7024,-5.767,-5.9188,-5.9492,-5.9568,-5.9986,-6.01,-6.01,-6.0138,-6.0176,-6.0138,-6.0098,-6.0313,-6.0193,-6.0098,-6.2328,-6.3832,-6.4085,-6.4216,-6.4298,-6.4014,-6.4421,-6.6096,-6.8183,-6.6779,-6.5489,-6.6703,-6.6969,-6.7343,-6.8697,-6.9228,-6.9571,-6.978,-6.9323,-6.8845,-4.8536,-4.8499,-4.8589,-4.8579,-4.8579,-4.8579,-4.8579,-4.8579,-4.8579,-4.8579,-4.8579,-4.8579,-4.8778,-4.9089,-4.9089,-5.0014,-5.1606,-5.175,-5.2779,-5.4418,-5.4555,-5.4749,-5.497,-5.5181,-5.5349,-5.5467,-5.5543,-5.5577,-5.5624,-5.5624,-5.5662,-5.5624,-5.5624,-5.6345,-5.7711,-5.6383,-5.5624,-5.5662,-5.7103,-5.8507,-5.9835,-5.9873,-5.9851,-5.9871,-5.9855,-5.9185,-5.7777,-5.7473,-5.6676,-5.5182,-5.3496,-5.1735,-4.9851,-4.7084,-4.5492,0.0,-4.2311,0.0,0.0,0.0,0.0,0.0,0.0,0.0,0.0,-4.4291,-4.6965,-4.7197,-4.9288,-5.1158,-5.2504,-5.2636,-5.3233,-5.463,-5.488,-5.4857,-5.4848,-5.4945,-5.5057,-5.5138,-5.5258,-5.5961,-5.7632,-5.7442,-5.8011,-5.9568,-5.991,-5.9948,-6.0062,-6.0062,-6.0055,-6.0113,-6.0101,-6.0075,-6.0168,-6.0515,-6.0892,-6.0948,-6.195,-6.2374,-6.1125,-6.2974,-6.4952,-6.5413,-6.5071,-6.4882,-6.5147,-6.5261,-6.5321,-6.5537,-6.6601,-6.7809,-6.8794,-6.807,-6.7074,-4.8579,-4.8579,-4.8579,-4.8579,-4.8579,-4.8579,-4.8579,-4.8579,-4.8579,-4.8579,-4.8579,-4.8605,-4.8645,-4.8744,-4.8768,-4.926,-5.0008,-5.0151,-5.0737,-5.162,-5.1779,-5.2416,-5.3413,-5.3538,-5.4083,-5.4917,-5.4987,-5.5008,-5.4979,-5.4979,-5.4979,-5.4979,-5.4979,-5.4903,-5.4717,-5.3954,-5.4068,-5.4979,-5.6686,-5.8292,-5.9787,-5.9865,-5.9871,-5.9863,-5.899,-5.8109,-5.736,-5.5571,-5.4199,-5.3439,-5.1788,-5.0528,-4.9738,-4.4905,-4.1247,0.0,0.0,0.0,0.0,0.0,0.0,0.0,0.0,0.0,0.0,0.0,-4.5264,-3.7993,-4.4905,-4.9697,-4.9488,-4.9517,-4.9791,-5.0516,-5.0633,-5.1002,-5.19,-5.2065,-5.2559,-5.3788,-5.3698,-5.4377,-5.678,-5.711,-5.7563,-5.8512,-5.8512,-5.8773,-5.9636,-5.9912,-5.998,-5.9973,-6.003,-6.0094,-6.0097,-6.0099,-6.0099,-6.0132,-6.0698,-6.0955,-6.0253,-6.131,-6.2226,-6.2201,-6.2235,-6.2491,-6.3326,-6.3456,-6.3073,-6.2642,-6.3263,-6.4655,-6.606,-6.5731,-6.5149,-4.8579,-4.8579,-4.8147,-4.7963,-4.7963,-4.8,-4.8247,-4.8579,-4.8579,-4.8579,-4.8531,-4.7745,-4.7511,-4.7583,-4.7207,-4.737,-4.7902,-4.8437,-4.8947,-4.9422,-4.9602,-5.0463,-5.1833,-5.1878,-5.258,-5.3741,-5.3822,-5.3827,-5.3802,-5.3802,-5.3802,-5.3802,-5.3423,-5.2588,-5.134,-5.1302,-5.2133,-5.3802,-5.5472,-5.7087,-5.8619,-5.9074,-5.9255,-5.9251,-5.76,-5.6569,-5.6124,-5.3651,-5.2115,-5.1651,-4.9666,-4.8941,-4.9614,-4.2326,0.0,0.0,0.0,0.0,0.0,0.0,0.0,0.0,0.0,-3.1352,-2.7531,0.0,-3.9882,0.0,-4.15,-4.9262,-4.7979,-4.7477,0.0,0.0,-4.6895,-4.7148,-4.8383,-4.8573,-4.9326,-5.138,-5.1314,-5.2313,-5.554,-5.6147,-5.6258,-5.629,-5.6773,-5.7606,-5.8834,-5.9472,-5.9814,-5.9849,-5.9912,-5.9939,-5.9977,-5.9979,-5.9977,-6.0019,-5.9641,-5.9562,-6.0004,-6.0101,-6.0082,-6.0093,-6.0003,-6.04,-6.1543,-6.164,-6.0853,-5.9099,-5.9306,-6.0546,-6.2406,-6.2786,-6.2776,-4.8579,-4.8442,-4.6895,-4.6268,-4.6268,-4.6268,-4.7152,-4.8579,-4.8557,-4.8582,-4.8361,-4.5431,-4.4124,-4.4073,-4.2746,0.0,-4.4751,-4.6613,-4.8145,-4.9527,-4.982,-5.003,-5.0173,-5.0154,-5.0247,-5.0408,-5.0342,-5.035,-5.0388,-5.0388,-5.035,-5.0312,-4.879,-4.7993,-4.7842,-4.7845,-4.8676,-5.0388,-5.2057,-5.3633,-5.5202,-5.6748,-5.7549,-5.7546,-5.5927,-5.432,-5.2745,-5.2427,-5.1584,-4.9976,-4.6878,-4.6528,-4.9236,0.0,0.0,0.0,0.0,0.0,0.0,0.0,0.0,0.0,0.0,0.0,0.0,0.0,0.0,0.0,-4.0125,0.0,-4.9576,-4.8156,0.0,0.0,0.0,-4.4991,-4.5106,-4.513,-4.5594,-4.6877,0.0,0.0,-5.3044,-5.303,-5.2714,-5.2718,-5.5288,-5.7171,-5.7322,-5.8665,-5.9673,-5.9693,-5.9697,-5.9714,-5.9752,-5.96,-5.9609,-5.9813,-5.8585,-5.8223,-5.9688,-6.0025,-6.0022,-6.006,-5.9848,-5.9727,-5.9831,-5.9676,-5.8661,-5.53,-5.4911,-5.5908,-5.876,-5.9463,-5.9486,-4.6268,-4.2695,-4.1995,-4.1737,-4.17,-4.1745,-4.2114,-4.2727,-4.2713,-4.2742,-4.2753,-4.1473,-4.0402,-3.9476,-3.8932,0.0,0.0,0.0,-4.408,-4.6658,-4.6848,-4.7992,-4.9863,-4.9952,-4.9932,-4.9953,-4.9958,-4.9962,-4.9932,-4.9932,-4.7928,-4.3992,0.0,0.0,-4.4447,-4.6425,-4.7785,-4.8528,-5.1112,-5.276,-5.3418,-5.4999,-5.5809,-5.5662,-5.4143,-5.2948,-5.2294,-5.1287,-4.9549,-4.6819,-4.4441,-4.1496,0.0,0.0,0.0,0.0,0.0,0.0,0.0,0.0,0.0,0.0,0.0,-2.439,-2.1359,0.0,0.0,0.0,-3.4978,-4.2759,-4.0773,-4.277,0.0,0.0,0.0,0.0,0.0,0.0,0.0,-3.6885,-4.2773,-4.8209,-5.0731,-5.086,-5.1011,-5.1914,-5.3177,-5.4757,-5.675,0.0,-5.8477,-5.9449,-5.9615,-5.9652,-5.9539,-5.8468,-5.8181,-5.9533,-5.7609,-5.6846,-5.9385,-5.8242,-5.7723,-5.9184,-5.8244,-5.6729,-5.6735,-5.6472,-5.5316,-5.2158,-5.2891,-5.452,-5.583,-5.6163,-5.6158,-4.1848,0.0,0.0,0.0,0.0,-3.6787,-3.7064,-3.747,-3.7509,-3.7585,-3.7619,-3.671,0.0,0.0,0.0,0.0,0.0,0.0,-4.073,-4.2666,-4.5191,-4.7083,-4.8499,-4.8499,-4.8518,-4.8431,-4.7564,-4.7113,-4.7087,-4.6138,-4.296,-3.7887,0.0,0.0,0.0,0.0,-4.6238,-4.6869,-5.0059,-5.197,-5.2427,-5.3503,-5.4061,-5.3918,-5.2382,-5.1589,-5.1539,-4.9451,-4.6997,-4.4101,-4.1005,0.0,0.0,0.0,0.0,0.0,0.0,0.0,0.0,0.0,0.0,0.0,0.0,0.0,0.0,0.0,0.0,0.0,0.0,0.0,-3.3477,-3.684,-3.906,0.0,0.0,0.0,0.0,0.0,0.0,0.0,0.0,0.0,-4.934,-4.8783,-4.8725,0.0,0.0,-5.2769,-5.5154,-5.5981,-5.677,-5.7898,-5.8124,0.0,-5.8048,-5.6547,-5.57,-5.6595,-5.4832,-5.412,-5.6656,-5.5817,-5.5624,-5.8016,-5.6471,-5.4076,-5.2508,-5.1657,-5.066,-4.8848,-4.9858,-5.1599,-5.2553,-5.281,-5.2859,0.0,0.0,0.0,0.0,0.0,0.0,0.0,0.0,-3.4218,-3.4252,0.0,-3.1065,0.0,0.0,0.0,0.0,0.0,-3.6637,0.0,0.0,-4.5637,-4.8099,-4.5152,-4.5013,-4.5063,-4.4847,-4.1942,-4.0402,-4.0105,-3.7073,0.0,0.0,0.0,0.0,0.0,0.0,-4.3354,-4.5023,-4.8368,-5.0757,-5.2209,-5.2346,-5.2373,-5.2344,-5.0746,-4.984,-4.9727,-4.6635,-4.4021,-4.2203,-3.6096,0.0,0.0,0.0,0.0,0.0,0.0,0.0,0.0,0.0,0.0,0.0,0.0,0.0,0.0,0.0,0.0,0.0,0.0,0.0,0.0,-3.1326,0.0,0.0,0.0,0.0,0.0,0.0,0.0,0.0,0.0,0.0,-4.8699,-4.6701,-4.528,-4.7033,0.0,0.0,0.0,0.0,-5.4531,-5.4644,-5.4606,-5.4627,-5.459,-5.3708,-5.2301,-5.0331,0.0,0.0,-4.9972,-5.2607,-5.47,-5.4949,-5.4621,-5.2597,-4.6234,-4.5101,-4.4838,-4.4575,-4.4668,-4.5876,-4.8502,-4.9146,-4.9473,0.0,0.0,0.0,0.0,0.0,0.0,0.0,0.0,0.0,-2.7926,0.0,-2.6818,0.0,0.0,0.0,0.0,0.0,0.0,0.0,0.0,-3.5578,-3.8041,-4.0093,-4.006,-4.0108,0.0,-3.895,-3.5581,0.0,0.0,0.0,0.0,0.0,0.0,0.0,0.0,-4.1572,-4.3355,-4.7685,-5.0188,-5.0615,-5.0672,-5.067,-5.0644,-5.0067,-4.8707,-4.6555,-4.3282,-3.9728,0.0,0.0,0.0,0.0,0.0,0.0,0.0,0.0,0.0,0.0,0.0,0.0,0.0,0.0,0.0,0.0,0.0,0.0,0.0,0.0,0.0,0.0,0.0,-3.168,0.0,0.0,0.0,0.0,0.0,0.0,0.0,0.0,0.0,-4.2621,-4.2983,-4.3857,-4.646,-4.7912,-4.9468,-5.1505,0.0,0.0,0.0,0.0,0.0,0.0,0.0,-5.1523,-4.9859,-4.931,-4.9163,-4.9505,-4.9364,-4.9747,-5.1272,0.0,0.0,-4.222,-4.1393,-4.0654,-3.8473,-3.8858,-4.0875,-4.5166,-4.4237,-4.3309,0.0,0.0,0.0,0.0,0.0,0.0,0.0,0.0,0.0,-2.1237,-2.1358,0.0,0.0,0.0,0.0,0.0,0.0,0.0,0.0,0.0,0.0,0.0,-3.491,-3.4981,0.0,0.0,0.0,0.0,0.0,0.0,0.0,0.0,0.0,0.0,0.0,0.0,-3.9818,-4.1686,-4.7038,-4.9839,-4.9781,-4.9762,-4.9762,-4.9765,-4.9765,-4.8168,-4.4797,0.0,0.0,0.0,0.0,0.0,0.0,0.0,0.0,0.0,0.0,0.0,0.0,0.0,0.0,0.0,0.0,0.0,0.0,0.0,0.0,0.0,0.0,0.0,0.0,0.0,-2.8298,0.0,0.0,0.0,0.0,0.0,0.0,0.0,0.0,0.0,0.0,0.0,-4.1414,-4.4567,-4.604,-4.7762,-5.0378,-5.0831,-5.1168,0.0,0.0,0.0,0.0,0.0,0.0,0.0,0.0,0.0,0.0,0.0,0.0,0.0,0.0,-3.9625,-3.6736,-3.6823,-3.6236,-3.2478,0.0,0.0,0.0,0.0,0.0,0.0,0.0,0.0,0.0,0.0,0.0,0.0,0.0,0.0,0.0,0.0,0.0,0.0,-1.4934,0.0,0.0,0.0,0.0,0.0,0.0,0.0,0.0,0.0,0.0,0.0,0.0,0.0,0.0,0.0,0.0,0.0,0.0,0.0,0.0,0.0,0.0,-3.8119,-3.9854,-4.6372,-4.9777,-4.9777,-4.9762,-4.9753,-4.9765,-4.9727,-4.8118,-4.4727,0.0,0.0,0.0,0.0,0.0,0.0,0.0,0.0,0.0,0.0,0.0,0.0,0.0,0.0,0.0,0.0,0.0,0.0,0.0,0.0,0.0,0.0,0.0,0.0,0.0,0.0,-2.0992,-2.5827,-3.0225,0.0,0.0,0.0,0.0,0.0,0.0,0.0,0.0,0.0,0.0,-4.4347,-4.6909,-4.8522,-4.8819,-4.8856,-4.8871,-4.8856,-4.8819,-4.8819,-4.8819,-4.8804,0.0,0.0,0.0,0.0,0.0,0.0,0.0,0.0,0.0,0.0,0.0,0.0,0.0,0.0,0.0,0.0,0.0,0.0,0.0,0.0,0.0,0.0,0.0,0.0,0.0,0.0,0.0,0.0,0.0,0.0,0.0,0.0,0.0,0.0,0.0,0.0,0.0,0.0,0.0,0.0,0.0,0.0,0.0,0.0,0.0,0.0,0.0,0.0,0.0,0.0,0.0,0.0,0.0,0.0,-3.6397,-3.8077,-4.5789,-4.9762,-4.9756,-4.9753,-4.976,-4.9727,-4.8583,-4.6371,0.0,0.0,0.0,0.0,0.0,0.0,0.0,0.0,0.0,0.0,0.0,0.0,0.0,0.0,0.0,0.0,0.0,0.0,0.0,0.0,0.0,0.0,0.0,0.0,0.0,0.0,0.0,0.0,-3.1496,-3.1496,-2.8514,0.0,0.0,0.0,0.0,0.0,0.0,0.0,0.0,0.0,0.0,-4.3952,-4.6513,-4.7963,-4.8714,-4.8522,-4.8667,-4.8685,-4.8351,-4.8435,-4.8596,-4.8774,0.0,0.0,0.0,0.0,0.0,0.0,0.0,0.0,0.0,0.0,0.0,0.0,0.0,0.0,0.0,0.0,0.0,0.0,0.0,0.0,0.0,0.0,0.0,0.0,0.0,0.0,0.0,0.0,0.0,0.0,0.0,0.0,0.0,0.0,0.0,0.0,0.0,0.0,0.0,0.0,0.0,0.0,0.0,0.0,0.0,0.0,0.0,0.0,0.0,0.0,0.0,0.0,0.0,-3.5639,-3.7412,-4.553,-4.9765,-4.9758,-4.9782,-4.9771,-4.9765,-4.7499,-4.4684,0.0,0.0,0.0,0.0,0.0,0.0,0.0,0.0,0.0,0.0,0.0,0.0,0.0,0.0,0.0,0.0,0.0,0.0,0.0,0.0,0.0,0.0,0.0,0.0,0.0,0.0,0.0,0.0,-3.0055,-3.0002,-2.7017,0.0,0.0,0.0,0.0,0.0,0.0,0.0,0.0,0.0,0.0,-4.2313,-4.5363,-4.7322,0.0,0.0,-4.8405,-4.8398,-4.8077,-4.8131,-4.791,-4.6856,-4.4793,0.0,0.0,0.0,0.0,0.0,0.0,0.0,0.0,0.0,0.0,0.0,0.0,0.0,0.0,0.0,0.0,0.0,0.0,0.0,0.0,0.0,0.0,0.0,0.0,0.0,0.0,0.0,0.0,0.0,0.0,0.0,0.0,0.0,0.0,0.0,0.0,0.0,0.0,0.0,0.0,0.0,0.0,0.0,0.0,0.0,0.0,0.0,0.0,0.0,0.0,0.0,0.0,0.0,-3.7364,-4.5486,-4.9758,-4.9758,-4.9758,-4.9753,-4.9689,-4.6366,-4.2958,0.0,0.0,0.0,0.0,0.0,0.0,0.0,0.0,0.0,0.0,0.0,0.0,0.0,0.0,0.0,0.0,0.0,0.0,0.0,0.0,0.0,0.0,0.0,0.0,0.0,0.0,0.0,0.0,0.0,0.0,0.0,0.0,0.0,0.0,0.0,0.0,0.0,0.0,0.0,0.0,0.0,-4.1507,-4.4555,-4.674,-4.7954,0.0,0.0,-4.7954,-4.7699,-4.7699,-4.6706,-4.386,0.0,0.0,0.0,0.0,0.0,0.0,0.0,0.0,0.0,0.0,0.0,0.0,0.0,0.0,0.0,0.0,0.0,0.0,0.0,0.0,0.0,0.0,0.0,0.0,0.0,0.0,0.0,0.0,0.0,0.0,0.0,0.0,0.0,0.0,0.0,0.0,0.0,0.0,0.0,0.0,0.0,0.0,0.0,0.0,0.0,0.0,0.0,0.0,0.0,0.0,0.0,0.0,0.0,0.0,-3.5569,-4.4896,-4.9771,-4.9771,-4.9771,-4.9749,-4.9689,-4.5234,0.0,0.0,0.0,0.0,0.0,0.0,0.0,0.0,0.0,0.0,0.0,0.0,0.0,0.0,0.0,0.0,0.0,0.0,0.0,0.0,0.0,0.0,0.0,0.0,0.0,0.0,0.0,-1.8881,0.0,0.0,0.0,0.0,0.0,0.0,0.0,0.0,0.0,0.0,0.0,0.0,0.0,0.0,-3.9368,-4.1471,-4.5255,-4.7463,0.0,0.0,-4.7296,-4.4907,-4.4506,-4.4268,0.0,0.0,0.0,0.0,0.0,0.0,0.0,0.0,0.0,0.0,0.0,0.0,0.0,0.0,0.0,0.0,0.0,0.0,0.0,0.0,0.0,0.0,0.0,0.0,0.0,0.0,0.0,0.0,0.0,0.0,0.0,0.0,0.0,0.0,0.0,0.0,0.0,0.0,0.0,0.0,0.0,0.0,0.0,0.0,0.0,0.0,0.0,0.0,0.0,0.0,0.0,0.0,0.0,0.0,-3.3316,-3.5014,-4.3185,-4.8292,-4.9689,-4.9765,-4.9704,-4.9692,-4.4097,-3.9793,0.0,0.0,0.0,0.0,0.0,0.0,0.0,0.0,0.0,0.0,0.0,0.0,0.0,0.0,0.0,0.0,0.0,0.0,0.0,0.0,0.0,0.0,0.0,0.0,0.0,0.0,0.0,0.0,0.0,0.0,0.0,0.0,0.0,0.0,0.0,0.0,0.0,0.0,0.0,0.0,0.0,0.0,-4.0792,-4.3233,0.0,0.0,0.0,-4.6215,-4.3739,0.0,0.0,0.0,0.0,0.0,0.0,0.0,0.0,0.0,0.0,0.0,0.0,0.0,0.0,0.0,0.0,0.0,0.0,0.0,0.0,0.0,0.0,0.0,0.0,0.0,0.0,0.0,0.0,0.0,0.0,0.0,0.0,0.0,0.0,0.0,0.0,0.0,0.0,0.0,0.0,0.0,0.0,0.0,0.0,0.0,0.0,0.0,0.0,0.0,0.0,0.0,0.0,0.0,0.0,0.0,0.0,0.0,-3.4884,-4.1335,-4.6366,-4.9515,-4.9704,-4.9705,-4.9469,-4.3475,-3.9063,0.0,0.0,0.0,0.0,0.0,0.0,0.0,0.0,0.0,0.0,0.0,0.0,0.0,0.0,0.0,0.0,0.0,0.0,0.0,0.0,0.0,0.0,0.0,0.0,0.0,0.0,0.0,0.0,0.0,0.0,0.0,0.0,0.0,0.0,0.0,0.0,0.0,0.0,0.0,0.0,0.0,-3.497,-4.0819,-4.0864,-4.0718,0.0,0.0,-4.4313,-4.2927,-4.2254,0.0,0.0,0.0,0.0,0.0,0.0,0.0,0.0,0.0,0.0,0.0,0.0,0.0,0.0,0.0,0.0,0.0,0.0,0.0,0.0,0.0,0.0,0.0,0.0,0.0,0.0,0.0,0.0,0.0,0.0,0.0,0.0,0.0,0.0,0.0,0.0,0.0,0.0,0.0,0.0,0.0,0.0,0.0,0.0,0.0,0.0,0.0,0.0,0.0,0.0,0.0,0.0,0.0,0.0,0.0,0.0,-3.4884,-4.1335,-4.6296,-4.9413,-4.9601,-4.9544,-4.9323,-4.5479,-4.0695,0.0,0.0,0.0,0.0,0.0,0.0,0.0,0.0,0.0,0.0,0.0,0.0,0.0,0.0,0.0,0.0,0.0,0.0,0.0,0.0,0.0,0.0,0.0,0.0,0.0,0.0,0.0,0.0,0.0,0.0,0.0,0.0,0.0,0.0,0.0,0.0,0.0,0.0,0.0,0.0,0.0,-3.3962,-3.7899,-3.8352,0.0,0.0,0.0,0.0,-3.906,-3.5882,0.0,0.0,0.0,0.0,0.0,0.0,0.0,0.0,0.0,0.0,0.0,0.0,0.0,0.0,0.0,0.0,0.0,0.0,0.0,0.0,0.0,0.0,0.0,0.0,0.0,0.0,0.0,0.0,0.0,0.0,0.0,0.0,0.0,0.0,0.0,0.0,0.0,0.0,0.0,0.0,0.0,0.0,0.0,0.0,0.0,0.0,0.0,0.0,0.0,0.0,0.0,0.0,0.0,0.0,0.0,0.0,-3.4649,-3.9621,-4.4579,-4.9333,-4.9514,-4.9419,-4.9222,-4.6078,-4.1126,0.0,0.0,0.0,0.0,0.0,0.0,0.0,0.0,0.0,0.0,0.0,0.0,0.0,0.0,0.0,0.0,0.0,0.0,0.0,0.0,0.0,0.0,0.0,0.0,0.0,0.0,0.0,0.0,0.0,0.0,0.0,0.0,0.0,0.0,0.0,0.0,0.0,0.0,0.0,0.0,-3.0405,-3.0846,-3.5556,0.0,0.0,0.0,0.0,0.0,0.0,-3.1195,-2.8509,0.0,0.0,0.0,0.0,0.0,0.0,0.0,0.0,0.0,0.0,0.0,0.0,0.0,0.0,0.0,0.0,0.0,0.0,0.0,0.0,0.0,0.0,0.0,0.0,0.0,0.0,0.0,0.0,0.0,0.0,0.0,0.0,0.0,0.0,0.0,0.0,0.0,0.0,0.0,0.0,0.0,0.0,0.0,0.0,0.0,0.0,0.0,0.0,0.0,0.0,0.0,0.0,0.0,0.0,0.0,-3.3628,-3.7274,-4.2205,-4.8499,-4.9119,-4.9241,-4.9049,-4.5972,-4.1035,-3.4363,0.0,0.0,0.0,0.0,0.0,0.0,0.0,0.0,0.0,0.0,0.0,0.0,0.0,0.0,0.0,0.0,0.0,0.0,0.0,0.0,0.0,0.0,0.0,0.0,0.0,0.0,0.0,0.0,0.0,0.0,0.0,0.0,0.0,0.0,0.0,0.0,0.0,0.0,0.0,-2.897,-2.7173,0.0,0.0,0.0,0.0,0.0,0.0,0.0,0.0,-2.542,0.0,0.0,0.0,0.0,0.0,0.0,0.0,0.0,0.0,0.0,0.0,0.0,0.0,0.0,0.0,0.0,0.0,0.0,0.0,0.0,0.0,0.0,0.0,0.0,0.0,0.0,0.0,0.0,0.0,0.0,0.0,0.0,0.0,0.0,0.0,0.0,0.0,0.0,0.0,0.0,0.0,0.0,0.0,0.0,0.0,0.0,0.0,0.0,0.0,0.0,0.0,0.0,0.0,0.0,0.0,0.0,-3.4899,-3.9809,-4.4826,-4.7727,-4.9123,-4.8975,-4.5756,-4.0829,-3.4111,0.0,0.0,0.0,0.0,0.0,0.0,0.0,0.0,0.0,0.0,0.0,0.0,0.0,0.0,0.0,0.0,0.0,0.0,0.0,0.0,0.0,0.0,0.0,0.0,0.0,0.0,0.0,0.0,0.0,0.0,0.0,0.0,0.0,0.0,0.0,0.0,0.0,0.0,-2.2374,-2.2974,0.0,0.0,0.0,0.0,0.0,0.0,0.0,0.0,-2.1169,0.0,0.0,0.0,0.0,0.0,0.0,0.0,0.0,0.0,0.0,0.0,0.0,0.0,0.0,0.0,0.0,0.0,0.0,0.0,0.0,0.0,0.0,0.0,0.0,0.0,0.0,0.0,0.0,0.0,0.0,0.0,0.0,0.0,0.0,0.0,0.0,0.0,0.0,0.0,0.0,0.0,0.0,0.0,0.0,0.0,0.0,0.0,0.0,0.0,0.0,0.0,0.0,0.0,0.0,0.0,0.0,0.0,0.0,-3.9127,-4.401,-4.719,-4.8825,-4.8782,-4.2985,-3.7791,0.0,0.0,0.0,0.0,0.0,0.0,0.0,0.0,0.0,0.0,0.0,0.0,0.0,0.0,0.0,0.0,0.0,0.0,0.0,0.0,0.0,0.0,0.0,0.0,0.0,0.0,0.0,0.0,0.0,0.0,0.0,0.0,0.0,0.0,0.0,0.0,0.0,0.0,0.0,0.0,0.0,0.0,0.0,0.0,0.0,0.0,0.0,0.0,0.0,0.0,0.0,0.0,0.0,0.0,0.0,0.0,0.0,0.0,0.0,0.0,0.0,0.0,0.0,0.0,0.0,0.0,0.0,0.0,0.0,0.0,0.0,0.0,0.0,0.0,0.0,0.0,0.0,0.0,0.0,0.0,0.0,0.0,0.0,0.0,0.0,0.0,0.0,0.0,0.0,0.0,0.0,0.0,0.0,0.0,0.0,0.0,0.0,0.0,0.0,0.0,0.0,0.0,0.0,0.0,0.0,0.0,0.0,0.0,-3.8307,-4.2877,-4.6537,-4.852,-4.8731,-4.0315,-3.4573,0.0,0.0,0.0,0.0,0.0,0.0,0.0,0.0,0.0,0.0,0.0,0.0,0.0,0.0,0.0,0.0,0.0,0.0,0.0,0.0,0.0,0.0,0.0,0.0,0.0,0.0,0.0,0.0,0.0,0.0,0.0,0.0,0.0,0.0,0.0,0.0,0.0,0.0,0.0,0.0,0.0,0.0,0.0,0.0,0.0,0.0,0.0,0.0,-1.8557,0.0,0.0,0.0,0.0,0.0,0.0,0.0,0.0,0.0,0.0,0.0,0.0,0.0,0.0,0.0,0.0,0.0,0.0,0.0,0.0,0.0,0.0,0.0,0.0,0.0,0.0,0.0,0.0,0.0,0.0,0.0,0.0,0.0,0.0,0.0,0.0,0.0,0.0,0.0,0.0,0.0,0.0,0.0,0.0,0.0,0.0,0.0,0.0,0.0,0.0,0.0,0.0,0.0,0.0,0.0,0.0,0.0,0.0,0.0,-3.5883,-3.9217,-4.5237,-4.8298,-4.7897,-3.9669,-3.2462,0.0,0.0,0.0,0.0,0.0,0.0,0.0,0.0,0.0,0.0,0.0,0.0,0.0,0.0,0.0,0.0,0.0,0.0,0.0,0.0,0.0,0.0,0.0,0.0,0.0,0.0,0.0,0.0,0.0,0.0,0.0,0.0,0.0,0.0,0.0,0.0,0.0,0.0,0.0,0.0,0.0,0.0,0.0,0.0,0.0,0.0,0.0,0.0,0.0,0.0,0.0,0.0,0.0,0.0,0.0,0.0,0.0,0.0,0.0,0.0,0.0,0.0,0.0,0.0,0.0,0.0,0.0,0.0,0.0,0.0,0.0,0.0,0.0,0.0,0.0,0.0,0.0,0.0,0.0,0.0,0.0,0.0,0.0,0.0,0.0,0.0,0.0,0.0,0.0,0.0,0.0,0.0,0.0,0.0,0.0,0.0,0.0,0.0,0.0,0.0,0.0,0.0,0.0,0.0,0.0,0.0,0.0,0.0,-3.276,-3.6965,-4.2334,-4.3132,-3.8955,-3.2671,-2.8142,0.0,0.0,0.0,0.0,0.0,0.0,0.0,0.0,0.0,0.0,0.0,0.0,0.0,0.0,0.0,0.0,0.0,0.0,0.0,0.0,0.0,0.0,0.0,0.0,0.0,0.0,0.0,0.0,0.0,0.0,0.0,0.0,0.0,0.0,0.0,0.0,0.0,0.0,0.0,0.0,0.0,0.0,0.0,0.0,0.0,0.0,0.0,0.0,0.0,0.0,0.0,0.0,0.0,0.0,0.0,0.0,0.0,0.0,0.0,0.0,0.0,0.0,0.0,0.0,0.0,0.0,0.0,0.0,0.0,0.0,0.0,0.0,0.0,0.0,0.0,0.0,0.0,0.0,0.0,0.0,0.0,0.0,0.0,0.0,0.0,0.0,0.0,0.0,0.0,0.0,0.0,0.0,0.0,0.0,0.0,0.0,0.0,0.0,0.0,0.0,0.0,0.0,0.0,0.0,0.0,0.0,0.0,0.0,0.0,-3.3638,-3.7039,-3.6161,-3.0641,-2.7068,-2.4613,0.0,0.0,0.0,0.0,0.0,0.0,0.0,0.0,0.0,0.0,0.0,0.0,0.0,0.0,0.0,0.0,0.0,0.0,0.0,0.0,0.0,0.0,0.0,0.0,0.0,0.0,0.0,0.0,0.0,0.0,0.0,0.0,0.0,0.0,0.0,0.0,0.0,0.0,0.0,0.0,0.0,0.0,0.0,0.0,0.0,0.0,0.0,0.0,0.0,0.0,0.0,0.0,0.0,0.0,0.0,0.0,0.0,0.0,0.0,0.0,0.0,0.0,0.0,0.0,0.0,0.0,0.0,0.0,0.0,0.0,0.0,0.0,0.0,0.0,0.0,0.0,0.0,0.0,0.0,0.0,0.0,0.0,0.0,0.0,0.0,0.0,0.0,0.0,0.0,0.0,0.0,0.0,0.0,0.0,0.0,0.0,0.0,0.0,0.0,0.0,0.0,0.0,0.0,0.0,0.0,0.0,0.0,0.0,0.0,-2.8388,-2.8436,-2.7559,-2.5675,-2.5221,-2.2946,0.0,0.0,0.0,0.0,0.0,0.0,0.0,0.0,0.0,0.0,0.0,0.0,0.0,0.0,0.0,0.0,0.0,0.0,0.0,0.0,0.0,0.0,0.0,0.0,0.0,0.0,0.0,0.0,0.0,0.0,0.0,0.0,0.0,0.0,0.0,0.0,0.0,0.0,0.0,0.0,0.0,0.0,0.0,0.0,0.0,0.0,0.0,0.0,0.0,0.0,0.0,0.0,0.0,0.0,0.0,0.0,0.0,0.0,0.0,0.0,0.0,0.0,0.0,0.0,0.0,0.0,0.0,0.0,0.0,0.0,0.0,0.0,0.0,0.0,0.0,0.0,0.0,0.0,0.0,0.0,0.0,0.0,0.0,0.0,0.0,0.0,0.0,0.0,0.0,0.0,0.0,0.0,0.0,0.0,0.0,0.0,0.0,0.0,0.0,0.0,0.0,0.0,0.0,0.0,0.0,0.0,0.0,0.0,0.0,-2.1077,-2.096,-2.069,-2.0274,-2.0226,-1.9316,-1.7513,0.0,0.0,0.0,0.0,0.0,0.0,0.0,0.0,0.0,0.0,0.0,0.0,0.0,0.0,0.0,0.0,0.0,0.0,0.0,0.0,0.0,0.0,0.0,0.0,0.0,0.0,0.0,0.0,0.0,0.0,0.0,0.0,0.0,0.0,0.0,0.0,0.0,0.0,0.0,0.0,0.0,0.0,0.0,0.0,0.0,0.0,0.0,0.0,0.0,0.0,0.0,0.0,0.0,0.0,0.0,0.0,0.0,0.0,0.0,0.0,0.0,0.0,0.0,0.0,0.0,0.0,0.0,0.0,0.0,0.0,0.0,0.0,0.0,0.0,0.0,0.0,0.0,0.0,0.0,0.0,0.0,0.0,0.0,0.0,0.0,0.0,0.0,0.0,0.0,0.0,0.0,0.0,0.0,0.0,0.0,0.0,0.0,0.0,0.0,0.0,0.0,0.0,0.0,0.0,0.0,0.0,0.0,0.0,-1.6772,-1.6787,-1.6926,-1.713,-1.7118,-1.7082,0.0,0.0,0.0,0.0,0.0,0.0,0.0,0.0,0.0,0.0,0.0,0.0,0.0,0.0,0.0,0.0,0.0,0.0,0.0,0.0,0.0,0.0,0.0,0.0,0.0,0.0,0.0,0.0,0.0,0.0,0.0,0.0,0.0,0.0,0.0,0.0,0.0,0.0,0.0,0.0,0.0,0.0,0.0,0.0,0.0,0.0,0.0,0.0,0.0,0.0,0.0,0.0,0.0,0.0,0.0,0.0,0.0,0.0,0.0,0.0,0.0,0.0,0.0,0.0,0.0,0.0,0.0,0.0,0.0,0.0,0.0,0.0,0.0,0.0,0.0,0.0,0.0,0.0,0.0,0.0,0.0,0.0,0.0,0.0,0.0,0.0,0.0,0.0,0.0,0.0,0.0,0.0,0.0,0.0,0.0,0.0,0.0,0.0,0.0,0.0,0.0,0.0,0.0,0.0,0.0,0.0,0.0,0.0,-1.5456,-1.629,-1.6437,-1.6621,-1.6921,-1.6795,-1.6788,0.0,0.0,0.0,0.0,0.0,0.0,0.0,0.0,0.0,0.0,0.0,0.0,0.0,0.0,0.0,0.0,0.0,0.0,0.0,0.0,0.0,0.0,0.0,0.0,0.0,0.0,0.0,0.0,0.0,0.0,0.0,0.0,0.0,0.0,0.0,0.0,0.0,0.0,0.0,0.0,0.0,0.0,0.0,0.0,0.0,0.0,0.0,0.0,0.0,0.0,0.0,0.0,0.0,0.0,0.0,0.0,0.0,0.0,0.0,0.0,0.0,0.0,0.0,0.0,0.0,0.0,0.0,0.0,0.0,0.0,0.0,0.0,0.0,0.0,0.0,0.0,0.0,0.0,0.0,0.0,0.0,0.0,0.0,0.0,0.0,0.0,0.0,0.0,0.0,0.0,0.0,0.0,0.0,0.0,0.0,0.0,0.0,0.0,0.0,0.0,0.0,0.0,0.0,0.0,0.0,0.0,0.0,0.0,0.0,-1.4642,0.0,-1.5805,0.0,-1.6376,-1.6412,0.0,0.0,0.0,0.0,0.0,0.0,0.0,0.0,0.0,0.0,0.0,0.0,0.0,0.0,0.0,0.0,0.0,0.0,0.0,0.0,0.0,0.0,0.0,0.0,0.0,0.0,0.0,0.0,0.0,0.0,0.0,0.0,0.0,0.0,0.0,0.0,0.0,0.0,0.0,0.0,0.0,0.0,0.0,0.0,0.0,0.0,0.0,0.0,0.0,0.0,0.0,0.0,0.0,0.0,0.0,0.0,0.0,0.0,0.0,0.0,0.0,0.0,0.0,0.0,0.0,0.0,0.0,0.0,0.0,0.0,0.0,0.0,0.0,0.0,0.0,0.0,0.0,0.0,0.0,0.0,0.0,0.0,0.0,0.0,0.0,0.0,0.0,0.0,0.0,0.0,0.0,0.0,0.0,0.0,0.0,0.0,0.0,0.0,0.0,0.0,0.0,0.0,0.0,0.0,0.0,0.0,0.0,0.0,0.0,-1.3268,-1.4138,-1.49,-1.5569,-1.5718,-1.5693,0.0,0.0,0.0,0.0,0.0,0.0,0.0,0.0,0.0,0.0,0.0,0.0,0.0,0.0,0.0,0.0,0.0,0.0,0.0,0.0,0.0,0.0,0.0,0.0,0.0,0.0,0.0,0.0,0.0,0.0,0.0,0.0,0.0,0.0,0.0,0.0,0.0,0.0,0.0,0.0,0.0,0.0,0.0,0.0,0.0,0.0,0.0,0.0,0.0,0.0,0.0,0.0,0.0,0.0,0.0,0.0,0.0,0.0,0.0,0.0,0.0,0.0,0.0,0.0,0.0,0.0,0.0,0.0,0.0,0.0,0.0,0.0,0.0,0.0,0.0,0.0,0.0,0.0,0.0,0.0,0.0,0.0,0.0,0.0,0.0,0.0,0.0,0.0,0.0,0.0,0.0,0.0,0.0,0.0,0.0,0.0,0.0,0.0,0.0,0.0,0.0,0.0,0.0,0.0,0.0,0.0,0.0,0.0,0.0,0.0,-1.3017,-1.3921,-1.4726,-1.4807,-1.475,0.0,0.0,0.0,0.0,0.0,0.0,0.0,0.0,0.0,0.0,0.0,0.0,0.0,0.0,0.0,0.0,0.0,0.0,0.0,0.0,0.0,0.0,0.0,0.0,0.0,0.0,0.0,0.0,0.0,0.0,0.0,0.0,0.0,0.0,0.0,0.0,0.0,0.0,0.0,0.0,0.0,0.0,0.0,0.0,0.0,0.0,0.0,0.0,0.0,0.0,0.0,0.0,0.0,0.0,0.0,0.0,0.0,0.0,0.0,0.0,0.0,0.0,0.0,0.0,0.0,0.0,0.0,0.0,0.0,0.0,0.0,0.0,0.0,0.0,0.0,0.0,0.0,0.0,0.0,0.0,0.0,0.0,0.0,0.0,0.0,0.0,0.0,0.0,0.0,0.0,0.0,0.0,0.0,0.0,0.0,0.0,0.0,0.0,0.0,0.0,0.0,0.0,0.0,0.0,0.0,0.0,0.0,0.0,0.0,0.0,-1.1547,0.0,-1.2584,-1.3558,-1.3963,-1.3731,0.0,0.0,0.0,0.0,0.0,0.0,0.0,0.0,0.0,0.0,0.0,0.0,0.0,0.0,0.0,0.0,0.0,0.0,0.0,0.0,0.0,0.0,0.0,0.0,0.0,0.0,0.0,0.0,0.0,0.0,0.0,0.0,0.0,0.0,0.0,0.0,0.0,0.0,0.0,0.0,0.0,0.0,0.0,0.0,0.0,0.0,0.0,0.0,0.0,0.0,0.0,0.0,0.0,0.0,0.0,0.0,0.0,0.0,0.0,0.0,0.0,0.0,0.0,0.0,0.0,0.0,0.0,0.0,0.0,0.0,0.0,0.0,0.0,0.0,0.0,0.0,0.0,0.0,0.0,0.0,0.0,0.0,0.0,0.0,0.0,0.0,0.0,0.0,0.0,0.0,0.0,0.0,0.0,0.0,0.0,0.0,0.0,0.0,0.0,0.0,0.0,0.0,0.0,0.0,0.0,0.0,0.0,0.0,0.0,0.0,0.0,-1.1033,-1.2075,-1.2492,0.0,0.0,0.0,0.0,0.0,0.0,0.0,0.0,0.0,0.0,0.0,0.0,0.0,0.0,0.0,0.0,0.0,0.0,0.0,0.0,0.0,0.0,0.0,0.0,0.0,0.0,0.0,0.0,0.0,0.0,0.0,0.0,0.0,0.0,0.0,0.0,0.0,0.0,0.0,0.0,0.0,0.0,0.0,0.0,0.0,0.0,0.0,0.0,0.0,0.0,0.0,0.0,0.0,0.0,0.0,0.0,0.0,0.0,0.0,0.0,0.0,0.0,0.0,0.0,0.0,0.0,0.0,0.0,0.0,0.0,0.0,0.0,0.0,0.0,0.0,0.0,0.0,0.0,0.0,0.0,0.0,0.0,0.0,0.0,0.0,0.0,0.0,0.0,0.0,0.0,0.0,0.0,0.0,0.0,0.0,0.0,0.0,0.0,0.0,0.0,0.0,0.0,0.0,0.0,0.0,0.0,0.0,0.0,0.0,0.0,0.0,-0.9684,-0.9928,-1.0442,0.0,-1.0917,0.0,0.0,0.0,0.0,0.0,0.0,0.0,0.0,0.0,0.0,0.0,0.0,0.0,0.0,0.0,0.0,0.0,0.0,0.0,0.0,0.0,0.0,0.0,0.0,0.0,0.0,0.0,0.0,0.0,0.0,0.0,0.0,0.0,0.0,0.0,0.0,0.0,0.0,0.0,0.0,0.0,0.0,0.0,0.0,0.0,0.0,0.0,0.0,0.0,0.0,0.0,0.0,0.0,0.0,0.0,0.0,0.0,0.0,0.0,0.0,0.0,0.0,0.0,0.0,0.0,0.0,0.0,0.0,0.0,0.0,0.0,0.0,0.0,0.0,0.0,0.0,0.0,0.0,0.0,0.0,0.0,0.0,0.0,0.0,0.0,0.0,0.0,0.0,0.0,0.0,0.0,0.0,0.0,0.0,0.0,0.0,0.0,0.0,0.0,0.0,0.0,0.0,0.0,0.0,0.0,0.0,0.0,0.0,0.0,0.0,0.0,0.0,-0.9014,-0.945,-0.9843,0.0,0.0,0.0,0.0,0.0,0.0,0.0,0.0,0.0,0.0,0.0,0.0,0.0,0.0,0.0,0.0,0.0,0.0,0.0,0.0,0.0,0.0,0.0,0.0,0.0,0.0,0.0,0.0,0.0,0.0,0.0,0.0,0.0,0.0,0.0,0.0,0.0,0.0,0.0,0.0,0.0,0.0,0.0,0.0,0.0,0.0,0.0,0.0,0.0,0.0,0.0,0.0,0.0,0.0,0.0,0.0,0.0,0.0,0.0,0.0,0.0,0.0,0.0,0.0,0.0,0.0,0.0,0.0,0.0,0.0,0.0,0.0,0.0,0.0,0.0,0.0,0.0,0.0,0.0,0.0,0.0,0.0,0.0,0.0,0.0,0.0,0.0,0.0,0.0,0.0,0.0,0.0,0.0,0.0,0.0,0.0,0.0,0.0,0.0,0.0,0.0,0.0,0.0,0.0,0.0,0.0,0.0,0.0,0.0,0.0,-0.6778,-0.6913,-0.7438,-0.7792,-0.813,0.0,0.0,0.0,0.0,0.0,0.0,0.0,0.0,0.0,0.0,0.0,0.0,0.0,0.0,0.0,0.0,0.0,0.0,0.0,0.0,0.0,0.0,0.0,0.0,0.0,0.0,0.0,0.0,0.0,0.0,0.0,0.0,0.0,0.0,0.0,0.0,0.0,0.0,0.0,0.0,0.0,0.0,0.0,0.0,0.0,0.0,0.0,0.0,0.0,0.0,0.0,0.0,0.0,0.0,0.0,0.0,0.0,0.0,0.0,0.0,0.0,0.0,0.0,0.0,0.0,0.0,0.0,0.0,0.0,0.0,0.0,0.0,0.0,0.0,0.0,0.0,0.0,0.0,0.0,0.0,0.0,0.0,0.0,0.0,0.0,0.0,0.0,0.0,0.0,0.0,0.0,0.0,0.0,0.0,0.0,0.0,0.0,0.0,0.0,0.0,0.0,0.0,0.0,0.0,0.0,0.0,0.0,0.0,0.0,0.0,0.0,0.0,0.0,0.0,-0.629,0.0,0.0,0.0,0.0,0.0,0.0,0.0,0.0,0.0,0.0,0.0,0.0,0.0,0.0,0.0,0.0,0.0,0.0,0.0,0.0,0.0,0.0,0.0,0.0,0.0,0.0,0.0,0.0,0.0,0.0,0.0,0.0,0.0,0.0,0.0,0.0,0.0,0.0,0.0,0.0,0.0,0.0,0.0,0.0,0.0,0.0,0.0,0.0,0.0,0.0,0.0,0.0,0.0,0.0,0.0,0.0,0.0,0.0,0.0,0.0,0.0,0.0,0.0,0.0,0.0,0.0,0.0,0.0,0.0,0.0,0.0,0.0,0.0,0.0,0.0,0.0,0.0,0.0,0.0,0.0,0.0,0.0,0.0,0.0,0.0,0.0,0.0,0.0,0.0,0.0,0.0,0.0,0.0,0.0,0.0,0.0,0.0,0.0,0.0,0.0,0.0,0.0,0.0,0.0,0.0,0.0,0.0,0.0,0.0,0.0,0.0,0.0,0.0,0.0,0.0,0.0,0.0,0.0,0.0,0.0,0.0,0.0,0.0,0.0,0.0,0.0,0.0,0.0,0.0,0.0,0.0,0.0,0.0,0.0,0.0,0.0,0.0,0.0,0.0,0.0,0.0,0.0,0.0,0.0,0.0,0.0,0.0,0.0,0.0,0.0,0.0,0.0,0.0,0.0,0.0,0.0,0.0,0.0,0.0,0.0,0.0,0.0,0.0,0.0,0.0,0.0,0.0,0.0,0.0,0.0,0.0,0.0,0.0,0.0,0.0,0.0,0.0,0.0,0.0,0.0,0.0,0.0,0.0,0.0,0.0,0.0,0.0,0.0,0.0,0.0,0.0,0.0,0.0,0.0,0.0,0.0,0.0,0.0,0.0,0.0,0.0,0.0,0.0,0.0,0.0,0.0,0.0,0.0,0.0,0.0,0.0,0.0,0.0,0.0,0.0,0.0,0.0,0.0,0.0,0.0,0.0,0.0,0.0,0.0,0.0,0.0,0.0,0.0,0.0,0.0,0.0,0.0,0.0,0.0,0.0,0.0,0.0,0.0,0.0,0.0,0.0,0.0,0.0,0.0,0.0,0.0,0.0,0.0,0.0,0.0,0.0,0.0,0.0,0.0,0.0,0.0,0.0,0.0,0.0,0.0,0.0,0.0,0.0,0.0,0.0,0.0,0.0,0.0,0.0,0.0,0.0,0.0,0.0,0.0,0.0,0.0,0.0,0.0,0.0,0.0,0.0,0.0,0.0,0.0,0.0,0.0,0.0,0.0,0.0,0.0,0.0,0.0,0.0,0.0,0.0,0.0,0.0,0.0,0.0,0.0,0.0,0.0,0.0,0.0,0.0,0.0,0.0,0.0,0.0,0.0,0.0,0.0,0.0,0.0,0.0,0.0,0.0,0.0,0.0,0.0,0.0,0.0,0.0,0.0,0.0,0.0,0.0,0.0,0.0,0.0,0.0,0.0,0.0,0.0,0.0,0.0,0.0,0.0,0.0,0.0,0.0,0.0,0.0,0.0,0.0,0.0,0.0,0.0,0.0,0.0,0.0,0.0,0.0,0.0,0.0,0.0,0.0,0.0,0.0,0.0,0.0,0.0,0.0,0.0,0.0,0.0,0.0,0.0,0.0,0.0,0.0,0.0,0.0,0.0,0.0,0.0,0.0,0.0,0.0,0.0,0.0,0.0,0.0,0.0,0.0,0.0,0.0,0.0,0.0,0.0,0.0,0.0,0.0,0.0,0.0,0.0,0.0,0.0,0.0,0.0,0.0,0.0,0.0,0.0,0.0,0.0,0.0,0.0,0.0,0.0,0.0,0.0,0.0,0.0,0.0,0.0,0.0,0.0,0.0,0.0,0.0,0.0,0.0,0.0,0.0,0.0,0.0,0.0,0.0,0.0,0.0,0.0,0.0,0.0,0.0,0.0,0.0,0.0,0.0,0.0,0.0,0.0,0.0,0.0,0.0,0.0,0.0,0.0,0.0,0.0,0.0,0.0,0.0,0.0,0.0,0.0,0.0,0.0,0.0,0.0,0.0,0.0,0.0,0.0,0.0,0.0,0.0,0.0,0.0,0.0,0.0,0.0,0.0,0.0,0.0,0.0,0.0,0.0,0.0,0.0,0.0,0.0,0.0,0.0,0.0,0.0,0.0,0.0,0.0,0.0,0.0,0.0,0.0,0.0,0.0,0.0,0.0,0.0,0.0,0.0,0.0,0.0,0.0,0.0,0.0,0.0,0.0,0.0,0.0,0.0,0.0,0.0,0.0,0.0,0.0,0.0,0.0,0.0,0.0,0.0,0.0,0.0,0.0,0.0,0.0,0.0,0.0,0.0,0.0,0.0,0.0,0.0,0.0,0.0,0.0,0.0,0.0,0.0,0.0,0.0,0.0,0.0,0.0,0.0,0.0,0.0,0.0,0.0,0.0,0.0,0.0,0.0,0.0,0.0,0.0,0.0,0.0,0.0,0.0,0.0,0.0,0.0,0.0,0.0,0.0,0.0,0.0,0.0,0.0,0.0,0.0,0.0,0.0,0.0,0.0,0.0,0.0,0.0,0.0,0.0,0.0,0.0,0.0,0.0,0.0,0.0,0.0,0.0,0.0,0.0,0.0,0.0,0.0,0.0,0.0,0.0,0.0,0.0,0.0,0.0,0.0,0.0,0.0,0.0,0.0,0.0,0.0,0.0,0.0,0.0,0.0,0.0,0.0,0.0,0.0,0.0,0.0,0.0,0.0,0.0,0.0,0.0,0.0,0.0,0.0,0.0,0.0,0.0,0.0,0.0,0.0,0.0,0.0,0.0,0.0,0.0,0.0,0.0,0.0,0.0,0.0,0.0,0.0,0.0,0.0,0.0,0.0,0.0,0.0,0.0,0.0,0.0,0.0,0.0,0.0,0.0,0.0,0.0,0.0,0.0,0.0,0.0,0.0,0.0,0.0,0.0,0.0,0.0,0.0,0.0,0.0,0.0,0.0,0.0,0.0,0.0,0.0,0.0,0.0,0.0,0.0,0.0,0.0,0.0,0.0,0.0,0.0,0.0,0.0,0.0,0.0,0.0,0.0,0.0,0.0,0.0,0.0,0.0,0.0,0.0,0.0,0.0,0.0,0.0,0.0,0.0,0.0,0.0,0.0,0.0,0.0,0.0,0.0,0.0,0.0,0.0,0.0,0.0,0.0,0.0,0.0,0.0,0.0,0.0,0.0,0.0,0.0,0.0,0.0,0.0,0.0,0.0,0.0,0.0,0.0,0.0,0.0,0.0,0.0,0.0,0.0,0.0,0.0,0.0,0.0,0.0,0.0,0.0,0.0,0.0,0.0,0.0,0.0,0.0,0.0,0.0,0.0,0.0,0.0,0.0,0.0,0.0,0.0,0.0,0.0,0.0,0.0,0.0,0.0,0.0,0.0,0.0,0.0,0.0,0.0,0.0,0.0,0.0,0.0,0.0,0.0,0.0,0.0,0.0,0.0,0.0,0.0,0.0,0.0,0.0,0.0,0.0,0.0,0.0,0.0,0.0,0.0,0.0,0.0,0.0,0.0,0.0,0.0,0.0,0.0,0.0,0.0,0.0,0.0,0.0,0.0,0.0,0.0,0.0,0.0,0.0,0.0,0.0,0.0,0.0,0.0,0.0,0.0,0.0,0.0,0.0,0.0,0.0,0.0,0.0,0.0,0.0,0.0,0.0,0.0,0.0,0.0,0.0,0.0,0.0,0.0,0.0,0.0,0.0,0.0,0.0,0.0,0.0,0.0,0.0,0.0,0.0,0.0,0.0,0.0,0.0,0.0,0.0,0.0,0.0,0.0,0.0,0.0,0.0,0.0,0.0,0.0,0.0,0.0,0.0,0.0,0.0,0.0,0.0,0.0,0.0,0.0,0.0,0.0,0.0,0.0,0.0,0.0,0.0,0.0,0.0,0.0,0.0,0.0,0.0,0.0,0.0,0.0,0.0,0.0,0.0,0.0,0.0,0.0,0.0,0.0,0.0,0.0,0.0,0.0,0.0,0.0,0.0,0.0,0.0,0.0,0.0,0.0,0.0,0.0,0.0,0.0,0.0,0.0,0.0,0.0,0.0,0.0,0.0,0.0,0.0,0.0,0.0,0.0,0.0,0.0,0.0,0.0,0.0,0.0,0.0,0.0,0.0,0.0,0.0,0.0,0.0,0.0,0.0,0.0,0.0,0.0,0.0,0.0,0.0,0.0,0.0,0.0,0.0,0.0,0.0,0.0,0.0,0.0,0.0,0.0,0.0,0.0,0.0,0.0,0.0,0.0,0.0,0.0,0.0,0.0,0.0,0.0,0.0,0.0,0.0,0.0,0.0,0.0,0.0,0.0,0.0,0.0,0.0,0.0,0.0,0.0,0.0]}]]]